[[{"header":{"parameterUnit":"m.s-1","parameterCategory":1,"la1":30.6,"la2":29.2853,"lo1":-89.7004,"lo2":-87.6739,"dy":0.0162,"dx":0.0183,"nx":112,"ny":82,"refTime":"2023-09-07T18:00:00:Z","depth":0,"parameterNumber":2,"parameterNumberName":"U-component_of_WINDS"},"data":[0.0,0.0,0.0,0.0,0.0,0.0,0.0,0.0,0.0,0.0,0.0,0.0,0.0,0.0,0.0,0.0,0.0,0.0,0.0,0.0,0.0,0.0,0.0,0.0,0.0,0.0,0.0,0.0,0.0,0.0,0.0,0.0,0.0,0.0,0.0,0.0,0.0,0.0,0.0,0.0,0.0,0.0,0.0,0.0,0.0,0.0,0.0,0.0,0.0,0.0,0.0,0.0,0.0,0.0,0.0,0.0,0.0,0.0,0.0,0.0,0.0,0.0,0.0,0.0,0.0,0.0,0.0,0.0,0.0,0.0,0.0,0.0,0.0,0.0,0.0,0.0,0.0,0.0,0.0,0.0,0.0,0.0,0.0,0.0,0.0,0.0,0.0,0.0,0.0,0.0,-3.2947,-4.0178,-4.2779,-4.3079,-4.0826,-4.0149,-3.6969,-3.0237,0.0,0.0,0.0,0.0,0.0,0.0,0.0,0.0,0.0,0.0,0.0,0.0,0.0,0.0,0.0,0.0,0.0,0.0,0.0,0.0,0.0,0.0,0.0,0.0,0.0,0.0,0.0,0.0,0.0,0.0,0.0,0.0,0.0,0.0,0.0,0.0,0.0,0.0,0.0,0.0,0.0,0.0,0.0,0.0,0.0,0.0,0.0,0.0,0.0,0.0,0.0,0.0,0.0,0.0,0.0,0.0,0.0,0.0,0.0,0.0,0.0,0.0,0.0,0.0,0.0,0.0,0.0,0.0,0.0,0.0,0.0,0.0,0.0,0.0,0.0,0.0,0.0,0.0,0.0,0.0,0.0,0.0,0.0,0.0,0.0,0.0,0.0,0.0,0.0,0.0,0.0,0.0,0.0,0.0,0.0,0.0,0.0,0.0,0.0,0.0,0.0,0.0,0.0,0.0,-3.6174,-4.2742,-4.3782,-4.313,-4.093,-4.0293,-3.7077,-3.0287,0.0,0.0,0.0,0.0,0.0,0.0,0.0,0.0,0.0,0.0,0.0,0.0,0.0,0.0,0.0,0.0,0.0,0.0,0.0,0.0,0.0,0.0,0.0,0.0,0.0,0.0,0.0,0.0,0.0,0.0,0.0,0.0,0.0,0.0,0.0,0.0,0.0,0.0,0.0,0.0,0.0,0.0,0.0,0.0,0.0,0.0,0.0,0.0,0.0,0.0,0.0,0.0,0.0,0.0,0.0,0.0,0.0,0.0,0.0,0.0,0.0,0.0,0.0,0.0,0.0,0.0,0.0,0.0,0.0,0.0,0.0,0.0,0.0,0.0,0.0,0.0,0.0,0.0,0.0,0.0,0.0,0.0,0.0,0.0,0.0,0.0,0.0,0.0,0.0,0.0,0.0,0.0,0.0,0.0,0.0,0.0,0.0,0.0,0.0,0.0,0.0,0.0,0.0,-3.5492,-4.0513,-4.282,-4.2963,-4.2095,-4.0181,-3.9676,-3.6788,-3.0525,-2.986,0.0,0.0,0.0,0.0,0.0,0.0,0.0,0.0,0.0,0.0,0.0,0.0,0.0,0.0,0.0,0.0,0.0,0.0,0.0,0.0,0.0,0.0,0.0,0.0,0.0,0.0,0.0,0.0,0.0,0.0,0.0,0.0,0.0,0.0,0.0,0.0,0.0,0.0,0.0,0.0,0.0,0.0,0.0,0.0,0.0,0.0,0.0,0.0,0.0,0.0,0.0,0.0,0.0,0.0,0.0,0.0,0.0,0.0,0.0,0.0,0.0,0.0,0.0,0.0,0.0,0.0,0.0,0.0,0.0,0.0,0.0,0.0,0.0,0.0,0.0,0.0,0.0,0.0,0.0,0.0,0.0,0.0,0.0,0.0,0.0,0.0,0.0,0.0,0.0,0.0,0.0,0.0,0.0,0.0,0.0,0.0,0.0,0.0,0.0,0.0,0.0,0.0,-3.8331,-4.2155,-4.2294,-4.204,-4.1198,-3.962,-3.9405,-3.669,-3.0458,-3.008,0.0,0.0,0.0,0.0,0.0,0.0,0.0,0.0,0.0,0.0,0.0,0.0,0.0,0.0,0.0,0.0,0.0,0.0,0.0,0.0,0.0,0.0,0.0,0.0,0.0,0.0,0.0,0.0,0.0,0.0,0.0,0.0,0.0,0.0,0.0,0.0,0.0,0.0,0.0,0.0,0.0,0.0,0.0,0.0,0.0,0.0,0.0,0.0,0.0,0.0,0.0,0.0,0.0,0.0,0.0,0.0,0.0,0.0,0.0,0.0,0.0,0.0,0.0,0.0,0.0,0.0,0.0,0.0,0.0,0.0,0.0,0.0,0.0,0.0,0.0,0.0,0.0,0.0,0.0,0.0,0.0,0.0,0.0,0.0,0.0,0.0,0.0,0.0,0.0,0.0,0.0,0.0,0.0,0.0,0.0,0.0,0.0,0.0,0.0,0.0,0.0,0.0,-3.5037,-3.7979,-4.1958,-4.1937,-4.1086,-3.98,-4.0123,-3.7259,-2.9848,-2.9349,0.0,0.0,0.0,0.0,0.0,0.0,0.0,0.0,0.0,0.0,0.0,0.0,0.0,0.0,0.0,0.0,0.0,0.0,0.0,0.0,0.0,0.0,0.0,0.0,0.0,0.0,0.0,0.0,0.0,0.0,0.0,0.0,0.0,0.0,0.0,0.0,0.0,0.0,0.0,0.0,0.0,0.0,0.0,0.0,0.0,0.0,0.0,0.0,0.0,0.0,0.0,0.0,0.0,0.0,0.0,0.0,0.0,0.0,0.0,0.0,0.0,0.0,0.0,0.0,0.0,0.0,0.0,0.0,0.0,0.0,0.0,0.0,0.0,0.0,0.0,0.0,0.0,0.0,0.0,0.0,0.0,0.0,0.0,0.0,0.0,0.0,0.0,0.0,0.0,0.0,0.0,0.0,0.0,0.0,0.0,0.0,0.0,0.0,0.0,0.0,0.0,0.0,-3.6012,-3.9924,0.0,-4.1009,-4.0758,-4.0134,-3.9975,-3.7266,-3.1059,0.0,0.0,0.0,0.0,0.0,0.0,0.0,0.0,0.0,0.0,0.0,0.0,0.0,0.0,0.0,0.0,0.0,0.0,0.0,0.0,0.0,0.0,0.0,0.0,0.0,0.0,0.0,0.0,0.0,0.0,0.0,0.0,0.0,0.0,0.0,0.0,0.0,0.0,0.0,0.0,0.0,0.0,0.0,0.0,0.0,0.0,0.0,0.0,0.0,0.0,0.0,0.0,0.0,0.0,0.0,0.0,0.0,0.0,0.0,0.0,0.0,0.0,0.0,0.0,0.0,0.0,0.0,0.0,0.0,0.0,0.0,0.0,0.0,0.0,0.0,0.0,0.0,0.0,0.0,0.0,0.0,0.0,0.0,0.0,0.0,0.0,0.0,0.0,0.0,0.0,0.0,0.0,0.0,0.0,0.0,0.0,0.0,0.0,0.0,0.0,0.0,0.0,-3.016,-3.6353,-4.0562,0.0,-4.0357,-4.0461,-4.0246,-4.0112,-3.7497,-3.1517,0.0,0.0,0.0,0.0,0.0,0.0,0.0,0.0,0.0,0.0,0.0,0.0,0.0,0.0,0.0,0.0,0.0,0.0,0.0,0.0,0.0,0.0,0.0,0.0,0.0,0.0,0.0,0.0,0.0,0.0,0.0,0.0,0.0,0.0,0.0,0.0,0.0,0.0,0.0,0.0,0.0,0.0,0.0,0.0,0.0,0.0,0.0,0.0,0.0,0.0,0.0,0.0,0.0,0.0,0.0,0.0,0.0,0.0,0.0,0.0,0.0,0.0,0.0,0.0,0.0,0.0,0.0,0.0,0.0,0.0,0.0,0.0,0.0,0.0,0.0,0.0,0.0,0.0,0.0,0.0,0.0,0.0,0.0,0.0,0.0,0.0,0.0,0.0,0.0,0.0,0.0,0.0,0.0,0.0,0.0,0.0,0.0,0.0,0.0,0.0,0.0,0.0,-3.0731,-3.5345,-3.8787,-3.9807,-4.0105,-4.0167,-4.013,-4.0597,-3.7912,0.0,0.0,0.0,0.0,0.0,0.0,0.0,0.0,0.0,0.0,0.0,0.0,0.0,0.0,0.0,0.0,0.0,0.0,0.0,0.0,0.0,0.0,0.0,0.0,0.0,0.0,0.0,0.0,0.0,0.0,0.0,0.0,0.0,0.0,0.0,0.0,0.0,0.0,0.0,0.0,0.0,0.0,0.0,0.0,0.0,0.0,0.0,0.0,0.0,0.0,0.0,0.0,0.0,0.0,0.0,0.0,0.0,0.0,0.0,0.0,0.0,0.0,0.0,0.0,0.0,0.0,0.0,0.0,0.0,0.0,0.0,0.0,0.0,0.0,0.0,0.0,0.0,0.0,0.0,0.0,0.0,0.0,0.0,0.0,0.0,0.0,0.0,0.0,0.0,0.0,0.0,0.0,0.0,0.0,0.0,0.0,0.0,0.0,0.0,0.0,0.0,0.0,0.0,-3.0272,-3.5799,-3.9789,-4.0193,-4.0657,-4.0924,-4.0896,-4.0874,-3.8109,-3.1585,0.0,0.0,0.0,0.0,0.0,0.0,0.0,0.0,0.0,0.0,0.0,0.0,0.0,0.0,0.0,0.0,0.0,0.0,0.0,0.0,0.0,0.0,0.0,0.0,0.0,0.0,0.0,0.0,0.0,0.0,0.0,0.0,0.0,0.0,0.0,0.0,0.0,0.0,0.0,0.0,0.0,0.0,0.0,0.0,0.0,0.0,0.0,0.0,0.0,0.0,0.0,0.0,0.0,0.0,0.0,0.0,0.0,0.0,0.0,0.0,0.0,0.0,0.0,0.0,0.0,0.0,0.0,0.0,0.0,0.0,0.0,0.0,0.0,0.0,0.0,0.0,0.0,0.0,0.0,0.0,0.0,0.0,0.0,0.0,0.0,0.0,0.0,0.0,0.0,0.0,0.0,0.0,0.0,0.0,0.0,0.0,0.0,0.0,0.0,0.0,0.0,0.0,-3.0472,-3.6243,-4.0193,-4.0193,-4.0774,-4.1134,-4.1088,-4.0853,-3.862,-3.356,0.0,0.0,0.0,0.0,0.0,0.0,0.0,0.0,0.0,0.0,0.0,0.0,0.0,0.0,0.0,0.0,0.0,0.0,0.0,0.0,0.0,0.0,0.0,0.0,0.0,0.0,0.0,0.0,0.0,0.0,0.0,0.0,0.0,0.0,0.0,0.0,0.0,0.0,0.0,0.0,0.0,0.0,0.0,0.0,0.0,0.0,0.0,0.0,0.0,0.0,0.0,0.0,0.0,0.0,0.0,0.0,0.0,0.0,0.0,0.0,0.0,0.0,0.0,0.0,0.0,0.0,0.0,0.0,0.0,0.0,0.0,0.0,0.0,0.0,0.0,0.0,0.0,0.0,0.0,0.0,0.0,0.0,0.0,0.0,0.0,0.0,0.0,0.0,0.0,0.0,0.0,0.0,0.0,0.0,0.0,0.0,0.0,0.0,0.0,0.0,0.0,0.0,-3.13,-3.6685,-4.0298,-4.0019,-4.066,-4.1047,-4.0935,-4.068,-3.9204,-3.6093,0.0,0.0,0.0,0.0,0.0,0.0,0.0,0.0,0.0,0.0,0.0,0.0,0.0,0.0,0.0,0.0,0.0,0.0,0.0,0.0,0.0,0.0,0.0,0.0,0.0,0.0,0.0,0.0,0.0,0.0,0.0,0.0,0.0,0.0,0.0,0.0,0.0,0.0,0.0,0.0,0.0,0.0,0.0,0.0,0.0,0.0,0.0,0.0,0.0,0.0,0.0,0.0,0.0,0.0,0.0,0.0,0.0,0.0,0.0,0.0,-4.2614,0.0,0.0,0.0,0.0,0.0,0.0,0.0,0.0,0.0,0.0,0.0,0.0,0.0,0.0,0.0,0.0,0.0,0.0,0.0,0.0,0.0,0.0,0.0,0.0,0.0,0.0,0.0,0.0,0.0,0.0,0.0,0.0,0.0,0.0,0.0,0.0,0.0,0.0,0.0,0.0,0.0,-3.2633,-3.7386,-4.0694,-4.0851,-4.0896,-4.0935,-4.0888,-4.0745,-3.9299,-3.618,-3.5231,0.0,0.0,0.0,0.0,0.0,0.0,0.0,0.0,0.0,0.0,0.0,0.0,0.0,0.0,0.0,0.0,0.0,0.0,0.0,0.0,0.0,0.0,0.0,0.0,0.0,0.0,0.0,0.0,0.0,0.0,0.0,0.0,0.0,0.0,0.0,0.0,0.0,0.0,0.0,0.0,0.0,0.0,0.0,0.0,0.0,0.0,0.0,0.0,0.0,0.0,0.0,0.0,0.0,0.0,0.0,0.0,0.0,0.0,0.0,0.0,-4.2737,0.0,0.0,0.0,0.0,0.0,0.0,0.0,0.0,0.0,0.0,0.0,0.0,0.0,0.0,0.0,0.0,0.0,0.0,0.0,0.0,0.0,0.0,0.0,0.0,0.0,0.0,0.0,0.0,0.0,0.0,0.0,0.0,0.0,0.0,0.0,0.0,0.0,0.0,0.0,0.0,-3.3047,-3.7733,-4.0965,-4.1,-4.0935,-4.0733,-4.0324,-4.01,-3.9136,-3.7143,-3.5467,0.0,0.0,0.0,0.0,0.0,0.0,0.0,0.0,0.0,0.0,0.0,0.0,0.0,0.0,0.0,0.0,0.0,0.0,0.0,0.0,0.0,0.0,0.0,0.0,0.0,0.0,0.0,0.0,0.0,0.0,0.0,0.0,0.0,0.0,0.0,0.0,0.0,0.0,0.0,0.0,0.0,0.0,0.0,0.0,0.0,0.0,0.0,0.0,0.0,0.0,0.0,0.0,0.0,-4.4168,-4.4394,-4.4394,-4.4261,-4.4237,-4.4397,-4.5857,-4.6541,-4.6449,-4.4326,0.0,0.0,0.0,0.0,0.0,0.0,0.0,0.0,0.0,0.0,0.0,0.0,0.0,0.0,0.0,0.0,0.0,0.0,0.0,0.0,0.0,0.0,0.0,0.0,-3.6399,-3.6187,0.0,0.0,0.0,0.0,0.0,0.0,0.0,0.0,0.0,0.0,0.0,0.0,-3.2988,-3.7575,-4.0672,-4.0521,-4.0474,-4.0169,-3.9456,-3.9105,-3.8707,-3.8112,-3.5464,-3.3758,0.0,0.0,0.0,0.0,0.0,0.0,0.0,0.0,0.0,0.0,0.0,0.0,0.0,0.0,0.0,0.0,0.0,0.0,0.0,0.0,0.0,0.0,0.0,0.0,0.0,0.0,0.0,0.0,0.0,0.0,0.0,0.0,-3.7441,-3.8338,0.0,0.0,0.0,0.0,0.0,0.0,0.0,0.0,0.0,0.0,0.0,0.0,0.0,-4.0957,-4.0839,-4.3476,-4.4778,-4.4719,-4.6885,-4.8224,-4.8767,-4.8634,-4.8914,-4.9409,-4.7386,0.0,-4.6564,-4.6239,0.0,0.0,0.0,0.0,0.0,0.0,0.0,0.0,0.0,0.0,0.0,0.0,0.0,0.0,0.0,0.0,0.0,0.0,0.0,0.0,0.0,0.0,-4.2419,-4.2622,-4.1034,-3.9915,0.0,-3.5659,-3.043,-3.1767,-3.0275,0.0,0.0,0.0,0.0,0.0,0.0,0.0,-3.2838,-3.6446,-3.8933,-3.8888,-3.878,-3.8683,-3.8597,-3.8274,-3.8021,-3.7919,-3.7309,-3.579,-3.3148,-3.4952,0.0,0.0,0.0,0.0,0.0,0.0,0.0,0.0,0.0,0.0,0.0,0.0,0.0,0.0,0.0,0.0,0.0,0.0,0.0,0.0,0.0,0.0,0.0,0.0,0.0,0.0,0.0,0.0,0.0,-3.5722,-3.7987,-3.9843,-3.9531,-3.8183,0.0,0.0,0.0,0.0,0.0,0.0,0.0,0.0,0.0,-4.043,-4.2324,-4.3105,-4.2617,-4.5664,-4.712,-4.6995,-4.808,-4.8681,-4.886,-4.8735,-4.8837,-4.9024,-4.7809,-4.7289,-4.7291,-4.6772,-4.6336,-4.5783,0.0,0.0,0.0,0.0,-3.8681,-3.9164,-3.8614,-3.9451,0.0,-4.044,0.0,0.0,0.0,0.0,0.0,0.0,0.0,0.0,0.0,0.0,0.0,-4.3354,-4.2824,-4.2142,-4.2667,-3.8391,-3.4655,0.0,-3.3581,-3.1166,-2.8612,0.0,0.0,0.0,0.0,-3.3352,-3.4093,-3.6766,-3.8577,-3.8487,-3.8442,-3.818,-3.765,-3.7495,-3.7123,-3.6561,-3.6451,-3.5769,-3.4354,-3.5195,-3.3877,0.0,0.0,0.0,0.0,0.0,0.0,0.0,0.0,0.0,0.0,0.0,0.0,0.0,0.0,0.0,0.0,0.0,0.0,0.0,0.0,0.0,0.0,0.0,0.0,0.0,0.0,0.0,0.0,-3.625,-3.8593,-4.1191,-4.0955,-3.9802,0.0,0.0,0.0,0.0,0.0,0.0,-4.0469,-4.0547,-4.0859,-4.1523,-4.4004,-4.5019,-4.4375,-4.6933,-4.8128,-4.7922,-4.7934,-4.7939,-4.7904,-4.7815,-4.7857,-4.8008,-4.7966,-4.7924,-4.7867,-4.7176,-4.6546,-4.6014,-4.5532,-4.3867,-4.1675,-4.0692,-4.0632,-4.0954,-4.0479,-4.1261,-4.2426,-4.2238,0.0,-3.9528,-3.9093,0.0,0.0,0.0,0.0,-3.7658,-3.9559,-4.0486,-4.1305,-4.2868,-4.322,-4.2955,-4.2229,-3.9644,-3.7685,0.0,-3.6352,-3.3621,-3.0413,0.0,0.0,0.0,0.0,-3.4283,-3.4835,-3.6732,-3.7964,-3.7858,-3.7768,-3.7427,-3.6718,-3.6593,-3.6219,-3.5434,-3.5354,-3.5291,-3.5198,-3.5088,-3.4167,-3.2241,0.0,0.0,0.0,0.0,0.0,0.0,0.0,0.0,0.0,0.0,0.0,0.0,0.0,0.0,0.0,0.0,0.0,0.0,0.0,0.0,0.0,0.0,0.0,0.0,0.0,0.0,0.0,0.0,0.0,-4.2044,-4.4446,0.0,0.0,0.0,0.0,-3.8594,-3.8535,-3.9687,-4.2148,-4.2266,-4.3418,-4.5898,-4.6133,-4.6211,-4.6172,-4.6347,-4.6326,-4.6127,-4.613,-4.6395,-4.6874,-4.6874,-4.728,-4.7987,-4.7987,-4.7987,-4.7987,-4.7949,-4.7894,-4.7703,-4.6032,-4.5323,-4.4957,-4.2428,-4.26,-4.396,-4.3116,-4.3712,-4.4782,-4.444,-4.18,-3.8487,-3.6945,-3.5826,0.0,0.0,-3.7918,-3.9735,-3.9895,-4.1622,-4.3149,-4.2506,-4.2359,-4.1986,-4.0619,-3.8241,-3.7035,0.0,-3.7222,-3.4926,-3.4449,0.0,-3.3891,-3.1699,-3.2913,-3.4093,-3.4145,-3.5408,-3.6328,-3.6328,-3.6068,-3.5858,-3.569,-3.548,-3.5295,-3.5152,-3.4994,-3.4947,-3.4899,-3.4899,-3.4849,-3.4733,-3.2348,0.0,0.0,0.0,0.0,0.0,0.0,0.0,0.0,0.0,0.0,0.0,0.0,0.0,0.0,0.0,0.0,0.0,0.0,0.0,0.0,0.0,0.0,0.0,0.0,0.0,0.0,0.0,0.0,-4.2737,-4.3541,0.0,-4.2492,-4.2394,-4.2028,-4.1113,-4.2598,-4.3945,-4.4863,-4.4902,-4.5332,-4.6269,-4.6308,-4.6308,-4.6307,-4.6307,-4.6202,-4.5994,-4.6005,-4.6007,-4.6028,-4.6028,-4.6147,-4.632,-4.6378,-4.6378,-4.6398,-4.6436,-4.7069,-4.7895,-4.6743,-4.6321,-4.6167,-4.4651,-4.4479,-4.4959,-4.4653,-4.4554,-4.4546,-4.4023,-4.2936,-4.1746,-4.1126,-4.0708,-4.0524,-4.0836,-4.1167,-4.1442,-4.1442,-4.1699,-4.1882,-4.1607,-4.1534,-4.1223,-4.0143,-3.8734,-3.7789,-3.8008,-3.6406,-3.4778,-3.4292,-3.5446,-3.553,-3.2801,-3.4152,-3.5466,-3.5359,-3.5737,-3.6036,-3.5949,-3.5861,-3.5728,-3.5566,-3.5475,-3.5337,-3.5088,-3.5058,-3.4994,-3.4899,-3.4899,-3.4899,-3.4899,-3.4027,-3.2003,0.0,0.0,0.0,0.0,0.0,0.0,0.0,0.0,0.0,0.0,0.0,0.0,0.0,0.0,0.0,0.0,0.0,0.0,0.0,0.0,0.0,0.0,0.0,0.0,0.0,0.0,-3.9934,-4.2779,-4.347,-4.3693,-4.3715,-4.3696,-4.3681,-4.371,-4.5312,-4.6308,-4.6308,-4.6308,-4.6308,-4.6308,-4.6308,-4.6308,-4.6307,-4.6306,-4.6199,-4.5968,-4.5978,-4.5828,-4.5586,-4.5586,-4.5243,-4.467,-4.5263,-4.5223,-4.4743,-4.5355,-4.6395,-4.7549,-4.6723,-4.6397,-4.632,-4.5762,-4.5495,-4.54,-4.5175,-4.4795,-4.4299,-4.3697,-4.3348,-4.3143,-4.3128,-4.291,-4.269,-4.269,-4.2304,-4.1901,-4.1901,-4.1515,-4.1038,-4.0763,-4.0708,-4.0382,-3.9281,-3.8127,-3.72,-3.6879,-3.5907,-3.4763,-3.3642,-3.4692,-3.4727,-3.197,-3.2904,-3.3888,-3.3744,-3.437,-3.4806,-3.4695,-3.5314,-3.5684,-3.5492,-3.4802,-3.4594,-3.5055,-3.4389,-3.4213,-3.4866,-3.417,-3.3743,-3.3634,-3.3156,-3.1597,-2.8881,0.0,0.0,0.0,0.0,0.0,0.0,0.0,0.0,0.0,0.0,0.0,0.0,0.0,0.0,0.0,0.0,0.0,0.0,0.0,0.0,0.0,0.0,0.0,-3.4633,-3.8992,-4.2233,-4.2307,-4.4611,-4.6236,-4.6296,-4.6234,-4.6222,-4.628,-4.6306,-4.6307,-4.6307,-4.6211,-4.6191,-4.6211,-4.6191,-4.6191,-4.6229,-4.6264,-4.6167,-4.5901,-4.589,-4.579,-4.5586,-4.5586,-4.4701,-4.3278,-4.4893,-4.4682,-4.3297,-4.4932,-4.6105,-4.6778,-4.5951,-4.5624,-4.5624,-4.5624,-4.5568,-4.5362,-4.4638,-4.439,-4.4261,-4.3642,-4.2947,-4.2341,-4.2341,-4.1791,-4.1148,-4.1148,-4.1111,-4.1075,-4.1075,-4.1056,-4.0836,-4.0047,-3.9863,-3.9461,-3.7985,-3.6291,-3.5276,-3.6063,-3.5881,-3.4928,-3.2944,-3.2513,-3.1726,-2.9612,-2.9397,0.0,-2.9486,-3.1287,-3.261,-3.261,-3.4355,-3.5509,-3.5492,-3.3395,-3.2974,-3.4955,-3.3029,-3.2707,-3.48,-3.289,-3.1616,-3.1218,-2.9868,-3.006,-3.1929,0.0,0.0,0.0,0.0,0.0,0.0,0.0,0.0,0.0,0.0,0.0,0.0,0.0,0.0,0.0,0.0,0.0,0.0,0.0,0.0,0.0,0.0,-3.9673,-3.9878,-4.1199,-4.284,-4.4809,-4.5714,-4.6209,-4.6236,-4.621,-4.6228,-4.6282,-4.6307,-4.6308,-4.6308,-4.4492,-4.3769,-4.4394,-4.3808,-4.3789,-4.4409,-4.5581,-4.606,-4.589,-4.5859,-4.5752,-4.5586,-4.5586,-4.5336,-4.4932,-4.5393,-4.5336,-4.4951,-4.5413,-4.574,-4.599,-4.6394,-4.6509,-4.6471,-4.6471,-4.5667,-4.4288,-4.2403,-4.2506,-4.3372,-4.2811,-4.2873,-4.3167,-4.3167,-4.2598,-4.1974,-4.1974,-4.113,-4.023,-4.023,-3.9808,-3.9313,-3.9074,-3.8907,-3.8522,-3.7488,-3.6781,-3.6274,-3.5839,-3.5577,-3.5273,-3.481,-3.4882,-3.4704,-3.3922,-3.3989,0.0,-3.3905,-3.4363,-3.4752,-3.4752,-3.3855,-3.388,-3.5357,-3.3379,-3.2914,-3.4955,-3.4429,-3.427,-3.4866,-3.4319,-3.3988,-3.3848,-3.1299,-3.0222,0.0,0.0,0.0,0.0,0.0,0.0,0.0,0.0,0.0,0.0,0.0,0.0,0.0,0.0,0.0,0.0,0.0,0.0,0.0,0.0,0.0,0.0,-3.9355,-4.2038,-4.3283,-4.3504,-4.4124,-4.5731,-4.6047,-4.6135,-4.6195,-4.6192,-4.6234,-4.6293,-4.6303,-4.6307,-4.6307,-4.4862,-4.3925,-4.371,-4.3924,-4.3925,-4.3708,-4.5355,-4.6084,-4.5891,-4.5863,-4.5766,-4.5586,-4.5586,-4.522,0.0,-4.5297,-4.5201,-4.4605,-4.5297,-4.5622,0.0,0.0,0.0,0.0,0.0,-4.5036,-4.3943,-4.2442,-4.2453,-4.3091,-4.3026,-4.3229,-4.3424,-4.3094,-4.1956,-4.0726,-4.0377,-3.8872,-3.7514,-3.8212,-3.8046,-3.7863,-3.8542,-3.8415,-3.7893,-3.714,-3.6243,-3.5514,-3.5352,-3.471,0.0,-3.5203,-3.4695,-3.3854,-3.2883,-3.2872,-3.2954,-3.2831,-3.3643,-3.4218,-3.4218,-3.3939,-3.41,-3.5009,-3.3262,0.0,0.0,0.0,-3.3706,-3.3706,-3.3271,0.0,0.0,0.0,-2.9713,-3.0989,0.0,0.0,0.0,-2.9545,-2.909,0.0,0.0,0.0,0.0,0.0,0.0,0.0,0.0,0.0,0.0,0.0,0.0,0.0,0.0,0.0,0.0,-4.0325,-4.2718,-4.5129,-4.5473,-4.5541,-4.5689,-4.5891,-4.6047,-4.6164,-4.6183,-4.6226,-4.6277,-4.6306,-4.6295,-4.6301,0.0,0.0,0.0,0.0,-4.5152,-4.3711,-4.5408,-4.616,-4.5899,-4.5901,-4.5796,-4.5586,-4.5586,-4.4778,-4.3451,-4.4951,-4.4759,-4.3489,-4.4987,-4.5582,-4.5522,-4.5341,-4.5438,-4.5495,-4.4154,-4.3848,-4.4019,-4.3354,0.0,0.0,-4.3658,-4.3675,-4.3369,-4.2653,-4.0818,-3.8817,-3.8102,-3.6174,-3.4706,-3.6174,-3.656,-3.6879,-3.8279,-3.808,-3.747,-3.6816,-3.5163,-3.3998,-3.4642,-3.3752,-3.3271,-3.4598,-3.3316,-3.1533,-2.9777,-2.9568,-2.9606,-2.9736,-3.1444,-3.2628,-3.2544,0.0,0.0,-3.4361,-3.2891,-3.2613,-3.4034,-3.2882,-3.2211,-3.2353,-3.1224,-3.0477,-3.0285,-2.8565,-2.9006,-3.182,-3.1355,-3.1855,-3.3252,-3.0225,-3.0027,0.0,0.0,0.0,0.0,0.0,0.0,0.0,0.0,0.0,0.0,0.0,0.0,0.0,0.0,0.0,-4.0741,-4.2374,-4.396,-4.5167,-4.5339,-4.5438,-4.5675,-4.5891,-4.6007,-4.6037,-4.6137,-4.6206,-4.6216,-4.6261,-4.6293,-4.6295,-4.4304,-4.3312,-4.3685,-4.3349,-4.3331,-4.371,-4.5321,-4.6064,-4.5899,0.0,0.0,-4.5586,-4.5586,-4.5413,-4.5124,-4.5451,-4.5413,-4.5161,-4.5522,-4.5235,-4.4566,-4.4583,-4.5428,-4.618,-4.2464,-4.241,-4.3809,-4.1142,-4.1473,-4.3072,-4.2728,-4.3033,-4.3461,-4.3314,-4.2047,0.0,-4.0451,-3.9129,-3.7826,-3.8157,-3.812,-3.8,-3.7923,-3.7596,-3.7061,-3.6187,-3.5156,-3.4346,-3.4076,-3.3943,-3.3979,-3.4155,-3.4384,-3.4459,-3.4086,-3.4162,-3.4293,-3.4336,-3.4709,-3.4699,-3.4081,-3.2782,-3.2336,-3.3311,-3.1415,-3.1031,-3.2896,-3.2719,-3.294,-3.3768,-3.2496,-3.2027,-3.2639,-3.0767,-3.0099,-3.0729,-3.0662,-3.0928,-3.1528,-3.2853,-3.3856,0.0,0.0,0.0,0.0,0.0,0.0,0.0,0.0,0.0,0.0,0.0,-3.7219,-3.6742,0.0,-3.885,-4.0096,-4.096,-4.224,-4.436,-4.4647,-4.4882,-4.5514,-4.575,-4.5891,-4.5997,-4.6107,-4.6014,-4.5582,-4.5976,-4.6069,-4.5662,-4.4826,-4.4147,-4.3718,-4.4123,-4.4147,-4.3709,-4.5368,-4.614,-4.6001,-4.5899,-4.5802,-4.57,-4.5637,-4.5586,-4.5586,-4.5586,-4.5586,-4.5566,-4.5178,-4.4485,-4.366,-4.322,-4.3801,-4.4536,-4.1913,-4.2029,-4.3273,-4.1648,-4.1976,-4.3137,-4.3278,-4.3412,-4.3406,-4.302,-4.1497,-3.9808,-3.9405,-3.7826,-3.645,-3.7276,-3.7076,-3.6809,-3.7417,-3.6648,-3.5688,-3.5248,-3.4686,-3.4225,-3.4051,-3.4413,-3.471,-3.4647,-3.4705,-3.493,-3.5333,-3.5475,-3.5414,-3.5098,-3.4975,-3.4661,-3.3963,-3.2698,-3.2093,-3.2495,-3.1366,-3.1308,-3.2817,-3.2917,-3.3339,-3.433,-3.3328,-3.3131,-3.3971,-3.2398,-3.1569,-3.1601,-3.0934,-3.0925,-3.144,-3.2815,-3.3779,0.0,0.0,0.0,0.0,0.0,0.0,0.0,-3.5022,-3.5759,-3.5265,-3.6209,-3.6927,-3.626,-3.6663,-3.7619,-3.9185,-3.947,-4.0501,-4.3367,-4.3768,-4.4134,-4.5091,-4.5491,-4.5736,-4.5914,-4.5929,-4.5631,-4.4947,-4.5416,-4.5425,-4.4774,-4.5408,-4.5236,-4.3986,-4.5327,-4.5453,-4.4216,-4.5605,-4.6223,-4.6108,-4.5819,-4.5653,-4.5529,-4.526,-4.512,-4.5105,-4.5105,-4.5122,-4.5064,-4.4369,-4.3615,-4.2819,-4.2033,-4.1986,-4.2259,-4.1533,-4.1915,-4.2774,-4.2673,-4.2815,-4.3221,-4.398,-4.3775,-4.3149,-4.2506,-4.0726,-3.8799,-3.8138,-3.6285,-3.4807,-3.6146,-3.5795,-3.5396,-3.665,-3.5699,-3.4456,-3.4364,-3.3977,-3.3734,-3.3723,-3.4253,-3.4684,-3.4655,-3.437,-3.4391,-3.5138,-3.5155,-3.488,-3.4327,-3.4085,-3.3711,-3.3128,-3.27,-3.2243,-3.17,-3.143,-3.1679,-3.251,-3.2586,-3.3033,-3.3989,-3.3363,-3.3406,-3.4246,-3.3113,-3.2538,-3.2541,-3.1605,-3.1442,-3.1992,-3.241,-3.2953,-3.1348,-3.0142,-2.9326,-2.9937,-3.1844,-3.3318,0.0,-3.5769,-3.8442,-3.6179,-3.7454,-3.9044,-3.9173,-3.9233,-3.964,-4.0859,-4.1131,-4.1609,-4.2775,-4.2928,-4.3233,-4.4056,-4.4958,-4.5571,-4.5717,-4.5215,-4.4869,-4.4897,-4.4323,-4.3948,-4.3851,-4.3931,-4.4254,-4.4836,-4.5031,-4.5411,-4.6009,-4.619,-4.6223,-4.6089,-4.5306,-4.4822,-4.462,-4.3838,-4.3443,-4.3374,-4.3374,-4.3371,-4.3381,-4.3335,-4.2859,-4.2102,-4.1882,-4.1357,-4.0726,-4.0499,-4.1437,-4.2714,-4.2189,-4.2468,-4.3166,-4.35,-4.307,-4.2415,-4.2323,-4.1111,-3.9753,-3.9643,-3.8365,-3.704,-3.7223,-3.6504,-3.5625,-3.5408,-3.5065,-3.4565,-3.3837,-3.3168,-3.2557,-3.2168,-3.2261,-3.2437,-3.2387,-3.2984,-3.3719,-3.433,-3.3927,-3.3506,-3.3465,-3.3198,-3.2707,-3.1872,-3.1692,-3.1281,-3.0455,-3.026,-3.0353,-3.0691,-3.0775,-3.1233,-3.2236,-3.1865,-3.1962,-3.2727,-3.2091,-3.1759,-3.1726,-3.2171,-3.244,-3.2536,-3.3664,-3.3806,-3.0462,-3.0835,-3.1048,-3.19,-3.4,-3.5732,-3.5305,-3.7137,-3.8618,-3.758,-3.829,-3.9111,-3.92,-3.8158,-3.7924,0.0,-3.9155,-3.9183,-4.1542,-4.1865,-4.236,-4.3672,-4.2924,-4.2391,-4.2656,-4.3897,-4.3695,-4.1303,-4.2682,-4.3451,-4.2968,-4.3416,-4.3876,-4.4231,-4.4231,-4.4416,-4.4781,-4.4783,-4.4764,-4.4692,-4.4239,-4.3981,-4.3843,-4.3408,-4.3149,-4.3104,-4.3099,-4.2826,-4.2399,-4.2399,-4.1879,-4.1108,-4.0979,-4.0701,-4.0377,-4.0328,-4.1036,-4.2086,-4.2335,-4.2718,-4.3118,-4.3293,-4.2852,-4.2121,-4.1185,-4.0432,-3.9698,-3.8762,-3.7979,-3.7278,-3.6772,-3.5921,-3.5121,-3.4911,-3.4031,-3.3142,-3.2906,-3.2496,-3.215,-3.1985,-3.2437,-3.2799,-3.2774,-3.2765,-3.2848,-3.3111,-3.3237,-3.3187,-3.279,-3.2428,-3.1828,-3.0783,-3.0734,-3.0533,-3.0065,-2.9989,-3.0076,-3.0443,-3.0359,-3.09,-3.2133,-3.2302,-3.2636,-3.3214,-3.3063,-3.2982,-3.2982,-3.2506,-3.2599,-3.3301,-3.347,-3.3599,-2.7494,-2.8812,-2.9867,-3.1858,-3.4069,-3.5942,-3.6779,-3.756,-3.8143,-3.8223,-3.8407,-3.8571,-3.8689,-3.7386,-3.6931,-3.9008,-3.7999,-3.7872,-4.0457,-4.0798,-4.1105,-4.1863,-4.0602,-3.9089,-3.7693,-4.0971,-4.2159,-3.9604,-4.1584,-4.2666,-4.2071,-4.265,-4.3088,-4.3333,-4.3333,-4.3462,-4.369,-4.369,-4.369,-4.369,-4.3368,-4.3143,-4.3025,-4.2621,-4.2444,-4.2409,-4.2402,-4.2086,-4.1547,-4.1513,-4.1097,-4.0523,-4.0427,-4.036,-4.0325,-4.0309,-4.0673,-4.1323,-4.2293,-4.2625,-4.2615,-4.2958,-4.2486,-4.1498,-4.0005,-3.9405,-3.8946,-3.7551,-3.6953,-3.6582,-3.5901,-3.5064,-3.4345,-3.4364,-3.3287,-3.2282,-3.2317,-3.2087,-3.1847,-3.1806,-3.2277,-3.2664,-3.2664,-3.2276,-3.1968,-3.1945,-3.2442,-3.2594,-3.1996,-3.1658,-3.108,-3.0109,-3.0103,-3.0076,-2.9902,-2.9946,-3.0119,-3.0401,-3.0401,-3.0842,-3.1871,-3.2387,-3.289,-3.3363,-3.3615,-3.3841,-3.3986,-3.3001,-3.3001,-3.3836,-3.3502,-3.36,-2.1359,-2.1665,-2.245,-2.7139,-2.9648,-3.1792,-3.4686,-3.6457,-3.745,-3.7505,-3.7577,-3.7774,-3.815,-3.8122,-3.8253,-3.898,-3.9156,-3.9333,-3.9781,-3.9841,-3.9277,-3.7768,-3.8283,-3.6482,0.0,-3.5787,-4.0169,-4.1868,-4.1485,-4.1178,-4.113,-4.1163,-4.1566,-4.2415,-4.2435,-4.2859,-4.3691,-4.3691,-4.3708,-4.3684,-4.2845,-4.2329,-4.2102,-4.1054,-4.0616,-4.0684,-4.0684,-4.0675,-4.0626,-4.0725,-4.0665,-4.0607,-4.0588,-4.0511,-4.0396,-4.0325,-4.0309,-4.0521,-4.1835,-4.1802,-4.135,-4.237,-4.1646,-4.0177,-3.9074,-3.8193,-3.7386,-3.656,-3.5659,-3.4942,-3.4856,-3.4186,-3.3517,-3.3459,-3.3117,-3.2699,-3.2385,-3.1949,-3.1504,-3.1128,-3.1066,-3.1083,-3.1083,-3.1162,-3.1185,-3.1049,-3.1162,-3.1202,-3.1066,-3.0766,-3.0417,-3.0017,-3.0017,-2.9989,-2.9918,-3.0076,-3.0205,-3.0189,-3.0609,-3.0912,-3.0945,-3.1424,-3.1951,-3.2635,-3.2882,-3.334,-3.3986,-3.3953,-3.3953,-3.3969,-3.4219,-3.4317,-1.6057,-1.8442,-2.1193,-2.3729,-2.6917,-2.9853,-3.152,-3.3496,-3.5087,-3.5539,-3.548,-3.541,-3.5596,-3.5093,-3.5092,-3.643,-3.5689,-3.5938,-3.871,-3.6507,-3.5844,-3.912,-3.6964,0.0,0.0,0.0,0.0,-3.6151,-3.8996,-4.091,-4.11,-4.1096,-4.1222,-4.1527,-4.1534,-4.1682,-4.1966,-4.197,-4.1972,-4.1964,-4.1636,-4.139,-4.1218,-4.0834,-4.0607,-4.0607,-4.0598,-4.0593,-4.0621,-4.0668,-4.0654,-4.0612,-4.0603,-4.0215,-3.9653,-3.9586,-3.9191,-3.8988,-4.0853,-4.0858,-4.0064,-4.0253,-3.9452,-3.8269,-3.7379,-3.6909,-3.6523,-3.5679,-3.5154,-3.472,-3.4162,-3.372,-3.3422,-3.3411,-3.3099,-3.2699,-3.2368,-3.1932,-3.147,-3.1015,-3.0975,-3.0975,-3.0952,-3.1072,-3.1151,-3.1015,-3.0992,-3.0992,-3.0952,-3.0692,-3.0485,-3.0342,-3.0231,-3.0189,-3.0274,-3.0146,-3.0231,-3.0651,-3.0526,-3.0651,-3.1072,-3.1574,-3.2252,-3.3117,-3.2973,-3.3646,-3.5068,-3.4333,-3.4382,-3.5068,-3.5161,-3.5253,-1.2755,-1.5512,-1.834,-2.0896,-2.4066,-2.6828,-2.8025,-2.9962,-3.1924,-3.3113,-3.3273,-3.3342,-3.3864,-3.335,-3.3349,-3.4868,-3.4194,-3.4692,-3.8071,-3.6076,-3.5354,-3.8346,-3.6229,-3.5352,0.0,0.0,0.0,-3.4398,-3.737,-3.9422,-3.968,-3.9702,-4.0125,-4.1074,-4.1104,-4.1094,-4.1101,-4.1108,-4.1093,-4.109,-4.1037,-4.0933,-4.081,-4.0726,-4.0346,-3.9735,-4.0376,-4.0113,-3.9335,-3.9998,-4.005,-3.972,-3.9725,-3.936,-3.8785,-3.877,-3.8412,-3.8104,-3.9697,-3.9599,-3.8776,-3.8712,-3.8016,-3.7044,-3.6111,-3.5844,-3.5661,-3.4761,-3.4265,-3.3889,-3.3632,-3.3291,-3.306,-3.3339,-3.3099,-3.2699,-3.2368,-3.1967,-3.1507,-3.1015,-3.1032,-3.1015,-3.0952,-3.1032,-3.1072,-3.1015,-3.0855,-3.0773,-3.0831,-3.0692,-3.0526,-3.0485,-3.0359,-3.0316,-3.0443,-3.0316,-3.0443,-3.0871,-3.0692,-3.0733,-3.119,-3.1224,-3.1596,-3.244,-3.1932,-3.2433,-3.4086,-3.3398,-3.3577,-3.4464,-3.4464,-3.4544,-1.1169,-1.268,-1.3952,-1.8437,-2.0957,-2.2725,-2.4165,-2.6031,-2.81,-3.0195,-3.0779,-3.1339,-3.2622,-3.2622,-3.2841,-3.4142,-3.4446,-3.5331,-3.7711,-3.7968,-3.7266,-3.5502,-3.6014,-3.5379,0.0,0.0,0.0,-3.637,0.0,-3.7113,-3.7364,-3.7396,-3.8545,-4.1016,-4.1104,-4.1097,-4.1107,-4.1069,-4.1035,-4.1029,-4.094,-4.0804,-4.0674,-4.0613,-3.9669,-3.8196,-3.9857,-3.9206,-3.7096,-3.874,-3.8916,-3.8119,-3.8177,-3.8073,-3.7851,-3.7916,-3.7867,-3.7852,-3.8347,-3.8041,-3.7447,-3.7704,-3.7221,-3.6363,-3.5266,-3.4935,-3.477,-3.389,-3.3113,-3.2684,-3.3284,-3.2892,-3.2518,-3.3241,-3.3099,-3.2749,-3.2401,-3.2039,-3.1603,-3.1117,-3.1112,-3.1151,-3.1015,-3.0952,-3.0935,-3.0975,-3.0733,-3.0568,-3.0692,-3.0692,-3.0609,-3.0459,-3.0417,-3.0417,-3.0401,-3.0568,-3.0733,-3.0912,-3.1072,-3.119,-3.119,-3.0368,-3.0178,-3.0846,-3.0004,-3.0196,-3.148,-3.1511,-3.1866,-3.254,-3.2532,-3.2547,-0.8002,-1.0507,-1.3396,-1.5178,-1.7262,-1.9145,-2.0216,-2.2618,-2.4749,-2.5211,-2.5908,-2.6442,-2.6686,-2.6834,-2.787,-3.0768,-3.0612,-3.1177,-3.4353,-3.3553,-3.3291,-3.5008,-3.542,-3.5758,-3.6296,-3.7224,0.0,0.0,-3.7424,-3.9535,-3.9858,-4.0026,-4.0404,-4.1081,-4.1094,-4.1111,-4.1107,-4.0469,-4.0132,-4.0118,-3.9501,-3.9136,-3.9006,-3.8933,-3.8646,-3.8202,-3.8639,-3.8472,-3.7909,-3.8353,-3.84,-3.8194,-3.8194,-3.7764,-3.7154,-3.7167,-3.6742,-3.6108,-3.5976,-3.6065,-3.6217,-3.6142,-3.5403,-3.4484,-3.4201,-3.4119,-3.3908,-3.3048,-3.3049,-3.3204,-3.272,-3.2863,-3.3169,-3.3357,-3.3316,-3.3147,-3.2749,-3.2601,-3.2282,-3.1435,-3.11,-3.0992,-3.0975,-3.1072,-3.1112,-3.1015,-3.0935,-3.0814,-3.0733,-3.0609,-3.0568,-3.0609,-3.0526,-3.0568,-3.0749,-3.0568,-3.0609,-3.0935,-3.0855,-3.0952,-3.119,-3.0975,-3.1189,-3.1909,-3.1292,-3.1602,-3.2883,-3.3025,-3.3526,-3.4251,-3.4615,-3.483,-0.8643,-1.0404,-1.2358,-1.3548,-1.505,-1.6344,-1.6792,-1.8627,-2.0461,-2.1194,-2.1894,-2.2689,-2.3652,-2.4112,-2.5497,-2.9043,-2.9296,-3.0057,-3.2877,-3.2435,-3.2599,-3.4619,-3.4972,-3.5754,-3.7581,-3.7831,-3.7068,0.0,-3.6552,-3.7616,-3.7918,-3.8143,-3.8775,-3.9926,-3.9954,-3.9976,-3.9994,-3.9512,-3.9273,-3.9264,-3.8829,-3.8502,-3.835,-3.8354,-3.7879,-3.7096,0.0,-3.7568,-3.6593,-3.7328,-3.7425,-3.7096,-3.7065,-3.6772,-3.633,-3.6298,-3.5952,-3.5482,-3.5247,-3.53,-3.5395,-3.504,-3.4419,-3.3788,-3.378,-3.3496,-3.3203,-3.2985,-3.273,-3.2547,-3.2736,-3.2824,-3.2958,-3.3321,-3.3393,-3.3256,-3.2716,-3.2517,-3.223,-3.1338,-3.0998,-3.0855,-3.0975,-3.1032,-3.1072,-3.1015,-3.0975,-3.0895,-3.0733,-3.0692,-3.0692,-3.0773,-3.0733,-3.0733,-3.0952,-3.0773,-3.0773,-3.1072,-3.0975,-3.0975,-3.119,-3.1015,-3.1079,-3.1506,-3.1004,-3.1265,-3.227,-3.2356,-3.2809,-3.3562,-3.4143,-3.4429,-1.0788,-1.1156,-1.14,-1.2933,-1.3882,-1.4396,-1.4171,-1.5219,-1.6575,-1.7963,-1.8672,-1.9714,-2.2104,-2.3112,-2.468,-2.8078,-2.9261,-3.0246,-3.1726,-3.2734,-3.3458,-3.3875,-3.4316,-3.5407,-3.7371,-3.7069,-3.6786,-3.6764,-3.5059,-3.4222,-3.4747,-3.4982,-3.6158,-3.8424,-3.8495,-3.8531,-3.8607,-3.8495,-3.8437,-3.8433,-3.8307,-3.8166,-3.7972,-3.8023,-3.7171,-3.5712,0.0,0.0,-3.4679,-3.6149,-3.6323,-3.5684,-3.5643,-3.5608,-3.5584,-3.5528,-3.5509,-3.5493,-3.5412,-3.5203,-3.487,-3.4394,-3.4055,-3.386,-3.3753,-3.3231,-3.2765,-3.3221,-3.2429,-3.171,-3.2933,-3.2795,-3.2542,-3.323,-3.3393,-3.3226,-3.2586,-3.2265,-3.1861,-3.1117,-3.0814,-3.0773,-3.0935,-3.0952,-3.0952,-3.1015,-3.0992,-3.0912,-3.0773,-3.0814,-3.0871,-3.0871,-3.0871,-3.0912,-3.0935,-3.0975,-3.1015,-3.1151,-3.119,-3.119,-3.119,-3.0797,-3.0601,-3.0601,-3.0182,-3.0277,-3.0851,-3.0949,-3.1307,-3.1908,-3.2671,-3.2997,-0.9886,-1.0701,-1.1891,-1.2586,-1.3516,-1.4277,-1.4256,-1.5204,-1.5994,-1.5848,-1.6412,-1.7601,-1.9639,-2.188,-2.4163,-2.6471,-2.8329,-2.8887,-2.7181,-3.0647,-3.2858,-3.1487,-3.2683,-3.46,-3.7009,-3.4367,0.0,0.0,-3.4948,-3.5353,-3.7186,-3.7614,-3.8029,-3.8482,-3.8502,-3.8539,-3.8609,-3.789,-3.7538,-3.7514,-3.6809,-3.6398,-3.63,-3.6268,-3.6043,-3.5698,-3.5944,0.0,-3.5491,-3.5781,-3.582,-3.5704,-3.5684,-3.5643,-3.5601,-3.5589,-3.5547,-3.5493,-3.5412,-3.5086,-3.4655,-3.4551,-3.4348,-3.4099,-3.3842,-3.367,-3.3423,-3.2776,-3.2876,-3.3039,-3.2534,-3.2795,-3.323,-3.3375,-3.3393,-3.3364,-3.3226,-3.2586,-3.1842,-3.1334,-3.1038,-3.0871,-3.0912,-3.1032,-3.1151,-3.1151,-3.1151,-3.1151,-3.1112,-3.0992,-3.0831,-3.0609,-3.0651,-3.0733,-3.0733,-3.0733,-3.0814,-3.1015,-3.1015,-3.1095,-3.119,-3.1112,-3.1095,-3.1095,-3.1015,-3.0986,-3.112,-3.1724,-3.2201,-3.2483,-3.3228,-3.3414,-1.0554,-1.1687,-1.3201,-1.3337,-1.3992,-1.429,-1.3191,-1.3791,-1.4417,-1.3901,-1.4665,-1.6026,-1.7853,-1.9901,-2.2486,-2.6034,-2.7802,-2.8715,-2.8703,-3.1308,-3.2932,-3.2196,-3.3229,-3.4184,-3.4563,-3.2976,-3.2111,-3.2619,-3.2702,-3.3836,-3.6406,-3.6934,-3.7157,-3.7195,-3.7191,-3.7207,-3.7242,-3.6834,-3.6621,-3.662,-3.6209,-3.5964,-3.5909,-3.5833,-3.5772,-3.5699,-3.5676,0.0,-3.4427,-3.5336,-3.5162,-3.4427,-3.5306,-3.5631,-3.5601,-3.556,-3.5528,-3.5493,-3.5369,-3.5105,-3.4735,-3.4593,-3.4302,-3.3947,-3.3807,-3.3468,-3.3164,-3.3086,-3.3067,-3.3049,-3.2966,-3.3201,-3.3481,-3.3422,-3.3256,-3.2988,-3.2734,-3.2214,-3.164,-3.11,-3.0935,-3.0912,-3.0952,-3.1015,-3.1112,-3.119,-3.119,-3.119,-3.1095,-3.1072,-3.1032,-3.0855,-3.0935,-3.0935,-3.0935,-3.0935,-3.0992,-3.1112,-3.1095,-3.1151,-3.119,-3.1308,-3.1325,-3.119,-3.1423,-3.1462,-3.1363,-3.182,-3.2089,-3.2183,-3.2938,-3.3203,-1.1914,-1.3003,-1.4347,-1.4175,-1.4499,-1.4364,-1.2528,-1.2968,-1.3621,-1.3059,-1.3848,-1.5243,-1.7323,-1.8711,-2.1129,-2.5905,-2.6937,-2.7991,-3.0534,-3.173,-3.2631,-3.3353,-3.3949,-3.4087,-3.3538,-3.2819,0.0,-3.177,-3.1892,0.0,-3.5199,-3.5666,-3.5883,-3.5924,-3.5966,-3.5988,-3.6007,-3.6007,-3.5992,-3.5996,-3.5996,-3.5953,-3.5892,-3.5656,-3.5496,-3.5408,-3.5223,0.0,0.0,-3.4505,-3.435,-3.3256,-3.4754,-3.5458,-3.5589,-3.5534,-3.5501,-3.546,-3.5373,-3.5105,-3.4794,-3.4572,-3.4213,-3.3868,-3.3753,-3.3321,-3.2963,-3.3542,-3.3295,-3.2955,-3.3469,-3.3605,-3.352,-3.3316,-3.3037,-3.2601,-3.2021,-3.1714,-3.1393,-3.0797,-3.0814,-3.0952,-3.0975,-3.0881,-3.0886,-3.1173,-3.1072,-3.0965,-3.1038,-3.1151,-3.119,-3.119,-3.119,-3.1151,-3.1151,-3.1151,-3.1151,-3.119,-3.119,-3.119,-3.119,-3.1363,-3.1346,-3.119,-3.1538,-3.1651,-3.144,-3.1651,-3.1726,-3.1743,-3.2349,-3.2662,-1.385,-1.4254,-1.4351,-1.4173,-1.4488,-1.4538,-1.3626,-1.4336,-1.5068,-1.4598,-1.4797,-1.6023,-1.9139,-1.9909,-2.1425,-2.5672,-2.497,-2.5095,-2.8486,-2.973,-3.1105,-3.3336,-3.3416,-3.446,-3.7359,-3.4425,-3.355,-3.6512,-3.5993,0.0,-3.5412,-3.559,-3.5715,-3.5725,-3.5839,-3.5942,-3.6004,-3.5991,-3.6001,-3.5992,-3.5992,-3.5957,-3.5876,-3.5077,-3.4637,-3.447,-3.3673,0.0,0.0,-3.2947,-3.3237,-3.3179,-3.4137,-3.4947,-3.5601,-3.5589,-3.5515,-3.5412,-3.5398,-3.5015,-3.4532,-3.4508,-3.4348,-3.4124,-3.3868,-3.3752,-3.3697,-3.3707,-3.3643,-3.3607,-3.3597,-3.3549,-3.3404,-3.2939,-3.2781,-3.2486,-3.166,-3.1435,-3.1261,-3.0797,-3.0855,-3.0975,-3.1015,-3.0572,-3.0429,-3.1106,-3.0632,-3.0446,-3.1106,-3.119,-3.119,-3.119,-3.1095,-3.1015,-3.1015,-3.1015,-3.1055,-3.119,-3.119,-3.119,-3.119,-3.123,-3.123,-3.119,-3.144,-3.144,-3.123,-3.144,-3.1517,-3.1517,-3.1795,-3.1903,-1.2822,-1.4179,-1.5614,-1.525,-1.5568,-1.5594,-1.4301,-1.4635,-1.5066,-1.4701,-1.4904,-1.5753,-1.767,-1.8519,-2.0128,-2.3687,-2.3838,-2.5105,-2.9674,-3.0963,-3.2412,-3.5025,-3.5545,-3.5552,0.0,0.0,-3.3543,-3.4689,0.0,0.0,-3.5682,-3.5682,-3.565,-3.5702,-3.5833,-3.5919,-3.6001,-3.6004,-3.5991,-3.6001,-3.6001,-3.5991,-3.5937,-3.5027,-3.4562,-3.4471,-3.3557,0.0,0.0,-3.2899,-3.2977,-3.1835,-3.4234,-3.5375,-3.5643,-3.5534,-3.5438,-3.5402,-3.532,-3.5053,-3.4714,-3.4551,-3.4371,-3.4148,-3.3868,-3.3834,-3.3842,-3.3834,-3.3868,-3.3895,-3.3698,-3.3156,-3.2611,-3.2457,-3.2008,-3.139,-3.0559,-3.0422,-3.0228,-2.9515,-2.951,-2.9626,-2.9626,-2.9467,-2.9404,-2.969,-2.9563,-2.9533,-2.982,-2.9871,-3.004,-3.0497,-3.0898,-3.1112,-3.1112,-3.1112,-3.1151,-3.119,-3.119,-3.119,-3.119,-3.1325,-3.1308,-3.119,-3.15,-3.1651,-3.1576,-3.1651,-3.1726,-3.1856,-3.1929,-3.1965,-1.2949,-1.4739,-1.6685,-1.6327,-1.6326,-1.6018,-1.4646,-1.4553,-1.4756,-1.458,-1.4928,-1.5618,-1.6766,-1.7372,-1.8796,-2.2163,-2.3004,-2.486,-2.9478,-3.0891,-3.2415,-3.5025,0.0,-3.5846,-3.4544,-3.4782,-3.4852,-3.447,0.0,0.0,-3.5878,-3.5626,-3.548,-3.5611,-3.5767,-3.5889,-3.5962,-3.597,-3.5978,-3.5965,-3.5991,-3.5586,-3.4835,-3.4707,-3.4209,-3.3477,-3.3297,0.0,0.0,-3.2919,-3.2957,-3.1603,-3.4272,-3.5461,-3.5651,-3.5509,-3.5424,-3.5355,-3.5187,-3.4963,-3.4715,-3.4205,-3.3902,-3.3642,-3.3217,-3.3283,-3.3519,-3.3519,-3.343,-3.3296,-3.3038,-3.242,-3.1854,-3.1722,-3.1204,-3.0493,-2.9689,-2.9555,-2.9369,-2.8645,-2.8641,-2.8716,-2.8716,-2.8589,-2.8595,-2.8814,-2.8752,-2.8721,-2.8994,-2.9011,-2.9194,-2.9719,-3.0243,-3.0717,-3.1157,-3.119,-3.119,-3.119,-3.119,-3.119,-3.119,-3.1402,-3.144,-3.1269,-3.1671,-3.1873,-3.18,-3.1873,-3.1965,-3.2108,-3.2108,-3.2108,-1.5235,-1.6519,-1.7307,-1.7156,-1.6377,-1.5463,-1.4612,-1.4365,-1.431,-1.4394,-1.4923,-1.5858,-1.7394,-1.7068,-1.7776,-2.1681,-2.2492,-2.3669,-2.6702,-2.8342,-3.0067,-3.2269,-3.3477,-3.4954,-3.7038,-3.791,-3.8218,-3.7877,0.0,0.0,-3.5926,-3.5325,-3.5139,-3.5387,-3.5611,-3.5768,-3.5905,-3.5909,-3.5908,-3.5908,-3.5965,-3.4644,-3.2202,-3.3914,-3.3297,0.0,0.0,0.0,0.0,-3.2772,-3.3102,-3.316,-3.406,-3.4897,-3.5604,-3.5591,-3.5463,-3.5266,-3.5086,-3.4774,-3.4333,-3.3343,-3.2841,-3.2467,-3.1659,-3.1971,-3.2614,-3.2614,-3.2095,-3.1489,-3.1345,-3.132,-3.1172,-3.0635,-3.0421,-3.0074,-2.9265,-2.9106,-2.8979,-2.8586,-2.8661,-2.8811,-2.8811,-2.826,-2.8095,-2.8873,-2.8332,-2.8112,-2.889,-2.9011,-2.9011,-2.8991,-2.9045,-2.96,-3.1072,-3.119,-3.119,-3.119,-3.119,-3.119,-3.119,-3.1402,-3.1517,-3.1479,-3.191,-3.2001,-3.18,-3.2001,-3.2108,-3.2108,-3.2108,-3.2196,-1.4374,-1.5194,-1.5751,-1.5535,-1.5627,-1.5515,-1.4607,-1.4931,-1.5358,-1.5297,-1.546,-1.5846,-1.6675,-1.669,-1.7686,-2.1068,-2.2167,-2.4143,-2.8575,-3.0448,-3.2308,-3.4818,-3.6148,-3.6988,0.0,0.0,-3.4997,0.0,0.0,0.0,-3.5614,-3.5692,-3.5568,-3.5347,-3.5579,-3.5752,-3.5905,-3.5903,-3.5904,-3.5908,-3.5912,-3.4592,-3.2163,-3.391,-3.3277,0.0,0.0,0.0,0.0,-3.3472,-3.3683,-3.3237,-3.4717,-3.5441,-3.5651,-3.5509,-3.5078,-3.4529,-3.4366,-3.3783,-3.2997,-3.2535,-3.2225,-3.1959,-3.1532,-3.1568,-3.1795,-3.1845,-3.1654,-3.1421,-3.1327,-3.0805,-3.0231,-2.9804,-2.9176,-2.8458,-2.7738,-2.7572,-2.7402,-2.7028,-2.7011,-2.7102,-2.7102,-2.7024,-2.7078,-2.7314,-2.7181,-2.7148,-2.7385,-2.7418,-2.7604,-2.8146,-2.8197,-2.8586,-2.96,-3.0159,-3.0446,-3.0446,-3.092,-3.119,-3.119,-3.1269,-3.1269,-3.1269,-3.1423,-3.1538,-3.1576,-3.1538,-3.1576,-3.1688,-3.1688,-3.1819,-1.4573,-1.5117,-1.5678,-1.5299,-1.5541,-1.5702,-1.5085,-1.536,-1.5707,-1.5741,-1.641,-1.6877,-1.655,-1.7314,-1.8351,-1.9457,-2.202,-2.4568,-2.6575,-2.8926,-3.1036,-3.2815,-3.4234,0.0,0.0,-3.4848,0.0,0.0,0.0,0.0,-3.503,-3.5353,-3.5381,-3.5155,-3.5432,-3.5679,-3.5852,-3.5892,-3.5897,-3.5895,-3.5903,-3.4566,-3.2176,-3.4259,-3.3761,0.0,0.0,0.0,0.0,-3.4535,-3.462,-3.4149,-3.4912,-3.519,-3.5118,-3.4648,-3.4141,-3.3646,-3.3505,-3.2982,-3.2314,-3.169,-3.1163,-3.0765,-3.0604,-3.0729,-3.087,-3.0625,-3.0503,-3.043,-3.0362,-2.9922,-2.9414,-2.9089,-2.8577,-2.7926,-2.7238,-2.7051,-2.6841,-2.6364,-2.6312,-2.6382,-2.6417,-2.6555,-2.6623,-2.6623,-2.6674,-2.6691,-2.6691,-2.6691,-2.6877,-2.7351,-2.7402,-2.7588,-2.8078,-2.9076,-2.9685,-2.9685,-3.0108,-3.048,-3.0768,-3.0862,-3.1019,-3.1308,-3.1385,-3.15,-3.1614,-3.15,-3.15,-3.1614,-3.1614,-3.1709,0.0,-1.6066,-1.6593,-1.6058,-1.5892,-1.5894,-1.5839,-1.5622,0.0,-1.5964,-1.77,-1.8703,-1.7137,-1.8888,-1.9761,-1.7508,-2.202,-2.4846,-2.2037,-2.4935,0.0,0.0,-2.9197,0.0,-3.5211,-3.5708,0.0,0.0,0.0,0.0,-3.4306,-3.4439,-3.4597,-3.4793,-3.5074,-3.5365,-3.5693,-3.5702,-3.5626,-3.5441,-3.5622,-3.4328,-3.1835,-3.463,-3.451,0.0,0.0,0.0,0.0,-3.5704,-3.5624,-3.553,-3.4642,-3.4279,-3.4125,-3.3304,-3.2884,-3.2694,-3.2492,-3.2359,-3.2032,-3.0816,-2.9813,-2.9112,-2.9178,-2.9582,-2.9886,-2.9195,-2.8952,-2.8905,-2.881,-2.881,-2.8761,-2.8587,-2.8466,-2.8219,-2.75,-2.7286,-2.7051,-2.6418,-2.6434,-2.652,-2.6606,-2.664,-2.6691,-2.6691,-2.6691,-2.6691,-2.6691,-2.6691,-2.6691,-2.6691,-2.6725,-2.6725,-2.6725,-2.808,-2.8943,-2.8943,-2.8994,-2.9333,-3.0044,-3.0231,-3.07,-3.1414,-3.1654,-3.1763,-3.1763,-3.1763,-3.1763,-3.1746,-3.1746,-3.1819,-1.7128,0.0,-1.5234,-1.4927,-1.5095,-1.5253,0.0,-1.5529,-1.6498,-1.8269,-1.9326,-1.9824,-1.9509,-2.1198,-2.2005,-1.9988,-2.2639,-2.4729,-2.4094,-2.7205,0.0,-2.8116,-3.1483,-3.3419,-3.2262,-3.3862,0.0,0.0,0.0,-3.4377,-3.4167,-3.3892,-3.3787,-3.3903,-3.3574,-3.3832,-3.4729,-3.4183,-3.2939,-3.1031,-3.3033,-3.1948,-2.8346,-3.2915,-3.3939,0.0,0.0,0.0,-3.5857,-3.5144,-3.4828,-3.4684,-3.3771,-3.3411,-3.3351,-3.3095,-3.2559,-3.1946,-3.184,-3.1312,-3.0544,-2.9927,-2.946,-2.9112,-2.9178,-2.9285,-2.9351,-2.9144,-2.9085,-2.9021,-2.8834,-2.8834,-2.8718,-2.8073,-2.7811,-2.7542,-2.6923,-2.6657,-2.6521,-2.6468,-2.652,-2.6606,-2.6674,-2.6691,-2.6742,-2.6842,-2.6775,-2.6691,-2.6691,-2.6691,-2.6691,-2.6691,-2.6859,-2.6942,-2.6942,-2.764,-2.813,-2.8305,-2.8833,-2.9313,-2.9642,-2.9677,-3.0056,-3.0814,-3.1305,-3.15,-3.1346,-3.1346,-3.1368,-3.1428,-3.1428,-3.1504,-1.7684,-1.6387,-1.5414,-1.6055,-1.5943,-1.5915,-1.6692,-1.6802,-1.733,-1.9403,-2.0045,-2.0259,-2.0305,-2.1291,-2.1712,-2.0632,-2.2049,-2.3751,0.0,0.0,-2.6723,-2.6516,-2.83,-2.9632,0.0,0.0,0.0,0.0,0.0,-3.3882,-3.3512,-3.3366,-3.3173,-3.292,-3.2397,-3.2641,-3.3761,-3.3448,-3.2213,-3.0126,-3.2346,-3.1753,-2.887,-3.2876,-3.4192,0.0,0.0,0.0,-3.5191,-3.3076,-3.2906,-3.3842,-3.2879,-3.2502,-3.2444,-3.2046,-3.1581,-3.1135,-3.1122,-3.0573,-2.988,-2.9589,-2.9332,-2.9156,-2.9262,-2.9283,-2.9262,-2.9152,-2.9044,-2.8975,-2.8881,-2.8858,-2.8743,-2.8317,-2.801,-2.7707,-2.7147,-2.6825,-2.6607,-2.652,-2.6468,-2.6521,-2.6657,-2.6674,-2.6691,-2.6792,-2.6742,-2.6691,-2.6691,-2.6691,-2.6691,-2.6691,-2.6808,-2.6859,-2.6859,-2.7114,-2.7403,-2.767,-2.7998,-2.8391,-2.8819,-2.8767,-2.9074,-2.9862,-3.0196,-3.0476,-3.07,-3.0471,-3.0599,-3.1038,-3.0804,-3.0788,-1.794,-1.6819,-1.6297,-1.7998,-1.7403,-1.6954,-1.9013,-1.8388,-1.8,-2.0249,-2.0744,-2.0821,-2.0821,-2.1419,-2.1595,-2.0584,0.0,0.0,-2.5297,-2.4447,-2.3842,-2.4573,-2.4552,0.0,0.0,0.0,0.0,0.0,0.0,-3.3596,-3.2835,-3.2831,-3.2542,-3.1909,-3.1374,-3.1642,-3.2759,-3.2978,-3.2188,-3.0424,-3.2303,-3.2221,-3.0508,-3.3116,-3.4387,0.0,0.0,0.0,-3.4255,-3.1097,-3.1111,-3.3,-3.2014,-3.1623,-3.1526,-3.084,-3.054,-3.0499,-3.0458,-3.0136,-2.9696,-2.957,-2.9372,-2.9222,-2.9326,-2.9386,-2.9326,-2.9152,-2.8998,-2.8929,-2.8887,-2.8858,-2.8761,-2.8694,-2.8492,-2.8128,-2.7631,-2.7272,-2.694,-2.6674,-2.6486,-2.6469,-2.6708,-2.6691,-2.6674,-2.6708,-2.6691,-2.6691,-2.6691,-2.6691,-2.6691,-2.6691,-2.6725,-2.6742,-2.6742,-2.6758,-2.6891,-2.7181,-2.7087,-2.7298,-2.7946,-2.793,-2.8199,-2.8861,-2.8996,-2.9333,-2.9939,-2.9543,-2.9742,-3.048,-3.0063,-2.998,-1.8885,-1.7553,-1.6791,-1.8794,-1.7821,-1.698,-1.9308,-1.8447,-1.8248,-2.2199,-2.3027,-2.311,-2.3161,-2.607,-2.6737,-2.1439,0.0,-2.3883,0.0,0.0,-2.6905,-2.5213,0.0,0.0,0.0,0.0,0.0,0.0,0.0,-3.3672,-3.2908,-3.2358,-3.1725,-3.093,-3.05,-3.0726,-3.1648,-3.2006,-3.0992,-2.8634,-3.1102,-3.1035,-2.8764,-3.1331,-3.2898,0.0,0.0,-3.3231,-3.3494,-3.2157,-3.1841,-3.2109,-3.1142,-3.0772,-3.0762,-3.0588,-3.0509,-3.0488,-3.0323,-3.0037,-2.9767,-2.9698,-2.9492,-2.928,-2.924,-2.9222,-2.92,-2.9062,-2.9017,-2.8952,-2.8929,-2.8791,-2.8644,-2.8281,-2.8156,-2.8065,-2.7742,-2.7352,-2.7103,-2.7103,-2.6925,-2.6809,-2.6842,-2.6859,-2.6859,-2.6893,-2.6775,-2.6691,-2.6691,-2.6691,-2.6691,-2.6691,-2.6859,-2.6942,-2.6942,-2.707,-2.7149,-2.7181,-2.7087,-2.7107,-2.7321,-2.7941,-2.8287,-2.8254,-2.8902,-2.9223,-2.9161,-2.9107,-2.9178,-2.9445,-2.9355,-2.9428,-1.7914,-1.7031,-1.7267,-2.1077,-1.8979,-1.7275,-2.2319,-1.9482,-1.7603,-2.3932,-2.22,-2.042,-2.3177,-2.4354,-2.4339,-2.2729,0.0,-2.7844,-2.6961,-2.7572,-2.7837,0.0,0.0,0.0,0.0,0.0,0.0,0.0,0.0,0.0,-3.295,-3.2609,-3.2147,-3.1476,-3.145,-3.1872,-3.2742,-3.3161,-3.1858,-2.8929,-3.1079,-3.0765,-2.8393,-3.0944,-3.2329,-3.2625,0.0,-3.1385,-3.251,-3.0208,-3.0056,-3.1252,-3.078,-3.0604,-3.0588,-3.0519,-3.0477,-3.0414,-3.0163,-2.9958,-2.9784,-2.9644,-2.9414,-2.9197,-2.92,-2.9134,-2.9089,-2.9108,-2.9021,-2.8929,-2.8905,-2.8834,-2.8669,-2.8255,-2.8075,-2.788,-2.7409,-2.71,-2.6891,-2.6923,-2.6792,-2.6725,-2.6893,-2.6826,-2.6742,-2.6792,-2.6742,-2.6691,-2.6691,-2.6691,-2.6691,-2.6691,-2.6775,-2.6859,-2.6859,-2.6891,-2.6973,-2.7087,-2.704,-2.6975,-2.6923,-2.7063,-2.7216,-2.7352,-2.7502,-2.7732,-2.8042,-2.7748,-2.7816,-2.8102,-2.7945,-2.7865,-1.6946,-1.6481,-1.7405,-2.2284,-1.9606,-1.7706,-2.511,-2.0621,-1.7151,-2.5061,-2.181,-1.893,-2.3552,-2.2736,0.0,-2.4464,-2.8118,-3.0406,-2.977,-2.9195,-2.9058,-2.9597,0.0,0.0,0.0,0.0,0.0,0.0,0.0,0.0,-3.2932,-3.2895,-3.266,-3.2096,-3.2421,-3.3024,-3.3876,-3.4107,-3.2905,-3.0417,-3.1748,-3.1145,-2.8951,-3.0905,-3.1799,-3.1672,-2.9686,-2.9952,-3.1587,-2.8906,-2.8957,-3.0697,-3.0626,-3.0591,-3.0579,-3.0499,-3.0425,-3.0336,-3.0095,-2.9912,-2.9767,-2.9588,-2.9355,-2.9156,-2.9178,-2.913,-2.9044,-2.9134,-2.9044,-2.8929,-2.8929,-2.8881,-2.8743,-2.843,-2.8228,-2.7992,-2.7465,-2.7175,-2.6987,-2.6923,-2.6759,-2.6708,-2.6909,-2.6809,-2.6759,-2.6858,-2.6808,-2.6775,-2.6791,-2.6725,-2.6691,-2.6691,-2.6725,-2.6775,-2.6775,-2.6791,-2.6842,-2.6925,-2.6975,-2.6942,-2.6775,-2.6436,-2.6315,-2.6505,-2.621,-2.6297,-2.6821,-2.6504,-2.6548,-2.6896,-2.6665,-2.6472,-1.7075,-1.6548,-1.6872,-2.0505,-1.8845,-1.8318,-2.5873,-2.1344,-1.7645,-2.5158,-2.4071,-2.2763,-2.5989,-2.4876,-2.4262,-2.6684,-2.7478,-2.8642,-3.1062,0.0,-3.2121,0.0,0.0,0.0,0.0,0.0,0.0,0.0,0.0,0.0,-3.2932,-3.2895,-3.2637,-3.2035,-3.2402,-3.3028,-3.3903,-3.3487,-3.32,-3.3024,-3.3159,-3.2309,-3.0626,-3.0813,-3.0891,-3.088,-3.0696,-3.0718,-3.0875,-3.0619,-3.0599,-3.0697,-3.0622,-3.0558,-3.0499,-3.0433,-3.0359,-3.0292,-3.0066,-2.9915,-2.9784,-2.9626,-2.9492,-2.9365,-2.924,-2.9178,-2.9156,-2.9062,-2.9017,-2.8994,-2.8994,-2.8929,-2.8881,-2.8785,-2.8791,-2.8767,-2.8533,-2.8228,-2.7908,-2.76,-2.7293,-2.707,-2.7103,-2.707,-2.7135,-2.731,-2.7137,-2.699,-2.7053,-2.6858,-2.6691,-2.6691,-2.6859,-2.6975,-2.6975,-2.7103,-2.7021,-2.6725,-2.6892,-2.6975,-2.6975,-2.6775,-2.6419,-2.5892,-2.5855,-2.5799,-2.5717,-2.5811,-2.5934,-2.6089,-2.6109,-2.5893,-1.6542,-1.6245,-1.7171,-2.2654,-2.0192,-1.8329,-2.546,-2.1907,-1.9447,-2.7737,-2.4155,-1.9927,0.0,0.0,-2.6137,-2.6554,-2.841,-3.023,-3.1499,-3.1823,0.0,0.0,0.0,0.0,0.0,0.0,0.0,0.0,0.0,0.0,-3.3703,-3.3709,-3.3673,-3.3618,-3.3447,-3.35,-3.3824,-3.3365,-3.2897,-3.243,-3.2474,-3.1909,-3.0794,-3.081,-3.081,-3.079,-3.081,-3.0794,-3.0797,-3.0801,-3.076,-3.0691,-3.0629,-3.0569,-3.0499,-3.0477,-3.0383,-3.0304,-3.0254,-3.0099,-2.9915,-2.982,-2.9626,-2.937,-2.9243,-2.9134,-2.9067,-2.913,-2.9112,-2.9108,-2.9017,-2.8994,-2.8887,-2.8615,-2.8597,-2.8572,-2.8228,-2.8103,-2.7984,-2.7771,-2.7547,-2.7396,-2.7355,-2.7324,-2.731,-2.7404,-2.731,-2.7215,-2.7166,-2.7006,-2.6892,-2.6892,-2.6859,-2.6808,-2.6808,-2.699,-2.7023,-2.6892,-2.6875,-2.6859,-2.6742,-2.6435,-2.626,-2.6225,-2.603,-2.5905,-2.5832,-2.5905,-2.5852,-2.5689,-2.5779,-2.5705,-1.6089,-1.6187,-1.7477,-2.2753,-2.0197,-1.8207,-2.5125,-2.231,-2.0378,-2.7778,-2.5276,-2.1585,-2.0906,0.0,0.0,0.0,-2.8568,-3.0496,-3.1554,0.0,0.0,0.0,0.0,0.0,0.0,0.0,0.0,0.0,0.0,0.0,0.0,-3.4173,-3.4181,-3.412,-3.3903,-3.3661,-3.3394,-3.2945,-3.2435,-3.1893,-3.1681,-3.1304,-3.0802,-3.0798,-3.0802,-3.0794,-3.0802,-3.0791,-3.08,-3.0781,-3.0723,-3.0658,-3.0623,-3.0579,-3.053,-3.0509,-3.0447,-3.0352,-3.0379,-3.0215,-3.0011,-2.9899,-2.9681,-2.9451,-2.9286,-2.9197,-2.9152,-2.924,-2.9262,-2.924,-2.9152,-2.9108,-2.8998,-2.8572,-2.8547,-2.8504,-2.8076,-2.8004,-2.7966,-2.7783,-2.7666,-2.7577,-2.7509,-2.7434,-2.7404,-2.7434,-2.7341,-2.7247,-2.7181,-2.7006,-2.6942,-2.6975,-2.6892,-2.6808,-2.6808,-2.6957,-2.7023,-2.6892,-2.6842,-2.6775,-2.6742,-2.64,-2.6225,-2.6225,-2.5994,-2.5848,-2.5811,-2.5848,-2.5758,-2.5556,-2.5721,-2.5647,-1.5819,-1.6494,-1.7631,-1.9926,-1.8348,-1.8042,-2.5037,-2.2631,-2.0175,-2.4526,-2.7834,-2.9333,-2.7143,-2.7059,0.0,-2.7394,-2.7629,-2.8762,0.0,0.0,0.0,0.0,0.0,0.0,0.0,0.0,0.0,0.0,0.0,0.0,0.0,-3.4124,-3.3849,-3.3119,-3.3545,-3.3356,-3.2485,-3.2085,-3.1893,-3.1873,-3.1088,-3.0724,-3.0803,-3.0794,-3.0808,-3.0802,-3.0808,-3.0794,-3.08,-3.0739,-3.0669,-3.0602,-3.0597,-3.0598,-3.0588,-3.0519,-3.0509,-3.0469,-3.034,-3.0215,-3.0079,-2.9851,-2.9717,-2.9569,-2.9448,-2.9407,-2.9407,-2.9407,-2.9407,-2.9407,-2.9407,-2.9344,-2.9197,-2.8718,-2.8767,-2.8767,-2.821,-2.8084,-2.7992,-2.7659,-2.7617,-2.7587,-2.7526,-2.7434,-2.7434,-2.7496,-2.7233,-2.704,-2.7103,-2.6858,-2.6775,-2.6975,-2.7007,-2.6992,-2.6992,-2.7103,-2.7053,-2.6725,-2.6758,-2.6875,-2.6975,-2.6808,-2.635,-2.5619,-2.5582,-2.5524,-2.5422,-2.5524,-2.5615,-2.5701,-2.5905,-2.5689,-1.8197,-1.7368,-1.6881,-2.0126,-1.958,-1.8849,-2.1117,-2.1827,-2.2824,-2.5707,-2.715,-2.6891,-2.36,-2.6656,0.0,-2.6889,-2.8585,-3.0412,0.0,0.0,0.0,0.0,0.0,0.0,0.0,0.0,0.0,0.0,0.0,0.0,0.0,-3.3537,-3.3178,-3.3013,-3.2298,-3.1707,-3.1317,-3.1047,-3.0867,-3.0777,-3.0673,-3.0697,-3.0794,-3.0794,-3.0808,-3.0794,-3.081,-3.0794,-3.0799,-3.0738,-3.0695,-3.0665,-3.0625,-3.0598,-3.0598,-3.0579,-3.054,-3.0471,-3.0352,-3.0209,-3.0052,-2.982,-2.9682,-2.9569,-2.9448,-2.9407,-2.9407,-2.9407,-2.9407,-2.9386,-2.9283,-2.9304,-2.9304,-2.9089,-2.898,-2.891,-2.8658,-2.8446,-2.8264,-2.8119,-2.7933,-2.78,-2.773,-2.7569,-2.7465,-2.7496,-2.7373,-2.7247,-2.7135,-2.699,-2.6909,-2.6926,-2.6809,-2.6708,-2.6708,-2.6708,-2.6674,-2.6572,-2.6572,-2.6606,-2.6657,-2.6572,-2.6208,-2.5465,-2.5503,-2.5389,-2.5059,-2.5082,-2.5198,-2.5351,-2.5411,-2.5335,-2.0117,-1.9341,-1.9182,-2.3076,-2.1843,-1.993,-2.0994,-2.1905,-2.3573,-2.7306,-2.824,-2.7646,-2.5301,-2.8064,0.0,-2.8213,-2.9738,0.0,0.0,0.0,0.0,0.0,0.0,0.0,0.0,0.0,0.0,0.0,0.0,0.0,0.0,-3.3075,-3.2551,-3.195,-3.1314,-3.079,-3.0414,-3.0366,-3.0348,-3.0392,-3.0539,-3.0664,-3.0764,-3.0784,-3.0799,-3.0806,-3.0762,-3.0757,-3.0762,-3.0691,-3.0671,-3.0649,-3.0616,-3.0598,-3.0598,-3.0598,-3.0559,-3.0481,-3.0406,-3.026,-3.0095,-2.9869,-2.9699,-2.957,-2.9429,-2.9407,-2.9407,-2.9407,-2.9407,-2.9386,-2.9222,-2.9304,-2.9326,-2.9112,-2.898,-2.8821,-2.8394,-2.821,-2.8047,-2.7858,-2.7789,-2.773,-2.7659,-2.7478,-2.7355,-2.7355,-2.7279,-2.7184,-2.6973,-2.6908,-2.6825,-2.6759,-2.6623,-2.6554,-2.6554,-2.652,-2.6485,-2.6485,-2.6329,-2.6277,-2.6434,-2.6485,-2.6293,-2.5848,-2.5832,-2.5594,-2.5121,-2.5176,-2.5121,-2.4989,-2.5051,-2.5035,-2.1771,-2.189,-2.2965,-2.6854,-2.4145,-2.124,-2.3929,-2.3112,-2.3404,-2.914,0.0,-3.0046,-3.0182,-3.0485,-3.0651,-3.0526,0.0,0.0,0.0,0.0,0.0,0.0,0.0,0.0,0.0,0.0,0.0,0.0,0.0,0.0,0.0,-3.2551,-3.1893,-3.0318,-3.0549,-3.0377,-2.9767,-2.9994,-3.0251,0.0,-3.0557,-3.0622,-3.0697,-3.0778,-3.0794,-3.0793,-3.074,-3.0718,-3.0708,-3.0646,-3.061,-3.0595,-3.0597,-3.0598,-3.0588,-3.0588,-3.0559,-3.051,-3.0479,-3.0328,-3.0142,-2.995,-2.9751,-2.957,-2.945,-2.9407,-2.9407,-2.9407,-2.9407,-2.9365,-2.9222,-2.9283,-2.9262,-2.8845,-2.8773,-2.8565,-2.7816,-2.7666,-2.7552,-2.7244,-2.7324,-2.7434,-2.7407,-2.7279,-2.7149,-2.7103,-2.7023,-2.6892,-2.6708,-2.6708,-2.6657,-2.652,-2.6485,-2.6485,-2.6485,-2.6485,-2.645,-2.6415,-2.603,-2.5905,-2.6173,-2.6312,-2.638,-2.6329,-2.6189,-2.5852,-2.5259,-2.5389,-2.5121,-2.4552,-2.461,-2.461,-2.4171,-2.3044,-2.1778,-2.2455,-2.1627,-2.2219,-2.8142,-2.7375,-2.653,-3.0359,-2.8959,-2.7734,-3.0013,-3.0568,-3.0651,-3.0526,0.0,0.0,0.0,0.0,0.0,0.0,0.0,0.0,0.0,0.0,0.0,0.0,0.0,0.0,-3.2429,-3.118,-3.0341,-3.007,-2.9832,-2.9626,-2.9495,-2.9999,-3.029,0.0,-3.0453,-3.0582,-3.0704,-3.0778,-3.0798,-3.0804,-3.0771,-3.0781,-3.0769,-3.0715,-3.0652,-3.0602,-3.0595,-3.0578,-3.0519,-3.0519,-3.0519,-3.0479,-3.0316,-3.0169,-3.0007,-2.9803,-2.9608,-2.945,-2.9407,-2.9407,-2.9407,-2.9407,-2.9407,-2.9347,-2.9112,-2.9048,-2.8962,-2.8522,-2.8496,-2.8496,-2.821,-2.7713,-2.7369,-2.7595,-2.7355,-2.7169,-2.7359,-2.723,-2.7053,-2.6825,-2.6758,-2.6742,-2.6623,-2.6572,-2.6537,-2.6589,-2.6417,-2.6347,-2.6347,-2.6293,-2.6115,-2.5742,-2.5615,-2.5465,-2.5214,-2.5497,-2.546,-2.502,-2.4839,-2.4354,-2.361,-2.3522,-2.3478,-2.345,-2.3333,-2.3245,-2.408,-2.3983,-2.3961,-2.4861,-2.5676,-2.6847,-2.9178,-2.92,-2.9177,-3.065,-2.9501,-2.8682,-3.0203,-3.0568,-3.0568,0.0,0.0,0.0,0.0,0.0,0.0,0.0,0.0,0.0,0.0,0.0,0.0,0.0,0.0,-3.1335,-3.1111,-3.0321,-2.9712,-2.943,-2.9311,-2.9342,-2.9532,-2.9935,-3.0247,-3.0442,-3.0511,-3.0618,-3.0749,-3.0753,-3.074,-3.0751,-3.0792,-3.0781,-3.0753,-3.0711,-3.0672,-3.0637,-3.0613,-3.0588,-3.054,-3.05,-3.049,-3.0488,-3.0383,-3.0196,-2.9977,-2.9851,-2.9626,-2.9409,-2.9407,-2.9407,-2.9386,-2.9326,-2.9304,-2.924,-2.8957,-2.891,-2.8773,-2.8264,-2.8192,-2.8148,-2.7747,-2.7348,-2.7051,-2.7083,-2.7006,-2.7024,-2.7201,-2.712,-2.6957,-2.6674,-2.6674,-2.6657,-2.6504,-2.6486,-2.6417,-2.6415,-2.6329,-2.6241,-2.6241,-2.6239,-2.6096,-2.5848,-2.5443,-2.5198,-2.5198,-2.4768,-2.4608,-2.4768,-2.4679,-2.4271,-2.3623,-2.3406,-2.3143,-2.2889,-2.2663,-2.248,-2.3294,-2.4687,-2.6817,-2.907,-3.0463,-3.0891,-2.9327,-2.99,-3.0726,-3.0697,-3.0593,-3.0526,-3.0526,-3.0526,-3.0526,0.0,0.0,0.0,0.0,0.0,0.0,0.0,0.0,0.0,0.0,0.0,0.0,0.0,0.0,-3.0166,-2.9683,-2.9636,-2.9341,-2.8755,-2.8993,-2.9321,-2.9653,-2.9935,-3.0234,-3.0595,-3.0604,-3.0688,-3.0787,-3.0722,-3.072,-3.0715,-3.0778,-3.0759,-3.0693,-3.0706,-3.0703,-3.07,-3.064,-3.0606,-3.0579,-3.052,-3.049,-3.0488,-3.0458,-3.0279,-3.0022,-2.9927,-2.9697,-2.9433,-2.9409,-2.9386,-2.9326,-2.9222,-2.9156,-2.9067,-2.881,-2.8718,-2.8601,-2.8065,-2.7897,-2.7718,-2.7172,-2.6952,-2.6757,-2.6487,-2.6657,-2.6893,-2.6942,-2.6942,-2.6842,-2.6606,-2.6607,-2.659,-2.64,-2.6365,-2.6295,-2.6203,-2.622,-2.622,-2.622,-2.622,-2.6132,-2.6043,-2.5346,-2.5044,-2.5275,-2.4282,-2.4048,-2.4792,-2.4688,-2.4389,-2.3903,-2.3593,-2.3172,-2.2572,-2.2263,-2.2044,-2.3731,-2.4962,-2.7117,-2.9504,-2.8609,-2.7923,-3.1067,-3.0429,-2.9619,0.0,-3.0925,-3.0526,-3.0526,-3.0526,-3.0526,0.0,0.0,0.0,0.0,0.0,0.0,0.0,0.0,0.0,0.0,0.0,0.0,0.0,-2.987,-2.9494,-2.951,-2.8837,-2.8461,-2.8536,-2.9023,-2.9362,-2.9529,-3.0023,-3.0375,-3.0607,-3.0668,-3.07,-3.0715,-3.0704,-3.073,-3.0786,-3.08,-3.0756,-3.0703,-3.0706,-3.0711,-3.07,-3.0692,-3.0615,-3.0509,-3.0509,-3.0447,-3.041,-3.0359,-3.0267,-3.0142,-2.9965,-2.975,-2.9532,-2.9429,-2.9326,-2.9222,-2.9218,-2.9026,-2.8815,-2.8594,-2.844,-2.8255,-2.7847,-2.7474,-2.7227,-2.7255,-2.6939,-2.6691,-2.6875,-2.6759,-2.6674,-2.6742,-2.6691,-2.6606,-2.6469,-2.6418,-2.64,-2.6239,-2.6239,-2.6203,-2.622,-2.622,-2.622,-2.622,-2.622,-2.597,-2.5346,-2.523,-2.4958,-2.4492,-2.4302,-2.4135,-2.3937,-2.3653,-2.3216,-2.2618,-2.2586,-2.2402,-2.2077,-2.1949,-2.1793,-2.5785,-2.56,-2.6005,-3.103,-2.9292,-2.7435,-3.1586,-3.067,-2.9492,-3.1427,-3.1511,-3.1206,-3.1201,-3.1162,0.0,0.0,0.0,0.0,0.0,0.0,0.0,0.0,0.0,0.0,0.0,0.0,0.0,0.0,-2.8936,-2.8568,-2.8754,-2.8443,-2.8327,-2.8492,-2.8983,-2.9323,-2.9494,-3.0075,-3.0428,-3.0595,-3.0657,-3.0688,-3.069,-3.0742,-3.075,-3.0752,-3.0779,-3.0776,-3.0746,-3.0711,-3.0704,-3.071,-3.0707,-3.0632,-3.0501,-3.051,-3.0458,-3.0398,-3.0367,-3.0215,-3.0026,-2.9934,-2.9662,-2.9353,-2.9326,-2.9178,-2.9067,-2.8998,-2.8863,-2.8718,-2.8543,-2.838,-2.8109,-2.7595,-2.7413,-2.7244,-2.6791,-2.6521,-2.6434,-2.664,-2.6572,-2.6504,-2.6521,-2.6504,-2.64,-2.6154,-2.6118,-2.6099,-2.6043,-2.6043,-2.6096,-2.6184,-2.622,-2.6132,-2.6043,-2.5901,-2.561,-2.523,-2.4879,-2.4614,-2.4369,-2.3767,-2.3377,-2.3304,-2.3334,-2.3113,-2.2678,-2.2356,-2.2044,-2.1746,-2.1471,-2.1215,-2.6694,-2.569,-2.4915,-3.0772,-2.8931,-2.6606,-3.0237,0.0,-2.8905,0.0,-3.1742,-3.2127,-3.2039,-3.186,0.0,0.0,0.0,0.0,0.0,0.0,0.0,0.0,0.0,0.0,0.0,0.0,0.0,0.0,-2.82,-2.7876,-2.8126,-2.8219,-2.8327,-2.8458,-2.8979,-2.9322,-2.9458,-3.0122,-3.0471,-3.0602,-3.0645,-3.0676,-3.0691,-3.0759,-3.0759,-3.0707,-3.0779,-3.0793,-3.0798,-3.0725,-3.0691,-3.0691,-3.0703,-3.0629,-3.0501,-3.0492,-3.0469,-3.0398,-3.0398,-3.0234,-2.9981,-2.9886,-2.9608,-2.9289,-2.9178,-2.9021,-2.8881,-2.8785,-2.8644,-2.8492,-2.8414,-2.8246,-2.8014,-2.7595,-2.7535,-2.7338,-2.6521,-2.6274,-2.6203,-2.626,-2.6279,-2.6243,-2.6208,-2.6208,-2.6118,-2.5844,-2.5807,-2.5844,-2.5881,-2.586,-2.5881,-2.599,-2.597,-2.5844,-2.5642,-2.5443,-2.5275,-2.5059,-2.4639,-2.4369,-2.441,-2.3493,-2.2965,-2.3024,-2.3039,-2.286,-2.2572,-2.2077,-2.1712,-2.1423,-2.1082,-2.0772,-2.4931,-2.4745,-2.4393,-2.6996,-2.563,-2.4161,0.0,0.0,-2.7095,-2.9124,-3.1416,-3.3024,-3.293,-3.2266,0.0,0.0,0.0,0.0,0.0,0.0,0.0,0.0,0.0,0.0,0.0,0.0,0.0,0.0,-2.7677,-2.7789,-2.8014,-2.8136,-2.8246,-2.83,-2.9023,-2.94,-2.9401,-3.0125,-3.053,-3.0602,-3.061,-3.0634,-3.0697,-3.0778,-3.0758,-3.0698,-3.0761,-3.0796,-3.0789,-3.0728,-3.0691,-3.0691,-3.0697,-3.0618,-3.0501,-3.0501,-3.0471,-3.0398,-3.0398,-3.0362,-3.0207,-2.9832,-2.9662,-2.9513,-2.9134,-2.8834,-2.8601,-2.8601,-2.8335,-2.8071,-2.8099,-2.8032,-2.7946,-2.8042,-2.7766,-2.7355,-2.6791,-2.6417,-2.6132,-2.597,-2.5934,-2.5881,-2.568,-2.5637,-2.5637,-2.5605,-2.5605,-2.568,-2.5897,-2.5733,-2.5589,-2.554,-2.5368,-2.5192,-2.4981,-2.4942,-2.4863,-2.4664,-2.4583,-2.4574,-2.4498,-2.4009,-2.3653,-2.3363,-2.2455,-2.188,-2.1664,-2.152,-2.1277,-2.1033,-2.0772,-2.061,-2.4663,-2.3601,-2.2549,-2.641,-2.4277,-2.2199,-2.582,-2.6728,-2.6968,-2.7592,-3.0801,-3.3002,-3.1365,-3.1857,0.0,0.0,0.0,0.0,0.0,0.0,0.0,0.0,0.0,0.0,0.0,0.0,0.0,0.0,0.0,-2.5747,-2.7908,-2.6135,-2.6009,-2.811,-2.8847,-2.9458,-2.9973,-3.0279,-3.0479,-3.0548,-3.063,-3.0678,-3.0709,-3.0778,-3.0793,-3.0762,-3.0795,-3.0807,-3.0794,-3.0734,-3.0697,-3.071,-3.0704,-3.0626,-3.0501,-3.0501,-3.0471,-3.0398,-3.0362,-3.0234,-3.0056,-2.975,-2.9456,-2.9233,-2.8957,-2.8687,-2.8484,-2.8484,-2.8273,-2.8071,-2.8099,-2.8042,-2.7986,-2.8014,-2.7369,-2.6758,-2.6757,-2.6297,-2.5864,-2.5897,-2.5807,-2.568,-2.5605,-2.56,-2.5578,-2.5448,-2.5246,-2.5192,-2.523,-2.5075,-2.4981,-2.5082,-2.5059,-2.4942,-2.4744,-2.4292,-2.3846,-2.3462,-2.301,-2.2698,-2.2577,-2.2193,-2.2021,-2.1974,-2.1403,-2.1188,-2.1471,-2.1068,-2.0772,-2.0485,-2.0372,-2.0271,-2.286,-2.1934,-2.1169,-2.4273,-2.2575,-2.091,-2.3912,-2.5919,-2.7086,-2.6931,-3.0383,-3.2926,-3.1232,-3.1674,0.0,0.0,0.0,0.0,0.0,0.0,0.0,0.0,0.0,0.0,0.0,0.0,0.0,0.0,0.0,0.0,-2.7549,-2.5888,-2.5971,-2.8376,-2.887,-2.9476,-3.0247,-3.0318,-3.0394,-3.0511,-3.0605,-3.0678,-3.0695,-3.078,-3.08,-3.0799,-3.0808,-3.0804,-3.0784,-3.0734,-3.0703,-3.0728,-3.0711,-3.0626,-3.0501,-3.0501,-3.0471,-3.0398,-3.0318,-3.0194,-3.0011,-2.9662,-2.9338,-2.906,-2.8767,-2.8484,-2.8291,-2.8291,-2.8109,-2.7968,-2.7968,-2.7911,-2.7824,-2.7719,-2.7004,-2.6367,-2.6505,-2.6068,-2.5663,-2.5696,-2.5584,-2.5454,-2.5301,-2.5278,-2.5217,-2.5005,-2.4815,-2.4719,-2.4784,-2.4623,-2.4558,-2.4679,-2.438,-2.4079,-2.3892,-2.3152,-2.2584,-2.2291,-2.1823,-2.155,-2.1554,-2.121,-2.1091,-2.1272,-2.0759,-2.0623,-2.097,-2.0623,-2.0372,-2.0182,-1.9839,-1.9434,0.0,0.0,0.0,-2.0421,-2.0405,0.0,-2.0047,0.0,-2.72,-2.6987,-3.0037,-3.2734,-3.2609,-3.1649,0.0,0.0,0.0,0.0,0.0,0.0,0.0,0.0,0.0,0.0,0.0,0.0,0.0,0.0,-2.6704,-2.6914,-2.7017,-2.7642,-2.8326,-2.9064,-2.9086,-2.9457,-3.0182,-3.0196,-3.0297,-3.0501,-3.0564,-3.0639,-3.0704,-3.0777,-3.08,-3.0799,-3.0808,-3.0807,-3.0798,-3.0739,-3.0734,-3.0778,-3.073,-3.0626,-3.0501,-3.0501,-3.0471,-3.0398,-3.0305,-3.024,-3.0109,-2.957,-2.9258,-2.8997,-2.8543,-2.8219,-2.8014,-2.8014,-2.7864,-2.7701,-2.7701,-2.7659,-2.7509,-2.7181,-2.6741,-2.6298,-2.6033,-2.5775,-2.5546,-2.5333,-2.5294,-2.5123,-2.467,-2.4589,-2.4549,-2.4343,-2.4302,-2.4369,-2.4542,-2.441,-2.4261,-2.4261,-2.3334,-2.2667,-2.2416,-2.1662,-2.1182,-2.1201,-2.1198,-2.13,-2.1622,-2.121,-2.1091,-2.1321,-2.056,-2.0182,-2.0182,-2.0169,-2.0156,-2.0144,-1.9133,-1.8253,-1.9099,0.0,0.0,0.0,0.0,0.0,0.0,0.0,-2.39,-2.3256,-2.6667,-2.9784,-2.9799,-3.0301,0.0,0.0,0.0,0.0,0.0,0.0,0.0,0.0,0.0,0.0,0.0,0.0,0.0,0.0,-2.5333,-2.5112,-2.7365,-2.7683,-2.8112,-2.8856,-2.8986,-2.9381,-3.0128,-3.0215,-3.0356,-3.05,-3.0613,-3.07,-3.0771,-3.0781,-3.0792,-3.0808,-3.0794,-3.0771,-3.0735,-3.0714,-3.0703,-3.0722,-3.0711,-3.0626,-3.0501,-3.0501,-3.0471,-3.0367,-3.026,-3.0226,-3.0094,-2.9514,-2.9217,-2.8997,-2.8543,-2.8219,-2.8014,-2.8014,-2.7864,-2.7701,-2.763,-2.7539,-2.7355,-2.7019,-2.6607,-2.6158,-2.5868,-2.5438,-2.5201,-2.5294,-2.5178,-2.4966,-2.467,-2.4589,-2.4549,-2.4343,-2.4193,-2.4135,-2.423,-2.4078,-2.3909,-2.3824,-2.3531,-2.3255,-2.3053,-2.2468,-2.2038,-2.1861,-2.1172,-2.0709,-2.0607,-2.0194,-1.994,-1.9837,-1.9708,-1.9512,-1.9356,-1.9168,-1.9121,-1.9108,-1.8216,-1.769,-1.8511,-1.9292,-1.9957,-1.9917,0.0,0.0,-1.88,-2.1367,-2.3789,0.0,-2.6754,-2.9533,-2.8475,-2.847,-2.8642,0.0,0.0,0.0,0.0,0.0,0.0,0.0,0.0,0.0,0.0,-2.7391,-2.7269,-2.7238,-2.5675,-2.5582,-2.7596,-2.7701,-2.8029,-2.8782,-2.8851,-2.9262,-3.0087,-3.0147,-3.0253,-3.0433,-3.0574,-3.0689,-3.0729,-3.0779,-3.0796,-3.0796,-3.0801,-3.0778,-3.073,-3.0703,-3.0704,-3.0698,-3.0676,-3.0593,-3.0501,-3.0492,-3.0449,-3.0336,-3.0247,-3.0118,-2.995,-2.94,-2.9049,-2.8772,-2.8362,-2.8081,-2.7864,-2.7864,-2.7748,-2.76,-2.7478,-2.7355,-2.7166,-2.6674,-2.635,-2.5977,-2.5384,-2.5029,-2.4886,-2.5005,-2.4926,-2.471,-2.4385,-2.4385,-2.4328,-2.4135,-2.4024,-2.3967,-2.3909,-2.3782,-2.3653,-2.348,-2.3155,-2.2877,-2.2746,-2.1928,-2.1265,-2.0868,-2.0356,-1.9861,-1.9396,-1.9428,-1.9344,-1.9133,-1.9198,-1.8996,-1.8505,-1.8733,-1.8666,-1.8345,-1.798,-1.7459,-1.8037,-1.8607,-1.9199,-1.9196,-1.9121,0.0,-1.795,-2.1251,-2.4555,0.0,-2.7683,-2.959,-2.7531,-2.6294,-2.559,0.0,0.0,0.0,0.0,0.0,0.0,0.0,0.0,0.0,-2.7191,-2.6977,-2.6852,-2.6771,-2.7002,-2.7338,-2.7672,-2.773,-2.8047,-2.879,-2.8772,-2.9177,-3.0087,-3.0045,-3.0109,-3.0309,-3.0515,-3.0604,-3.0624,-3.0741,-3.0794,-3.0791,-3.0794,-3.0793,-3.0789,-3.073,-3.0704,-3.069,-3.0629,-3.0568,-3.0491,-3.049,-3.0425,-3.0292,-3.0228,-3.0026,-2.9713,-2.9263,-2.8833,-2.8428,-2.8091,-2.7864,-2.7701,-2.7672,-2.7569,-2.7404,-2.7213,-2.7085,-2.6858,-2.6245,-2.603,-2.5701,-2.4815,-2.463,-2.4589,-2.4589,-2.4589,-2.4467,-2.4067,-2.4094,-2.4036,-2.3739,-2.3839,-2.3839,-2.345,-2.345,-2.3377,-2.3157,-2.2454,-2.1946,-2.196,-2.0792,-1.984,-1.9356,-1.9387,-1.9083,-1.8442,-1.8879,-1.9081,-1.8934,-1.8934,-1.8548,-1.7826,-1.8541,-1.847,-1.765,-1.7906,-1.727,-1.8872,-1.8989,-1.9124,0.0,-1.8637,0.0,-1.705,-1.7617,-1.8729,0.0,-2.098,-2.2003,-2.3546,-2.3634,-2.3509,0.0,0.0,0.0,0.0,0.0,0.0,0.0,0.0,0.0,-2.8603,-2.827,-2.8021,-2.7901,-2.7695,-2.7612,-2.7701,-2.7864,-2.821,-2.879,-2.8942,-2.9342,-3.0022,-3.0094,-3.0235,-3.0384,-3.0529,-3.0637,-3.0677,-3.0759,-3.0796,-3.0791,-3.0801,-3.0765,-3.0711,-3.0704,-3.0704,-3.0685,-3.0629,-3.0568,-3.0491,-3.049,-3.0414,-3.0305,-3.0279,-3.0041,-2.966,-2.9302,-2.8874,-2.8428,-2.8091,-2.7864,-2.7672,-2.7569,-2.7341,-2.7087,-2.7103,-2.6791,-2.6383,-2.6082,-2.5758,-2.5384,-2.4886,-2.4782,-2.4686,-2.4385,-2.4441,-2.4441,-2.412,-2.4177,-2.3994,-2.3201,-2.3436,-2.3319,-2.2363,-2.262,-2.2634,-2.2086,-2.1848,-2.1699,-2.1539,-2.1287,-2.103,-2.0791,-2.0312,-1.9927,-1.9686,-1.9242,-1.8934,-1.8667,-1.8398,-1.8201,-1.8043,-1.8049,-1.7627,-1.6823,-1.6873,-1.6769,0.0,0.0,0.0,-1.7849,0.0,0.0,0.0,-1.6924,-1.8089,-1.8927,-2.0102,-2.1001,-2.099,-2.0996,-2.0878,-2.0526,0.0,0.0,0.0,0.0,0.0,0.0,0.0,0.0,-2.9364,-2.8916,-2.8499,-2.8138,-2.7847,-2.773,-2.7836,-2.8045,-2.8342,-2.8837,-2.9074,-2.9438,-2.9956,-3.0083,-3.0234,-3.0351,-3.0508,-3.0633,-3.071,-3.0778,-3.0807,-3.0804,-3.081,-3.0755,-3.0698,-3.0697,-3.0683,-3.0634,-3.0577,-3.052,-3.0449,-3.0414,-3.0343,-3.0253,-3.0207,-2.9848,-2.9361,-2.914,-2.8688,-2.8219,-2.7933,-2.7748,-2.7539,-2.731,-2.7137,-2.6975,-2.6892,-2.6521,-2.612,-2.5758,-2.5443,-2.5059,-2.4574,-2.4523,-2.4441,-2.4036,-2.4193,-2.4291,-2.4094,-2.4051,-2.3867,-2.3436,-2.329,-2.3009,-2.23,-2.2193,-2.2007,-2.1582,-2.1534,-2.15,-2.1417,-2.1028,-2.065,-2.0227,-1.9826,-1.9364,-1.8848,-1.879,-1.8667,-1.8344,-1.8193,-1.8084,-1.8084,-1.7993,-1.7728,-1.7317,-1.7117,-1.7002,0.0,0.0,0.0,0.0,0.0,-1.6106,0.0,0.0,0.0,0.0,0.0,0.0,0.0,0.0,0.0,0.0,0.0,0.0,0.0,0.0,0.0,0.0,0.0,0.0,0.0,-2.8053,-2.805,-2.8139,-2.7943,-2.7886,-2.8063,-2.8255,-2.8535,-2.8938,-2.9219,-2.9514,-2.9907,-3.0022,-3.0171,-3.0304,-3.0486,-3.0619,-3.0708,-3.0778,-3.0801,-3.0798,-3.0798,-3.0769,-3.0691,-3.0704,-3.0653,-3.0568,-3.053,-3.0458,-3.0364,-3.0318,-3.0253,-3.018,-3.0123,-2.9658,-2.9077,-2.8972,-2.8485,-2.7957,-2.7719,-2.7569,-2.7373,-2.7072,-2.6975,-2.6909,-2.6606,-2.6279,-2.5888,-2.5443,-2.5098,-2.4688,-2.4188,-2.4177,-2.4135,-2.3739,-2.3882,-2.404,-2.394,-2.3882,-2.3694,-2.3387,-2.3025,-2.256,-2.1974,-2.1608,-2.1342,-2.1015,-2.1028,-2.0979,-2.0917,-2.0333,-1.975,-1.9158,-1.8995,-1.8548,-1.7636,-1.809,-1.8258,-1.7989,-1.8038,-1.8038,-1.8001,-1.8038,-1.8084,-1.8084,-1.7714,-1.7519,0.0,0.0,0.0,0.0,-1.5749,0.0,0.0,0.0,-1.5293,-1.5283,0.0,0.0,0.0,0.0,0.0,0.0,0.0,0.0,-1.7398,0.0,0.0,0.0,0.0,0.0,0.0,-2.3873,-2.5929,-2.8414,-2.8391,-2.8246,-2.8246,-2.8402,-2.8688,-2.9138,-2.9437,-2.9662,-2.9912,-3.0041,-3.0176,-3.0305,-3.0444,-3.0569,-3.0708,-3.0761,-3.0791,-3.0798,-3.0794,-3.076,-3.0697,-3.0697,-3.0621,-3.0519,-3.0509,-3.0417,-3.0316,-3.0305,-3.0213,-3.0117,-3.0094,-2.9661,-2.9089,-2.9012,-2.8485,-2.7859,-2.7587,-2.7386,-2.7198,-2.7023,-2.6959,-2.6809,-2.6435,-2.5961,-2.5503,-2.5192,-2.4639,-2.4188,-2.4105,-2.4051,-2.3982,-2.3797,-2.3739,-2.3653,-2.3553,-2.3812,-2.3458,-2.1902,-2.2064,-2.1699,-1.9882,-2.0197,-2.0258,-1.954,-1.9552,-1.9512,-1.9291,-1.9198,-1.9069,-1.8862,-1.875,-1.8337,-1.7624,-1.7543,-1.7514,-1.7461,-1.7909,-1.7921,-1.7461,-1.7921,-1.8084,-1.8084,-1.8027,-1.8004,0.0,0.0,0.0,0.0,0.0,0.0,-1.6931,0.0,-1.4793,0.0,0.0,0.0,0.0,0.0,0.0,0.0,-1.2864,0.0,0.0,0.0,-1.6032,0.0,0.0,0.0,0.0,0.0,0.0,0.0,-2.5902,-2.5782,-2.5863,-2.7908,-2.9156,-2.9377,-2.9626,-2.9822,-2.9959,-3.0053,-3.018,-3.0359,-3.0486,-3.0619,-3.0708,-3.076,-3.0794,-3.0804,-3.0763,-3.0739,-3.069,-3.0653,-3.0586,-3.0499,-3.0458,-3.0383,-3.0305,-3.0253,-3.019,-3.0072,-2.9836,-2.9438,-2.8879,-2.7918,-2.7289,-2.6877,-2.6684,-2.6822,-2.7023,-2.6842,-2.6589,-2.6314,-2.603,-2.5427,-2.4831,-2.4695,-2.4287,-2.3909,-2.3909,-2.3824,-2.3634,-2.3088,-2.2899,-2.2653,-2.2016,-2.2817,-2.3185,-2.2033,-2.2081,-2.1467,-1.9355,-1.9458,-1.9283,-1.8085,-1.801,-1.8142,-1.8298,-1.8166,-1.8072,-1.8084,-1.7687,-1.7444,-1.7485,-1.7433,-1.7519,-1.7817,-1.7642,-1.7642,-1.7817,-1.7281,-1.7406,-1.8084,-1.8084,-1.8084,-1.9666,0.0,0.0,0.0,0.0,0.0,0.0,0.0,0.0,0.0,0.0,0.0,0.0,0.0,-1.2817,-1.2187,0.0,-1.1772,0.0,-1.1911,0.0,0.0,0.0,0.0,0.0,0.0,0.0,-2.327,-2.3834,-2.4137,-2.4211,-2.7587,-2.9551,-2.9608,-2.9839,-2.9972,-2.9972,-3.0094,-3.0234,-3.0375,-3.0528,-3.0648,-3.0708,-3.0779,-3.0791,-3.0791,-3.0726,-3.0691,-3.0664,-3.0621,-3.055,-3.0469,-3.0428,-3.0348,-3.0272,-3.0232,-3.0128,-2.9991,-2.9626,-2.9237,-2.8638,-2.7094,-2.6615,-2.6514,-2.613,-2.6473,-2.6909,-2.6555,-2.6243,-2.5924,-2.5519,-2.491,-2.4389,-2.4261,-2.3967,-2.3739,-2.3739,-2.361,-2.3287,-2.2714,-2.2467,-2.209,-2.1098,-2.1902,-2.2438,-2.1624,-2.1494,-2.085,-1.9025,-1.9006,-1.8629,-1.7277,-1.7144,-1.7211,-1.7345,-1.7123,-1.7071,-1.7186,-1.6478,-1.628,-1.6792,-1.6678,-1.6769,-1.7092,-1.6836,-1.6841,-1.7296,-1.6367,-1.6394,-1.7393,-1.7713,-1.7958,0.0,0.0,0.0,-1.7919,0.0,0.0,0.0,0.0,-1.2912,0.0,0.0,0.0,0.0,0.0,-1.198,-1.1837,-1.1151,0.0,0.0,0.0,0.0,0.0,0.0,0.0,0.0,0.0,0.0,-2.1069,-2.3271,-2.4542,-2.4498,-2.7742,-2.9691,-2.9872,-3.0015,-3.0015,-2.9905,-3.0152,-3.0305,-3.0316,-3.0496,-3.0637,-3.0708,-3.0776,-3.0804,-3.0791,-3.0735,-3.0652,-3.0603,-3.0593,-3.0521,-3.0398,-3.0398,-3.0323,-3.0185,-3.0204,-3.0087,-2.9859,-2.9589,-2.9114,-2.8377,-2.704,-2.7098,-2.7437,-2.6333,-2.6473,-2.6859,-2.6191,-2.6068,-2.5908,-2.4989,-2.4617,-2.4415,-2.4094,-2.3797,-2.3595,-2.3595,-2.3334,-2.3127,-2.3098,-2.2785,-2.2372,-2.1712,-2.1368,-2.0816,-1.9831,-1.9682,-1.9398,-1.8618,-1.859,-1.8282,-1.7376,-1.7376,-1.7046,-1.6204,-1.6001,-1.6001,-1.6114,-1.5134,-1.4766,-1.5262,-1.4821,-1.4578,-1.4647,-1.5041,-1.5235,-1.5186,-1.5029,-1.5167,-1.559,-1.6707,-1.752,0.0,0.0,-2.3719,-2.2629,0.0,0.0,0.0,0.0,0.0,0.0,0.0,0.0,0.0,0.0,-1.087,-1.0866,-1.0168,-0.9736,0.0,0.0,0.0,0.0,0.0,0.0,0.0,0.0,0.0,-1.7068,-1.7876,-1.8274,-1.8222,-2.355,-2.6626,-2.6655,-2.8893,-3.0098,-3.0113,-3.0226,-3.034,-3.0424,-3.0586,-3.0703,-3.0762,-3.0788,-3.0798,-3.081,-3.0734,-3.0651,-3.0595,-3.0549,-3.0471,-3.0406,-3.0348,-3.0247,-3.0123,-3.0123,-3.0038,-2.9825,-2.9357,-2.8007,-2.6472,-2.6002,-2.5784,-2.5648,-2.5257,-2.5678,-2.6262,-2.5977,-2.5449,-2.4894,-2.4542,-2.4173,-2.3879,-2.3782,-2.3653,-2.3551,-2.3436,-2.3172,-2.2818,-2.2206,-2.1495,-2.0809,-2.0204,-1.9584,-1.9272,-1.9484,-1.9502,-1.8823,-1.7057,-1.6888,-1.6418,-1.5188,-1.5127,-1.5178,-1.5312,-1.5455,-1.5505,-1.5565,-1.504,-1.4693,-1.4744,-1.4589,-1.4455,-1.4316,-1.4082,-1.4356,-1.518,-1.4121,-1.4173,-1.5257,-1.5386,-1.5836,-2.6513,-2.677,0.0,-2.4967,-2.3232,0.0,-2.0029,0.0,0.0,0.0,0.0,0.0,0.0,0.0,-1.1514,-1.0127,-0.9643,-0.9455,0.0,-0.9484,0.0,0.0,0.0,0.0,0.0,-1.4485,-1.3773,-1.4707,-1.5015,-1.5283,0.0,0.0,-2.5179,-2.5106,-2.8427,-3.0213,-3.0253,-3.033,-3.0419,-3.0496,-3.0638,-3.0718,-3.0776,-3.0796,-3.0782,-3.0751,-3.073,-3.0642,-3.0563,-3.053,-3.0458,-3.0394,-3.033,-3.0161,-2.9962,-3.003,-2.9855,-2.9476,-2.8644,-2.7486,-2.6249,-2.5296,-2.527,-2.5466,-2.4798,-2.5229,-2.5852,-2.5503,-2.491,-2.4266,-2.4036,-2.3782,-2.3595,-2.3566,-2.3523,-2.3376,-2.2966,-2.2659,-2.2146,-2.134,-2.0597,-1.9934,-1.9336,-1.8632,-1.8344,-1.8837,-1.8837,-1.8154,-1.6458,-1.6191,-1.5664,-1.4384,-1.4233,-1.4305,-1.4473,-1.4709,-1.474,-1.4577,-1.4122,-1.3669,-1.324,-1.3202,-1.3144,-1.305,-1.2593,-1.2849,-1.3916,-1.2661,-1.2628,-1.3655,-1.345,-1.3681]},{"header":{"parameterUnit":"m.s-1","parameterCategory":1,"la1":30.6,"la2":29.2853,"lo1":-89.7004,"lo2":-87.6739,"dy":0.0162,"dx":0.0183,"nx":112,"ny":82,"refTime":"2023-09-07T18:00:00:Z","depth":0,"parameterNumber":3,"parameterNumberName":"V-component_of_WINDS"},"data":[0.0,0.0,0.0,0.0,0.0,0.0,0.0,0.0,0.0,0.0,0.0,0.0,0.0,0.0,0.0,0.0,0.0,0.0,0.0,0.0,0.0,0.0,0.0,0.0,0.0,0.0,0.0,0.0,0.0,0.0,0.0,0.0,0.0,0.0,0.0,0.0,0.0,0.0,0.0,0.0,0.0,0.0,0.0,0.0,0.0,0.0,0.0,0.0,0.0,0.0,0.0,0.0,0.0,0.0,0.0,0.0,0.0,0.0,0.0,0.0,0.0,0.0,0.0,0.0,0.0,0.0,0.0,0.0,0.0,0.0,0.0,0.0,0.0,0.0,0.0,0.0,0.0,0.0,0.0,0.0,0.0,0.0,0.0,0.0,0.0,0.0,0.0,0.0,0.0,0.0,-1.0467,-1.3055,-1.39,-1.4728,-1.5672,-1.6733,-1.6653,-1.4993,0.0,0.0,0.0,0.0,0.0,0.0,0.0,0.0,0.0,0.0,0.0,0.0,0.0,0.0,0.0,0.0,0.0,0.0,0.0,0.0,0.0,0.0,0.0,0.0,0.0,0.0,0.0,0.0,0.0,0.0,0.0,0.0,0.0,0.0,0.0,0.0,0.0,0.0,0.0,0.0,0.0,0.0,0.0,0.0,0.0,0.0,0.0,0.0,0.0,0.0,0.0,0.0,0.0,0.0,0.0,0.0,0.0,0.0,0.0,0.0,0.0,0.0,0.0,0.0,0.0,0.0,0.0,0.0,0.0,0.0,0.0,0.0,0.0,0.0,0.0,0.0,0.0,0.0,0.0,0.0,0.0,0.0,0.0,0.0,0.0,0.0,0.0,0.0,0.0,0.0,0.0,0.0,0.0,0.0,0.0,0.0,0.0,0.0,0.0,0.0,0.0,0.0,0.0,0.0,-1.1406,-1.3888,-1.4226,-1.4641,-1.5507,-1.6484,-1.6508,-1.4936,0.0,0.0,0.0,0.0,0.0,0.0,0.0,0.0,0.0,0.0,0.0,0.0,0.0,0.0,0.0,0.0,0.0,0.0,0.0,0.0,0.0,0.0,0.0,0.0,0.0,0.0,0.0,0.0,0.0,0.0,0.0,0.0,0.0,0.0,0.0,0.0,0.0,0.0,0.0,0.0,0.0,0.0,0.0,0.0,0.0,0.0,0.0,0.0,0.0,0.0,0.0,0.0,0.0,0.0,0.0,0.0,0.0,0.0,0.0,0.0,0.0,0.0,0.0,0.0,0.0,0.0,0.0,0.0,0.0,0.0,0.0,0.0,0.0,0.0,0.0,0.0,0.0,0.0,0.0,0.0,0.0,0.0,0.0,0.0,0.0,0.0,0.0,0.0,0.0,0.0,0.0,0.0,0.0,0.0,0.0,0.0,0.0,0.0,0.0,0.0,0.0,0.0,0.0,-1.1361,-1.3163,-1.464,-1.5003,-1.5739,-1.7159,-1.7873,-1.7645,-1.606,-1.6552,0.0,0.0,0.0,0.0,0.0,0.0,0.0,0.0,0.0,0.0,0.0,0.0,0.0,0.0,0.0,0.0,0.0,0.0,0.0,0.0,0.0,0.0,0.0,0.0,0.0,0.0,0.0,0.0,0.0,0.0,0.0,0.0,0.0,0.0,0.0,0.0,0.0,0.0,0.0,0.0,0.0,0.0,0.0,0.0,0.0,0.0,0.0,0.0,0.0,0.0,0.0,0.0,0.0,0.0,0.0,0.0,0.0,0.0,0.0,0.0,0.0,0.0,0.0,0.0,0.0,0.0,0.0,0.0,0.0,0.0,0.0,0.0,0.0,0.0,0.0,0.0,0.0,0.0,0.0,0.0,0.0,0.0,0.0,0.0,0.0,0.0,0.0,0.0,0.0,0.0,0.0,0.0,0.0,0.0,0.0,0.0,0.0,0.0,0.0,0.0,0.0,0.0,-1.2733,-1.4412,-1.5081,-1.5718,-1.675,-1.837,-1.9007,-1.8594,-1.6883,-1.6759,0.0,0.0,0.0,0.0,0.0,0.0,0.0,0.0,0.0,0.0,0.0,0.0,0.0,0.0,0.0,0.0,0.0,0.0,0.0,0.0,0.0,0.0,0.0,0.0,0.0,0.0,0.0,0.0,0.0,0.0,0.0,0.0,0.0,0.0,0.0,0.0,0.0,0.0,0.0,0.0,0.0,0.0,0.0,0.0,0.0,0.0,0.0,0.0,0.0,0.0,0.0,0.0,0.0,0.0,0.0,0.0,0.0,0.0,0.0,0.0,0.0,0.0,0.0,0.0,0.0,0.0,0.0,0.0,0.0,0.0,0.0,0.0,0.0,0.0,0.0,0.0,0.0,0.0,0.0,0.0,0.0,0.0,0.0,0.0,0.0,0.0,0.0,0.0,0.0,0.0,0.0,0.0,0.0,0.0,0.0,0.0,0.0,0.0,0.0,0.0,0.0,0.0,-1.2579,-1.42,-1.4858,-1.5993,-1.7124,-1.7929,-1.8816,-1.8374,-1.629,-1.6185,0.0,0.0,0.0,0.0,0.0,0.0,0.0,0.0,0.0,0.0,0.0,0.0,0.0,0.0,0.0,0.0,0.0,0.0,0.0,0.0,0.0,0.0,0.0,0.0,0.0,0.0,0.0,0.0,0.0,0.0,0.0,0.0,0.0,0.0,0.0,0.0,0.0,0.0,0.0,0.0,0.0,0.0,0.0,0.0,0.0,0.0,0.0,0.0,0.0,0.0,0.0,0.0,0.0,0.0,0.0,0.0,0.0,0.0,0.0,0.0,0.0,0.0,0.0,0.0,0.0,0.0,0.0,0.0,0.0,0.0,0.0,0.0,0.0,0.0,0.0,0.0,0.0,0.0,0.0,0.0,0.0,0.0,0.0,0.0,0.0,0.0,0.0,0.0,0.0,0.0,0.0,0.0,0.0,0.0,0.0,0.0,0.0,0.0,0.0,0.0,0.0,0.0,-1.3824,-1.5727,0.0,-1.7407,-1.8467,-1.925,-2.0149,-1.9607,-1.7128,0.0,0.0,0.0,0.0,0.0,0.0,0.0,0.0,0.0,0.0,0.0,0.0,0.0,0.0,0.0,0.0,0.0,0.0,0.0,0.0,0.0,0.0,0.0,0.0,0.0,0.0,0.0,0.0,0.0,0.0,0.0,0.0,0.0,0.0,0.0,0.0,0.0,0.0,0.0,0.0,0.0,0.0,0.0,0.0,0.0,0.0,0.0,0.0,0.0,0.0,0.0,0.0,0.0,0.0,0.0,0.0,0.0,0.0,0.0,0.0,0.0,0.0,0.0,0.0,0.0,0.0,0.0,0.0,0.0,0.0,0.0,0.0,0.0,0.0,0.0,0.0,0.0,0.0,0.0,0.0,0.0,0.0,0.0,0.0,0.0,0.0,0.0,0.0,0.0,0.0,0.0,0.0,0.0,0.0,0.0,0.0,0.0,0.0,0.0,0.0,0.0,0.0,-1.2109,-1.4872,-1.7009,0.0,-1.8498,-1.9516,-2.0175,-2.0992,-2.0253,-1.747,0.0,0.0,0.0,0.0,0.0,0.0,0.0,0.0,0.0,0.0,0.0,0.0,0.0,0.0,0.0,0.0,0.0,0.0,0.0,0.0,0.0,0.0,0.0,0.0,0.0,0.0,0.0,0.0,0.0,0.0,0.0,0.0,0.0,0.0,0.0,0.0,0.0,0.0,0.0,0.0,0.0,0.0,0.0,0.0,0.0,0.0,0.0,0.0,0.0,0.0,0.0,0.0,0.0,0.0,0.0,0.0,0.0,0.0,0.0,0.0,0.0,0.0,0.0,0.0,0.0,0.0,0.0,0.0,0.0,0.0,0.0,0.0,0.0,0.0,0.0,0.0,0.0,0.0,0.0,0.0,0.0,0.0,0.0,0.0,0.0,0.0,0.0,0.0,0.0,0.0,0.0,0.0,0.0,0.0,0.0,0.0,0.0,0.0,0.0,0.0,0.0,0.0,-1.2416,-1.5644,-1.7984,-1.7723,-1.9129,-2.0246,-2.0447,-2.1246,-2.0264,0.0,0.0,0.0,0.0,0.0,0.0,0.0,0.0,0.0,0.0,0.0,0.0,0.0,0.0,0.0,0.0,0.0,0.0,0.0,0.0,0.0,0.0,0.0,0.0,0.0,0.0,0.0,0.0,0.0,0.0,0.0,0.0,0.0,0.0,0.0,0.0,0.0,0.0,0.0,0.0,0.0,0.0,0.0,0.0,0.0,0.0,0.0,0.0,0.0,0.0,0.0,0.0,0.0,0.0,0.0,0.0,0.0,0.0,0.0,0.0,0.0,0.0,0.0,0.0,0.0,0.0,0.0,0.0,0.0,0.0,0.0,0.0,0.0,0.0,0.0,0.0,0.0,0.0,0.0,0.0,0.0,0.0,0.0,0.0,0.0,0.0,0.0,0.0,0.0,0.0,0.0,0.0,0.0,0.0,0.0,0.0,0.0,0.0,0.0,0.0,0.0,0.0,0.0,-1.3876,-1.7267,-1.9514,-1.9171,-2.005,-2.0739,-2.0837,-2.1391,-2.0477,-1.7508,0.0,0.0,0.0,0.0,0.0,0.0,0.0,0.0,0.0,0.0,0.0,0.0,0.0,0.0,0.0,0.0,0.0,0.0,0.0,0.0,0.0,0.0,0.0,0.0,0.0,0.0,0.0,0.0,0.0,0.0,0.0,0.0,0.0,0.0,0.0,0.0,0.0,0.0,0.0,0.0,0.0,0.0,0.0,0.0,0.0,0.0,0.0,0.0,0.0,0.0,0.0,0.0,0.0,0.0,0.0,0.0,0.0,0.0,0.0,0.0,0.0,0.0,0.0,0.0,0.0,0.0,0.0,0.0,0.0,0.0,0.0,0.0,0.0,0.0,0.0,0.0,0.0,0.0,0.0,0.0,0.0,0.0,0.0,0.0,0.0,0.0,0.0,0.0,0.0,0.0,0.0,0.0,0.0,0.0,0.0,0.0,0.0,0.0,0.0,0.0,0.0,0.0,-1.478,-1.7873,-2.0149,-2.0149,-2.0775,-2.1186,-2.1275,-2.1722,-2.0969,-1.8699,0.0,0.0,0.0,0.0,0.0,0.0,0.0,0.0,0.0,0.0,0.0,0.0,0.0,0.0,0.0,0.0,0.0,0.0,0.0,0.0,0.0,0.0,0.0,0.0,0.0,0.0,0.0,0.0,0.0,0.0,0.0,0.0,0.0,0.0,0.0,0.0,0.0,0.0,0.0,0.0,0.0,0.0,0.0,0.0,0.0,0.0,0.0,0.0,0.0,0.0,0.0,0.0,0.0,0.0,0.0,0.0,0.0,0.0,0.0,0.0,0.0,0.0,0.0,0.0,0.0,0.0,0.0,0.0,0.0,0.0,0.0,0.0,0.0,0.0,0.0,0.0,0.0,0.0,0.0,0.0,0.0,0.0,0.0,0.0,0.0,0.0,0.0,0.0,0.0,0.0,0.0,0.0,0.0,0.0,0.0,0.0,0.0,0.0,0.0,0.0,0.0,0.0,-1.5266,-1.7992,-2.0202,-2.0833,-2.1166,-2.1482,-2.1651,-2.2087,-2.1731,-2.0213,0.0,0.0,0.0,0.0,0.0,0.0,0.0,0.0,0.0,0.0,0.0,0.0,0.0,0.0,0.0,0.0,0.0,0.0,0.0,0.0,0.0,0.0,0.0,0.0,0.0,0.0,0.0,0.0,0.0,0.0,0.0,0.0,0.0,0.0,0.0,0.0,0.0,0.0,0.0,0.0,0.0,0.0,0.0,0.0,0.0,0.0,0.0,0.0,0.0,0.0,0.0,0.0,0.0,0.0,0.0,0.0,0.0,0.0,0.0,0.0,-0.7898,0.0,0.0,0.0,0.0,0.0,0.0,0.0,0.0,0.0,0.0,0.0,0.0,0.0,0.0,0.0,0.0,0.0,0.0,0.0,0.0,0.0,0.0,0.0,0.0,0.0,0.0,0.0,0.0,0.0,0.0,0.0,0.0,0.0,0.0,0.0,0.0,0.0,0.0,0.0,0.0,0.0,-1.6359,-1.9462,-2.1523,-2.1266,-2.1516,-2.1651,-2.1741,-2.2008,-2.156,-2.0055,-1.9832,0.0,0.0,0.0,0.0,0.0,0.0,0.0,0.0,0.0,0.0,0.0,0.0,0.0,0.0,0.0,0.0,0.0,0.0,0.0,0.0,0.0,0.0,0.0,0.0,0.0,0.0,0.0,0.0,0.0,0.0,0.0,0.0,0.0,0.0,0.0,0.0,0.0,0.0,0.0,0.0,0.0,0.0,0.0,0.0,0.0,0.0,0.0,0.0,0.0,0.0,0.0,0.0,0.0,0.0,0.0,0.0,0.0,0.0,0.0,0.0,-0.8501,0.0,0.0,0.0,0.0,0.0,0.0,0.0,0.0,0.0,0.0,0.0,0.0,0.0,0.0,0.0,0.0,0.0,0.0,0.0,0.0,0.0,0.0,0.0,0.0,0.0,0.0,0.0,0.0,0.0,0.0,0.0,0.0,0.0,0.0,0.0,0.0,0.0,0.0,0.0,0.0,-1.6838,-1.9642,-2.1553,-2.1571,-2.1651,-2.1658,-2.1553,-2.1886,-2.1693,-2.0695,-2.0169,0.0,0.0,0.0,0.0,0.0,0.0,0.0,0.0,0.0,0.0,0.0,0.0,0.0,0.0,0.0,0.0,0.0,0.0,0.0,0.0,0.0,0.0,0.0,0.0,0.0,0.0,0.0,0.0,0.0,0.0,0.0,0.0,0.0,0.0,0.0,0.0,0.0,0.0,0.0,0.0,0.0,0.0,0.0,0.0,0.0,0.0,0.0,0.0,0.0,0.0,0.0,0.0,0.0,-0.3379,-0.4177,-0.6338,-0.7208,-0.7701,-0.8028,-0.933,-0.9786,-0.9556,-0.9119,0.0,0.0,0.0,0.0,0.0,0.0,0.0,0.0,0.0,0.0,0.0,0.0,0.0,0.0,0.0,0.0,0.0,0.0,0.0,0.0,0.0,0.0,0.0,0.0,-1.2533,-1.2548,0.0,0.0,0.0,0.0,0.0,0.0,0.0,0.0,0.0,0.0,0.0,0.0,-1.7081,-1.9352,-2.106,-2.1432,-2.152,-2.1471,-2.1312,-2.1788,-2.1899,-2.1563,-2.0682,-1.9885,0.0,0.0,0.0,0.0,0.0,0.0,0.0,0.0,0.0,0.0,0.0,0.0,0.0,0.0,0.0,0.0,0.0,0.0,0.0,0.0,0.0,0.0,0.0,0.0,0.0,0.0,0.0,0.0,0.0,0.0,0.0,0.0,0.0082,0.0335,0.0,0.0,0.0,0.0,0.0,0.0,0.0,0.0,0.0,0.0,0.0,0.0,0.0,-0.0179,-0.0178,-0.019,-0.0782,-0.205,-0.2868,-0.4325,-0.6204,-0.7812,-0.8845,-0.9492,-0.9749,0.0,-0.9579,-0.9512,0.0,0.0,0.0,0.0,0.0,0.0,0.0,0.0,0.0,0.0,0.0,0.0,0.0,0.0,0.0,0.0,0.0,0.0,0.0,0.0,0.0,0.0,-1.4606,-1.4676,-1.4129,-1.4135,0.0,-1.3599,-1.2064,-1.4645,-1.4603,0.0,0.0,0.0,0.0,0.0,0.0,0.0,-1.7368,-1.9277,-2.0592,-2.0677,-2.0837,-2.0894,-2.0847,-2.1434,-2.1841,-2.1783,-2.1977,-2.1399,-1.9917,-2.0897,0.0,0.0,0.0,0.0,0.0,0.0,0.0,0.0,0.0,0.0,0.0,0.0,0.0,0.0,0.0,0.0,0.0,0.0,0.0,0.0,0.0,0.0,0.0,0.0,0.0,0.0,0.0,0.0,0.0,0.0078,0.0249,0.0174,0.0172,0.025,0.0,0.0,0.0,0.0,0.0,0.0,0.0,0.0,0.0,0.0,0.0,0.0,0.0,0.0,-0.0925,-0.2669,-0.3151,-0.4687,-0.6976,-0.8046,-0.8941,-0.9529,-0.9727,-0.9836,-0.9729,-0.9729,-0.9427,-0.9003,0.0,0.0,0.0,0.0,-0.9555,-1.0037,-1.0437,-1.1219,0.0,-1.2945,0.0,0.0,0.0,0.0,0.0,0.0,0.0,0.0,0.0,0.0,0.0,-1.5246,-1.5165,-1.5443,-1.7022,-1.5511,-1.4532,0.0,-1.6469,-1.5624,-1.5455,0.0,0.0,0.0,0.0,-1.7734,-1.8128,-1.9549,-2.0512,-2.068,-2.0764,-2.0838,-2.0869,-2.1106,-2.1325,-2.1322,-2.1471,-2.1281,-2.0642,-2.1252,-2.0862,0.0,0.0,0.0,0.0,0.0,0.0,0.0,0.0,0.0,0.0,0.0,0.0,0.0,0.0,0.0,0.0,0.0,0.0,0.0,0.0,0.0,0.0,0.0,0.0,0.0,0.0,0.0,0.0,0.0158,0.0253,0.018,0.0357,0.0434,0.0,0.0,0.0,0.0,0.0,0.0,0.0,0.0,0.0,0.0,0.0,0.0,0.0,-0.0102,-0.126,-0.3456,-0.3562,-0.5039,-0.7802,-0.8216,-0.8762,-0.9332,-0.9541,-0.975,-0.9739,-0.9705,-0.947,-0.8944,-0.9264,-0.8726,-0.7818,-0.8835,-0.9287,-0.9455,-1.0093,-1.1346,-1.2668,-1.3216,0.0,-1.4289,-1.4229,0.0,0.0,0.0,0.0,-1.3428,-1.3911,-1.4337,-1.483,-1.5391,-1.5624,-1.606,-1.7169,-1.6624,-1.6484,0.0,-1.8224,-1.7131,-1.6599,0.0,0.0,0.0,0.0,-1.8229,-1.8522,-1.9531,-2.0292,-2.0448,-2.0613,-2.0746,-2.0774,-2.0915,-2.1017,-2.1081,-2.1138,-2.1205,-2.1359,-2.1502,-2.1246,-2.0639,0.0,0.0,0.0,0.0,0.0,0.0,0.0,0.0,0.0,0.0,0.0,0.0,0.0,0.0,0.0,0.0,0.0,0.0,0.0,0.0,0.0,0.0,0.0,0.0,0.0,0.0,0.0,0.0,0.0,0.0734,0.0776,0.0,0.0,0.0,0.0,0.0,0.0,0.0,0.0,0.0,0.0,0.0,0.0,0.0,0.0,-0.0202,-0.1415,-0.363,-0.3833,-0.5491,-0.8265,-0.8265,-0.8656,-0.9436,-0.9436,-0.9436,-0.9436,-0.9429,-0.9201,-0.8949,-0.9156,-0.8913,-0.8332,-0.8247,-0.8184,-0.8247,-0.8186,-0.9192,-1.0751,-1.2012,-1.3179,-1.4008,-1.3447,-1.3039,0.0,0.0,-1.3801,-1.4462,-1.4422,-1.5046,-1.5705,-1.5471,-1.5418,-1.5698,-1.6618,-1.6529,-1.7073,0.0,-1.948,-1.8766,-1.9391,0.0,-1.8786,-1.7301,-1.7685,-1.8128,-1.8155,-1.9025,-1.9622,-1.9622,-2.0096,-2.0391,-2.0605,-2.1003,-2.1312,-2.1436,-2.1655,-2.1731,-2.1807,-2.1807,-2.1776,-2.1704,-2.0907,0.0,0.0,0.0,0.0,0.0,0.0,0.0,0.0,0.0,0.0,0.0,0.0,0.0,0.0,0.0,0.0,0.0,0.0,0.0,0.0,0.0,0.0,0.0,0.0,0.0,0.0,0.0,0.0,0.1773,0.1711,0.0,0.0834,0.0833,0.055,0.0,0.0,0.0,0.0,0.0,0.0,0.0,0.0,-0.0101,-0.0303,-0.0303,-0.1613,-0.3822,-0.3924,-0.5445,-0.8116,-0.8116,-0.8449,-0.9004,-0.8805,-0.8805,-0.8704,-0.8606,-0.8618,-0.8877,-0.8874,-0.8794,-0.8557,-0.8376,-0.8545,-0.8841,-0.8781,-1.0184,-1.2145,-1.3986,-1.4784,-1.4988,-1.4867,-1.4816,-1.475,-1.4863,-1.4983,-1.5084,-1.5084,-1.5177,-1.5244,-1.5144,-1.5117,-1.5618,-1.7247,-1.7347,-1.7722,-2.0209,-1.9767,-1.908,-1.891,-1.9446,-1.9291,-1.781,-1.835,-1.8957,-1.9198,-1.9606,-1.9872,-2.0029,-2.0186,-2.042,-2.0741,-2.0896,-2.1128,-2.1502,-2.1589,-2.1655,-2.1807,-2.1807,-2.1807,-2.1807,-2.147,-2.0684,0.0,0.0,0.0,0.0,0.0,0.0,0.0,0.0,0.0,0.0,0.0,0.0,0.0,0.0,0.0,0.0,0.0,0.0,0.0,0.0,0.0,0.0,0.0,0.0,0.0,0.0,0.2617,0.2804,0.2373,0.1812,0.1145,0.1144,0.0953,0.0286,0.0198,0.0101,0.0101,0.0,0.0,0.0,0.0,-0.0101,-0.0404,-0.0505,-0.1714,-0.4123,-0.4225,-0.5627,-0.8038,-0.8038,-0.8181,-0.838,-0.8287,-0.8178,-0.8091,-0.7997,-0.8285,-0.8706,-0.8554,-0.8494,-0.848,-0.8275,-0.8535,-0.9031,-0.9912,-1.1272,-1.3017,-1.5153,-1.567,-1.549,-1.5591,-1.5618,-1.5538,-1.5538,-1.5398,-1.5251,-1.5251,-1.511,-1.4937,-1.4836,-1.4816,-1.53,-1.6978,-1.7175,-1.7644,-1.9712,-1.9904,-1.9468,-1.8552,-1.9033,-1.9052,-1.7539,-1.7865,-1.8304,-1.8609,-1.9051,-1.9393,-1.963,-2.0082,-2.0498,-2.0906,-2.05,-2.0581,-2.1482,-2.1073,-2.1172,-2.1787,-2.1352,-2.1188,-2.1324,-2.1021,-2.052,-1.9943,0.0,0.0,0.0,0.0,0.0,0.0,0.0,0.0,0.0,0.0,0.0,0.0,0.0,0.0,0.0,0.0,0.0,0.0,0.0,0.0,0.0,0.0,0.0,0.364,0.3411,0.3324,0.3608,0.2924,0.2221,0.1718,0.1817,0.1614,0.0909,0.0505,0.0404,0.0404,0.0101,0.0,0.0,0.0,-0.0101,-0.0403,-0.0707,-0.2016,-0.442,-0.4722,-0.5927,-0.8038,-0.8038,-0.7882,-0.7631,-0.7916,-0.7879,-0.7634,-0.7923,-0.813,-0.8248,-0.8102,-0.8045,-0.8045,-0.8045,-0.8137,-0.8817,-1.1336,-1.2415,-1.3006,-1.5134,-1.5631,-1.5411,-1.5411,-1.5211,-1.4977,-1.4977,-1.4963,-1.495,-1.495,-1.4943,-1.4863,-1.4576,-1.4509,-1.4754,-1.5831,-1.6063,-1.6731,-1.8873,-1.9991,-2.0166,-1.8639,-1.8489,-1.8133,-1.6754,-1.6379,0.0,-1.626,-1.7522,-1.8356,-1.8356,-1.9635,-2.0605,-2.0906,-1.977,-1.9715,-2.142,-2.0339,-2.0339,-2.1745,-2.0452,-1.9948,-2.0565,-1.9489,-1.9802,-2.1435,0.0,0.0,0.0,0.0,0.0,0.0,0.0,0.0,0.0,0.0,0.0,0.0,0.0,0.0,0.0,0.0,0.0,0.0,0.0,0.0,0.0,0.0,0.6461,0.472,0.4512,0.4408,0.392,0.3397,0.2725,0.2221,0.1917,0.1412,0.0808,0.0404,0.0101,0.0101,0.0194,0.0191,0.0,0.0096,-0.0096,-0.0678,-0.1492,-0.2918,-0.4722,-0.5529,-0.6634,-0.8038,-0.8038,-0.7994,-0.7923,-0.8004,-0.7994,-0.7926,-0.8007,-0.8065,-0.8109,-0.818,-0.8201,-0.8194,-0.8194,-0.8361,-0.891,-1.1164,-1.2188,-1.2847,-1.4846,-1.5605,-1.5712,-1.5712,-1.5504,-1.5277,-1.5277,-1.497,-1.4643,-1.4643,-1.4489,-1.4309,-1.4222,-1.445,-1.5077,-1.6593,-1.7249,-1.7987,-1.9866,-2.0644,-2.0777,-2.0098,-1.9735,-1.9535,-1.9487,-1.9132,0.0,-1.928,-1.9739,-1.9963,-1.9963,-1.9448,-1.9561,-2.0827,-1.976,-1.9777,-2.142,-2.1305,-2.1414,-2.1787,-2.1445,-2.1238,-2.146,-2.1112,-2.1162,0.0,0.0,0.0,0.0,0.0,0.0,0.0,0.0,0.0,0.0,0.0,0.0,0.0,0.0,0.0,0.0,0.0,0.0,0.0,0.0,0.0,0.0,0.7472,0.7791,0.6372,0.6211,0.6005,0.5109,0.4332,0.353,0.2623,0.232,0.1817,0.1212,0.0707,0.0404,0.0303,0.0294,0.0287,0.0191,0.0383,0.0192,-0.0477,-0.1188,-0.2516,-0.452,-0.5327,-0.6534,-0.8038,-0.8038,-0.7974,0.0,-0.7987,-0.797,-0.7865,-0.7987,-0.7942,0.0,0.0,0.0,0.0,0.0,-0.8652,-0.904,-1.0779,-1.1873,-1.2764,-1.4396,-1.5308,-1.5805,-1.5685,-1.5271,-1.4823,-1.4696,-1.4148,-1.3654,-1.3908,-1.3848,-1.3781,-1.4028,-1.465,-1.5696,-1.722,-1.7873,-1.8784,-2.072,-2.0959,0.0,-2.1048,-2.0335,-1.9644,-1.9177,-1.8883,-1.874,-1.8955,-1.9424,-1.9756,-1.9756,-1.9496,-1.9687,-2.0417,-1.9495,0.0,0.0,0.0,-2.0655,-2.0655,-2.0689,0.0,0.0,0.0,-2.0902,-2.1598,0.0,0.0,0.0,-1.9835,-1.8533,0.0,0.0,0.0,0.0,0.0,0.0,0.0,0.0,0.0,0.0,0.0,0.0,0.0,0.0,0.0,0.0,0.8113,0.8594,0.8262,0.8223,0.7723,0.6523,0.5432,0.4332,0.3127,0.2825,0.2423,0.1717,0.1415,0.1111,0.0808,0.0,0.0,0.0,0.0,0.0591,0.0095,-0.0396,-0.1713,-0.4016,-0.4622,-0.6029,-0.8038,-0.8038,-0.7896,-0.7662,-0.7926,-0.7892,-0.7668,-0.7831,-0.7832,-0.772,-0.8403,-0.8524,-0.8432,-0.8783,-0.8921,-0.9156,-1.0508,0.0,0.0,-1.3975,-1.5038,-1.5785,-1.5524,-1.4856,-1.4128,-1.3868,-1.3166,-1.2632,-1.3166,-1.3307,-1.3514,-1.4122,-1.5289,-1.6487,-1.7857,-1.8402,-1.9235,-2.1333,-2.0989,-2.0689,-2.1515,-2.0617,-1.9229,-1.7715,-1.7417,-1.7352,-1.7168,-1.8154,-1.8838,-1.8789,0.0,0.0,-1.9938,-1.9085,-1.9019,-2.0148,-1.9563,-1.9163,-1.9153,-1.9322,-1.9044,-1.8197,-1.9087,-2.031,-2.1666,-2.2469,-2.3144,-2.3609,-2.1361,-2.0063,0.0,0.0,0.0,0.0,0.0,0.0,0.0,0.0,0.0,0.0,0.0,0.0,0.0,0.0,0.0,0.7919,0.8717,0.9244,0.9292,0.9327,0.8524,0.6623,0.5432,0.4734,0.4433,0.3226,0.2422,0.222,0.1615,0.1212,0.1111,0.1063,0.0851,0.0763,0.0946,0.0851,0.0286,-0.0989,-0.2515,-0.4016,0.0,0.0,-0.8038,-0.8038,-0.8007,-0.7957,-0.8014,-0.8007,-0.7861,-0.772,-0.7773,-0.7858,-0.7761,-0.7806,-0.8039,-0.8062,-0.834,-0.8913,-1.0736,-1.1892,-1.2758,-1.4608,-1.545,-1.5818,-1.5765,-1.5304,0.0,-1.4723,-1.4242,-1.3768,-1.3888,-1.4158,-1.4587,-1.5418,-1.6347,-1.7479,-1.914,-1.9487,-1.973,-2.0984,-2.0903,-2.0619,-2.0931,-2.0968,-2.0807,-2.0481,-2.0123,-1.9899,-1.9824,-2.0039,-2.0134,-1.9875,-1.9118,-1.8952,-1.972,-1.8783,-1.8738,-2.0257,-2.0247,-2.0186,-2.029,-2.0603,-2.0898,-2.0994,-2.2149,-2.2888,-2.3156,-2.439,-2.4933,-2.4743,-2.2474,-2.1155,0.0,0.0,0.0,0.0,0.0,0.0,0.0,0.0,0.0,0.0,0.0,0.6563,0.6893,0.0,0.7816,0.8158,0.8613,0.8978,0.9429,0.949,0.8928,0.7412,0.6226,0.5432,0.4834,0.3629,0.2714,0.2389,0.1907,0.1508,0.1395,0.1272,0.106,0.1049,0.1252,0.106,0.0381,-0.0495,-0.1712,-0.3217,-0.4824,-0.6132,-0.7238,-0.7739,-0.8038,-0.8038,-0.8038,-0.8038,-0.8035,-0.7763,-0.7644,-0.76,-0.7621,-0.7921,-0.8355,-0.8337,-0.8551,-0.9001,-0.9999,-1.1247,-1.2675,-1.375,-1.4842,-1.5798,-1.5658,-1.5104,-1.4489,-1.4342,-1.3768,-1.3267,-1.3567,-1.377,-1.4037,-1.4739,-1.6126,-1.7406,-1.8154,-1.9326,-2.0362,-2.0764,-2.0883,-2.0959,-2.1024,-2.0853,-2.0781,-2.1021,-2.0896,-2.0653,-2.0264,-2.0397,-2.0315,-1.9807,-1.9453,-1.9284,-1.9525,-1.9127,-1.9185,-2.0012,-2.0073,-2.0131,-2.0222,-2.0224,-2.0803,-2.1956,-2.2685,-2.3467,-2.4139,-2.505,-2.5493,-2.5573,-2.3515,-2.2464,0.0,0.0,0.0,0.0,0.0,0.0,0.0,0.8732,0.8256,0.8223,0.7944,0.7765,0.7707,0.7877,0.8168,0.8508,0.848,0.8609,0.9218,0.9303,0.908,0.8357,0.7307,0.6326,0.5231,0.4119,0.3191,0.2552,0.2182,0.1983,0.1661,0.1387,0.1283,0.1248,0.1484,0.119,0.0482,0.0199,-0.0807,-0.2416,-0.3807,-0.5101,-0.6399,-0.727,-0.7753,-0.7953,-0.7953,-0.7855,-0.7845,-0.7624,-0.7397,-0.7069,-0.7601,-0.8066,-0.8502,-0.8733,-0.8909,-0.9189,-0.9558,-1.0973,-1.2598,-1.3132,-1.4435,-1.5705,-1.5471,-1.4823,-1.4122,-1.3881,-1.3206,-1.2755,-1.3245,-1.3294,-1.341,-1.4069,-1.5615,-1.6992,-1.7133,-1.8834,-2.027,-2.0363,-2.0581,-2.0737,-2.0823,-2.0347,-2.0157,-2.0698,-2.0708,-2.0444,-1.9919,-2.0178,-2.0156,-1.9416,-1.9941,-2.005,-1.9331,-1.9545,-1.9699,-1.9728,-1.9677,-1.9653,-1.9723,-1.9555,-2.0171,-2.1817,-2.223,-2.2996,-2.4189,-2.4582,-2.501,-2.5448,-2.3873,-2.3289,0.695,0.6338,0.677,0.7882,0.8384,0.8694,0.0,0.9584,0.9942,0.9864,1.0387,1.0645,1.0313,1.0238,1.0067,0.9433,0.9024,0.8844,0.9092,0.9125,0.919,0.9264,0.8434,0.7422,0.6323,0.5152,0.4123,0.3041,0.2517,0.2207,0.2202,0.1726,0.1449,0.1566,0.1573,0.1288,0.0803,0.0302,-0.0807,-0.2415,-0.3069,-0.4415,-0.6271,-0.6356,-0.6881,-0.7648,-0.7648,-0.755,-0.7259,-0.7058,-0.6692,-0.648,-0.7103,-0.7385,-0.7364,-0.8332,-0.8808,-0.9372,-1.1206,-1.2178,-1.2786,-1.4766,-1.5464,-1.5438,-1.5404,-1.4963,-1.4469,-1.4429,-1.4058,-1.3756,-1.3824,-1.4013,-1.4484,-1.5304,-1.598,-1.6858,-1.8276,-1.848,-1.8608,-1.9424,-1.9384,-1.9203,-1.9364,-1.9429,-1.9566,-2.0222,-1.9984,-1.9736,-1.9614,-1.9948,-2.0043,-1.9723,-1.99,-1.9928,-1.9589,-1.9745,-1.9711,-1.9364,-1.923,-1.9233,-1.9274,-1.9622,-2.0167,-2.0749,-2.1544,-2.2032,-2.2215,-2.2736,-2.3033,-2.31,-2.26,-2.3018,0.9386,1.0693,1.2308,1.2165,1.2628,1.3182,1.3376,1.2969,1.2548,1.2392,1.2165,1.1958,1.1798,1.1122,1.0517,0.0,0.9672,0.9136,0.9686,0.9762,0.9877,1.0183,0.9418,0.8336,0.6852,0.5487,0.4304,0.3432,0.2798,0.2372,0.2252,0.1896,0.1628,0.1545,0.1545,0.126,0.0586,0.0391,-0.0391,-0.1756,-0.2609,-0.3751,-0.5286,-0.5908,-0.6738,-0.76,-0.7406,-0.7263,-0.7095,-0.7095,-0.7008,-0.6879,-0.7503,-0.7819,-0.7848,-0.8388,-0.8723,-0.9042,-1.0066,-1.1346,-1.267,-1.3443,-1.4546,-1.5331,-1.499,-1.4716,-1.4449,-1.4108,-1.3917,-1.3845,-1.3748,-1.3789,-1.4012,-1.4372,-1.533,-1.6344,-1.6857,-1.792,-1.8844,-1.9123,-1.9203,-1.932,-1.9402,-1.9108,-1.8965,-1.9213,-1.9383,-1.9354,-1.9027,-1.9485,-1.9792,-1.98,-1.9769,-1.9828,-1.99,-1.9944,-1.9813,-1.9208,-1.9341,-1.9215,-1.8834,-1.9505,-2.0195,-2.0855,-2.1988,-2.2562,-2.2562,-2.2973,-2.3146,-2.2994,-2.2469,-2.2663,1.304,1.5079,1.6898,1.6673,1.6893,1.724,1.7346,1.6234,1.5025,1.4768,1.4169,1.3659,1.3322,1.2419,1.1733,1.1555,1.0538,0.9883,1.0181,1.0267,1.0249,1.0438,0.9841,0.8935,0.7327,0.5849,0.471,0.3988,0.309,0.2423,0.2205,0.1955,0.1787,0.1513,0.1513,0.1138,0.0286,0.0286,-0.0286,-0.1335,-0.2083,-0.3206,-0.4522,-0.5895,-0.6817,-0.7382,-0.7191,-0.6948,-0.6859,-0.6947,-0.7062,-0.7054,-0.7584,-0.7937,-0.8113,-0.8384,-0.8553,-0.8783,-0.9376,-1.0529,-1.2019,-1.2521,-1.36,-1.4695,-1.4462,-1.4342,-1.4175,-1.3667,-1.3541,-1.3586,-1.3512,-1.346,-1.3529,-1.3536,-1.4647,-1.5658,-1.5675,-1.7241,-1.8666,-1.8735,-1.9013,-1.9241,-1.9241,-1.8823,-1.8457,-1.8536,-1.873,-1.8818,-1.8566,-1.9022,-1.9515,-1.9834,-1.9736,-1.9813,-2.0074,-2.0009,-1.9747,-1.9274,-1.9274,-1.9085,-1.8586,-1.9364,-2.0155,-2.0949,-2.2144,-2.2826,-2.3032,-2.3322,-2.3322,-2.3147,-2.2491,-2.2451,1.8567,1.875,1.8671,2.0358,1.9998,1.9292,1.9725,1.8276,1.687,1.6698,1.6632,1.6229,1.522,1.492,1.4302,1.2571,1.1878,1.1278,1.0381,1.0304,1.0066,0.9504,0.9456,0.9011,0.0,0.6471,0.5378,0.4678,0.3356,0.2428,0.2246,0.1977,0.1724,0.1481,0.1482,0.1029,0.0,0.0,-0.0477,-0.1525,-0.1496,-0.2496,-0.4332,-0.6227,-0.6979,-0.6808,-0.6808,-0.6624,-0.6435,-0.6177,-0.6441,-0.6795,-0.6792,-0.7234,-0.7852,-0.8113,-0.8384,-0.8798,-1.014,-1.0519,-1.079,-1.3055,-1.3532,-1.3248,-1.3933,-1.3901,-1.3607,-1.3307,-1.3155,-1.3064,-1.3293,-1.3294,-1.3287,-1.3433,-1.4057,-1.4816,-1.5534,-1.6455,-1.7373,-1.8154,-1.8299,-1.8309,-1.8309,-1.8173,-1.8095,-1.8289,-1.8173,-1.8105,-1.8299,-1.8761,-1.9285,-1.9868,-1.9868,-1.9944,-2.0085,-1.9813,-1.9615,-1.9605,-1.8942,-1.8482,-1.8502,-1.9257,-1.9965,-2.0492,-2.1661,-2.2488,-2.3032,-2.301,-2.301,-2.3021,-2.2542,-2.2392,1.9136,2.0662,2.2726,2.2322,2.2888,2.3429,2.3006,2.1649,2.036,1.9801,1.847,1.7175,1.6693,1.5441,1.4446,1.4258,1.2551,1.1504,1.2391,1.0987,1.0194,1.131,1.0251,0.0,0.0,0.0,0.0,0.492,0.4357,0.3669,0.2424,0.2154,0.198,0.1722,0.1541,0.1182,0.0733,0.0458,-0.0092,-0.0824,-0.1909,-0.3076,-0.4332,-0.5557,-0.6432,-0.6795,-0.6612,-0.652,-0.6343,-0.6169,-0.6257,-0.6523,-0.6704,-0.7001,-0.726,-0.7516,-0.7707,-0.8021,-0.9714,-1.0662,-1.1205,-1.2499,-1.32,-1.3458,-1.3512,-1.3434,-1.3293,-1.2986,-1.3056,-1.3154,-1.3028,-1.3198,-1.3419,-1.3499,-1.4049,-1.4816,-1.5525,-1.6446,-1.7354,-1.8269,-1.8337,-1.8337,-1.8414,-1.8212,-1.8076,-1.8269,-1.8347,-1.8347,-1.8414,-1.8808,-1.9142,-1.933,-1.9539,-1.9605,-1.9473,-1.9671,-1.9539,-1.8875,-1.9075,-1.8875,-1.8212,-1.8972,-1.9475,-1.9703,-2.1413,-2.1955,-2.1385,-2.251,-2.2435,-2.1385,-2.1231,-2.1078,2.1547,2.3437,2.5831,2.5349,2.5921,2.648,2.5906,2.448,2.2982,2.223,2.039,1.8768,1.8101,1.6628,1.5551,1.5707,1.4164,1.323,1.3951,1.251,1.1658,1.2182,1.1163,1.0556,0.0,0.0,0.0,0.5679,0.5086,0.423,0.2601,0.2254,0.2015,0.1793,0.1525,0.1256,0.0987,0.0628,0.0179,-0.0538,-0.2151,-0.3401,-0.4289,-0.5181,-0.594,-0.656,-0.6395,-0.6174,-0.5966,-0.5889,-0.6075,-0.6291,-0.6381,-0.6675,-0.7013,-0.7098,-0.7206,-0.7666,-0.9256,-1.0149,-1.0662,-1.1928,-1.2628,-1.2936,-1.3054,-1.3046,-1.2979,-1.2824,-1.2811,-1.2924,-1.2994,-1.3114,-1.3273,-1.347,-1.4049,-1.4816,-1.5525,-1.6376,-1.7285,-1.8269,-1.8279,-1.8269,-1.8414,-1.8279,-1.8212,-1.8269,-1.8539,-1.8674,-1.8617,-1.8808,-1.9075,-1.9142,-1.9341,-1.9407,-1.9208,-1.9407,-1.9208,-1.8549,-1.8808,-1.8741,-1.8008,-1.8947,-1.9648,-1.9879,-2.164,-2.2395,-2.203,-2.3061,-2.3077,-2.2274,-2.2274,-2.2113,2.5535,2.6886,2.7984,2.922,2.8978,2.8442,2.8419,2.6721,2.4861,2.3911,2.2465,2.0841,1.9312,1.8176,1.7279,1.6745,1.643,1.5915,1.495,1.467,1.3933,1.2138,1.1963,1.1581,0.0,0.0,0.0,0.707,0.0,0.4146,0.2695,0.2205,0.1936,0.1791,0.1525,0.1166,0.0718,0.0627,0.0179,-0.0716,-0.2146,-0.3301,-0.4275,-0.4987,-0.5575,-0.605,-0.6046,-0.5772,-0.5214,-0.5445,-0.5729,-0.6037,-0.5791,-0.6201,-0.7015,-0.6771,-0.6933,-0.7529,-0.8677,-0.9045,-0.9337,-1.1348,-1.1915,-1.1903,-1.2575,-1.2802,-1.2741,-1.2587,-1.238,-1.2301,-1.3027,-1.2956,-1.2891,-1.3346,-1.4049,-1.4752,-1.5455,-1.6237,-1.707,-1.8056,-1.8144,-1.8076,-1.8269,-1.8414,-1.8405,-1.8337,-1.8741,-1.9008,-1.8808,-1.8808,-1.8942,-1.9218,-1.9285,-1.9285,-1.9274,-1.9008,-1.8741,-1.8482,-1.8212,-1.8008,-1.8008,-1.9253,-2.026,-2.0806,-2.2101,-2.3275,-2.4265,-2.4288,-2.4563,-2.4969,-2.5075,-2.5087,2.4446,2.6845,2.9739,2.9157,2.9749,3.0344,2.983,2.895,2.7729,2.5993,2.3328,2.0752,1.8686,1.7095,1.6335,1.6967,1.5936,1.5206,1.5565,1.4329,1.3114,1.2311,1.2196,1.2051,1.1793,1.1647,0.0,0.0,0.7275,0.582,0.4189,0.2974,0.2294,0.2063,0.1794,0.1346,0.0718,0.0,-0.0613,-0.1226,-0.1552,-0.2222,-0.3241,-0.3835,-0.4489,-0.5199,-0.5602,-0.5664,-0.5328,-0.539,-0.5482,-0.5538,-0.5538,-0.5644,-0.5885,-0.5804,-0.5984,-0.6448,-0.7729,-0.8825,-0.9874,-1.105,-1.176,-1.2211,-1.2364,-1.2418,-1.2425,-1.2274,-1.2439,-1.2746,-1.2806,-1.3028,-1.3317,-1.3477,-1.363,-1.3985,-1.4752,-1.5029,-1.5658,-1.7335,-1.8046,-1.8347,-1.8337,-1.8212,-1.8144,-1.8269,-1.8405,-1.8607,-1.8741,-1.8942,-1.9008,-1.8942,-1.9075,-1.9008,-1.8751,-1.9008,-1.8942,-1.8405,-1.8539,-1.8414,-1.8008,-1.8337,-1.8741,-1.9173,-2.0128,-2.0621,-2.0648,-2.1549,-2.1565,-2.0886,-2.1525,-2.1659,2.66,2.8201,3.0207,2.9219,2.9859,3.0418,2.9231,2.8821,2.8034,2.5711,2.3274,2.0974,1.9238,1.7519,1.6716,1.7798,1.6914,1.615,1.6482,1.5384,1.4174,1.3202,1.2815,1.2661,1.2757,1.2566,1.1688,0.0,0.802,0.621,0.4656,0.3253,0.2372,0.2092,0.1919,0.1396,0.0698,0.0,-0.06,-0.1028,-0.1186,-0.2018,-0.3355,-0.3524,-0.4148,-0.5214,0.0,-0.5363,-0.5143,-0.5246,-0.526,-0.5214,-0.5292,-0.5414,-0.5592,-0.5668,-0.5855,-0.6177,-0.7011,-0.8069,-0.9319,-1.0713,-1.1684,-1.2298,-1.2378,-1.2357,-1.2249,-1.2497,-1.2564,-1.2657,-1.2978,-1.3179,-1.3316,-1.3462,-1.3492,-1.3775,-1.4824,-1.5163,-1.572,-1.755,-1.8259,-1.8539,-1.8337,-1.8279,-1.8212,-1.8269,-1.8337,-1.8472,-1.8741,-1.8808,-1.8808,-1.8674,-1.8741,-1.8741,-1.8414,-1.8674,-1.8674,-1.8212,-1.8337,-1.8337,-1.8008,-1.8269,-1.8582,-1.8744,-1.9562,-1.9918,-1.9969,-2.0713,-2.0801,-2.0366,-2.1025,-2.1305,2.9641,2.9838,2.9892,2.9219,2.9602,2.9681,2.7962,2.774,2.7181,2.4611,2.2752,2.1327,2.0254,1.8633,1.7767,1.8761,1.8373,1.7728,1.7047,1.6679,1.5869,1.4118,1.3604,1.3326,1.3418,1.3218,1.2487,1.1152,0.8498,0.6343,0.4806,0.3291,0.2291,0.2014,0.1765,0.1346,0.0674,0.0252,-0.0168,-0.0587,-0.1003,-0.2084,-0.3824,-0.3494,-0.4153,-0.5497,0.0,0.0,-0.4874,-0.508,-0.5105,-0.5015,-0.5168,-0.5401,-0.5556,-0.5786,-0.6022,-0.6338,-0.6563,-0.7322,-0.8613,-1.0351,-1.1477,-1.2157,-1.2452,-1.2342,-1.225,-1.2919,-1.2692,-1.2491,-1.3222,-1.325,-1.3148,-1.3426,-1.3492,-1.3848,-1.5108,-1.5737,-1.6498,-1.8056,-1.8607,-1.8674,-1.8405,-1.8414,-1.8414,-1.8269,-1.8347,-1.8482,-1.8674,-1.8607,-1.8549,-1.8549,-1.8549,-1.8482,-1.8405,-1.8337,-1.8269,-1.8076,-1.8008,-1.8008,-1.8008,-1.8596,-1.8844,-1.8844,-1.9507,-2.004,-2.0517,-2.0582,-2.082,-2.122,-2.1625,-2.184,2.851,2.9007,2.9616,2.8603,2.9319,2.9933,2.8749,2.8746,2.8269,2.561,2.3008,2.0976,2.016,1.877,1.7879,1.8278,1.8309,1.7529,1.53,1.5784,1.5585,1.3447,1.3371,1.3629,1.4114,1.2593,0.0,0.0,0.9774,0.7837,0.6056,0.387,0.2409,0.2017,0.1597,0.1093,0.059,0.0248,-0.0246,-0.0655,-0.0723,-0.143,-0.2777,-0.3173,-0.3868,-0.4621,-0.5132,0.0,-0.4988,-0.5029,-0.5034,-0.5018,-0.5015,-0.5168,-0.5321,-0.5398,-0.5789,-0.6338,-0.6563,-0.7778,-0.9367,-0.9744,-1.0501,-1.1409,-1.215,-1.2338,-1.233,-1.2499,-1.262,-1.2848,-1.3062,-1.325,-1.3426,-1.3484,-1.3492,-1.3564,-1.3848,-1.5108,-1.6576,-1.7638,-1.8192,-1.8549,-1.8482,-1.8279,-1.8076,-1.8076,-1.8076,-1.8076,-1.8144,-1.8347,-1.8617,-1.8942,-1.8875,-1.8741,-1.8741,-1.8741,-1.8607,-1.8269,-1.8269,-1.8134,-1.8008,-1.8144,-1.8134,-1.8134,-1.8269,-1.8434,-1.8514,-1.8874,-1.8873,-1.866,-1.9088,-1.9584,2.8228,2.9109,3.036,2.8929,2.9334,2.9299,2.6312,2.5937,2.5482,2.2795,2.0751,1.9441,1.9483,1.8236,1.7568,1.8828,1.8577,1.803,1.7417,1.6999,1.624,1.4928,1.4191,1.3724,1.3615,1.2576,1.1767,1.1391,0.9532,0.7812,0.6337,0.38,0.2273,0.1949,0.1624,0.1218,0.0569,0.0402,0.008,-0.032,-0.0316,-0.0942,-0.2196,-0.2741,-0.3444,-0.4462,-0.4935,0.0,-0.4838,-0.4966,-0.4942,-0.4838,-0.5041,-0.5246,-0.5321,-0.5712,-0.6025,-0.6338,-0.6795,-0.7783,-0.9064,-0.9593,-1.0651,-1.1855,-1.2305,-1.2264,-1.2071,-1.2453,-1.2446,-1.2439,-1.282,-1.3078,-1.3273,-1.3419,-1.3775,-1.4258,-1.4832,-1.5886,-1.7001,-1.8046,-1.8405,-1.8482,-1.8414,-1.8269,-1.8144,-1.8008,-1.8008,-1.8008,-1.8134,-1.8212,-1.8279,-1.8539,-1.8405,-1.8405,-1.8405,-1.8405,-1.8347,-1.8144,-1.8134,-1.8076,-1.8008,-1.7803,-1.7813,-1.8008,-1.7598,-1.7529,-1.7745,-1.7729,-1.7605,-1.7474,-1.7884,-1.8216,2.8763,2.9551,3.0592,2.9224,2.9239,2.8499,2.4195,2.3517,2.3009,2.0303,1.8715,1.8085,1.8988,1.7679,1.711,1.9169,1.8427,1.8004,1.9173,1.777,1.6537,1.6358,1.4938,1.3859,1.355,1.2928,0.0,1.1563,0.9447,0.0,0.6207,0.3906,0.2588,0.2276,0.1885,0.1414,0.0786,0.0786,0.055,0.0157,0.0157,-0.0549,-0.1803,-0.2181,-0.3027,-0.4269,-0.4637,0.0,0.0,-0.4849,-0.4828,-0.4748,-0.5039,-0.522,-0.5398,-0.5867,-0.618,-0.6412,-0.6876,-0.7783,-0.8836,-0.9669,-1.087,-1.2077,-1.2452,-1.221,-1.1997,-1.2458,-1.2283,-1.2076,-1.2764,-1.29,-1.3119,-1.363,-1.4194,-1.5029,-1.6228,-1.6862,-1.7491,-1.8596,-1.8607,-1.8414,-1.8337,-1.819,-1.8103,-1.7998,-1.7939,-1.7968,-1.8192,-1.8076,-1.8008,-1.8008,-1.8008,-1.8076,-1.8076,-1.8076,-1.8076,-1.8008,-1.8008,-1.8008,-1.8008,-1.7745,-1.7735,-1.8008,-1.7392,-1.7185,-1.7608,-1.7185,-1.7047,-1.7056,-1.7291,-1.7367,3.0391,3.0053,2.8942,2.8899,2.8743,2.7927,2.5227,2.4831,2.4232,2.144,1.9025,1.7873,1.9392,1.7614,1.6514,1.8227,1.7082,1.6297,1.7286,1.5891,1.5087,1.599,1.479,1.4186,1.5094,1.3647,1.2879,1.338,1.0662,0.0,0.6005,0.4844,0.399,0.3519,0.2663,0.1962,0.1493,0.1335,0.1021,0.055,0.055,-0.0078,-0.1253,-0.1685,-0.2498,-0.3699,-0.4135,0.0,0.0,-0.4704,-0.4745,-0.4737,-0.4798,-0.5067,-0.5321,-0.5398,-0.5864,-0.6563,-0.6641,-0.8003,-0.9739,-0.9895,-1.0501,-1.1335,-1.2077,-1.2285,-1.2265,-1.2519,-1.2579,-1.2565,-1.2813,-1.3046,-1.3411,-1.4322,-1.4681,-1.5321,-1.6922,-1.7335,-1.7687,-1.8596,-1.8539,-1.8337,-1.8269,-1.7829,-1.7568,-1.7959,-1.7686,-1.7578,-1.7959,-1.8008,-1.8008,-1.8008,-1.8134,-1.8269,-1.8269,-1.8269,-1.8202,-1.8008,-1.8008,-1.8008,-1.8008,-1.794,-1.794,-1.8008,-1.7608,-1.7608,-1.794,-1.7608,-1.747,-1.747,-1.7084,-1.6963,2.7187,2.8439,2.9678,2.9296,2.8973,2.7845,2.4399,2.3535,2.2655,1.9687,1.7605,1.6527,1.7213,1.6028,1.5445,1.6974,1.6384,1.6459,1.8633,1.7697,1.6962,1.7558,1.6481,1.5366,0.0,0.0,1.2625,1.186,0.0,0.0,0.8238,0.5811,0.4219,0.3752,0.2741,0.204,0.1572,0.1493,0.1335,0.1021,0.1021,0.0628,-0.0157,-0.0917,-0.1811,-0.2864,-0.3601,0.0,0.0,-0.4624,-0.4635,-0.4474,-0.4811,-0.4972,-0.5168,-0.5628,-0.6089,-0.6402,-0.6945,-0.8012,-0.9221,-0.9744,-1.0426,-1.126,-1.2077,-1.2231,-1.215,-1.2231,-1.2077,-1.2003,-1.2599,-1.2977,-1.3341,-1.361,-1.3669,-1.4058,-1.5655,-1.5921,-1.6327,-1.7735,-1.7819,-1.7626,-1.7626,-1.7357,-1.7234,-1.7402,-1.7154,-1.7051,-1.7217,-1.7246,-1.7344,-1.7607,-1.7929,-1.8144,-1.8144,-1.8144,-1.8076,-1.8008,-1.8008,-1.8008,-1.8008,-1.7813,-1.7803,-1.8008,-1.7461,-1.7185,-1.7323,-1.7185,-1.7047,-1.676,-1.6621,-1.6551,2.5691,2.7866,3.0255,2.9761,2.871,2.6924,2.3552,2.2197,2.0783,1.7925,1.6362,1.5483,1.5498,1.4513,1.4228,1.5882,1.5736,1.6299,1.887,1.8287,1.7783,1.833,0.0,1.596,1.4841,1.3965,1.2858,1.1283,0.0,0.0,0.9781,0.7006,0.5065,0.4373,0.3287,0.251,0.1963,0.1806,0.1649,0.1492,0.1335,0.1165,0.076,-0.0076,-0.0821,-0.1608,-0.284,0.0,0.0,-0.448,-0.4632,-0.4442,-0.4817,-0.5063,-0.5249,-0.5783,-0.6167,-0.6553,-0.7399,-0.8313,-0.914,-0.9889,-1.0689,-1.142,-1.1926,-1.2032,-1.1952,-1.1952,-1.1674,-1.1465,-1.2188,-1.2607,-1.287,-1.314,-1.3165,-1.3576,-1.5127,-1.5386,-1.578,-1.7211,-1.7294,-1.7169,-1.7169,-1.6924,-1.676,-1.6888,-1.6684,-1.6582,-1.6655,-1.6665,-1.6855,-1.7158,-1.7461,-1.7734,-1.7988,-1.8008,-1.8008,-1.8008,-1.8008,-1.8008,-1.8008,-1.7676,-1.7608,-1.7872,-1.7107,-1.6769,-1.6908,-1.6769,-1.6551,-1.6272,-1.6272,-1.6272,2.7486,2.9049,3.0129,3.017,2.7664,2.4746,2.3158,2.1197,1.9077,1.6705,1.5726,1.5181,1.479,1.3335,1.2915,1.4971,1.5029,1.5371,1.7011,1.6612,1.6581,1.7887,1.6237,1.5562,1.6879,1.5606,1.4005,1.249,0.0,0.0,1.0048,0.8562,0.7149,0.5922,0.4688,0.368,0.2826,0.2196,0.1882,0.1882,0.1492,0.1285,0.1265,0.0888,0.0509,0.0,0.0,0.0,0.0,-0.4097,-0.4726,-0.4734,-0.4787,-0.5138,-0.5559,-0.5637,-0.6173,-0.7015,-0.7778,-0.8912,-1.0007,-1.0513,-1.1228,-1.1817,-1.1523,-1.1637,-1.187,-1.187,-1.1523,-1.1306,-1.1642,-1.171,-1.2044,-1.34,-1.3784,-1.4345,-1.5972,-1.63,-1.6563,-1.7346,-1.7222,-1.6971,-1.6971,-1.6481,-1.6221,-1.667,-1.6357,-1.623,-1.668,-1.6665,-1.6665,-1.6738,-1.6685,-1.709,-1.7939,-1.8008,-1.8008,-1.8008,-1.8008,-1.8008,-1.8008,-1.7676,-1.747,-1.7539,-1.67,-1.6482,-1.6908,-1.6482,-1.6272,-1.6272,-1.6272,-1.614,2.4402,2.5163,2.583,2.5983,2.4411,2.2469,2.0959,1.9636,1.8142,1.5909,1.4607,1.3714,1.3204,1.2577,1.2673,1.4345,1.4742,1.5754,1.8468,1.8115,1.7816,1.8513,1.6665,1.5227,0.0,0.0,1.3085,0.0,0.0,0.0,1.0634,0.9647,0.8212,0.6153,0.4921,0.3837,0.2826,0.2589,0.2275,0.1882,0.1803,0.1586,0.1264,0.1036,0.0508,0.0,0.0,0.0,0.0,-0.3666,-0.421,-0.4745,-0.4879,-0.506,-0.5249,-0.5783,-0.6106,-0.64,-0.7226,-0.7955,-0.8687,-0.9406,-1.0161,-1.0849,-1.1243,-1.149,-1.1494,-1.1355,-1.1365,-1.1436,-1.1635,-1.1748,-1.1984,-1.2959,-1.3219,-1.365,-1.506,-1.5441,-1.582,-1.6563,-1.6553,-1.6365,-1.6365,-1.6078,-1.5871,-1.6009,-1.5772,-1.5674,-1.5811,-1.583,-1.5937,-1.625,-1.6279,-1.6504,-1.709,-1.7412,-1.7578,-1.7578,-1.7852,-1.8008,-1.8008,-1.7872,-1.7872,-1.7872,-1.7598,-1.7392,-1.7323,-1.7392,-1.7323,-1.7116,-1.7116,-1.683,2.181,2.2949,2.3912,2.3786,2.2403,2.0743,1.9395,1.8063,1.6624,1.4679,1.4078,1.3545,1.2471,1.2522,1.2849,1.331,1.4575,1.6031,1.7423,1.7726,1.7649,1.6991,1.5873,0.0,0.0,1.3639,0.0,0.0,0.0,0.0,1.0877,1.0137,0.8904,0.7073,0.577,0.446,0.3215,0.2982,0.2668,0.2117,0.196,0.1736,0.1405,0.1122,0.0737,0.0,0.0,0.0,0.0,-0.3249,-0.3944,-0.442,-0.4751,-0.5024,-0.5248,-0.572,-0.602,-0.6236,-0.7045,-0.769,-0.8207,-0.9162,-0.9826,-1.0294,-1.0762,-1.1109,-1.1236,-1.0995,-1.1102,-1.1302,-1.1427,-1.1486,-1.166,-1.2348,-1.25,-1.2948,-1.4255,-1.4688,-1.5108,-1.6077,-1.6124,-1.6009,-1.5951,-1.572,-1.5604,-1.5604,-1.5478,-1.541,-1.541,-1.541,-1.5518,-1.5791,-1.582,-1.5928,-1.6211,-1.6787,-1.7139,-1.7139,-1.7383,-1.7598,-1.7764,-1.7639,-1.7639,-1.7803,-1.7666,-1.7461,-1.7254,-1.7461,-1.7461,-1.7254,-1.7254,-1.7038,0.0,2.1811,2.3478,2.2828,2.1089,1.9196,1.814,1.6463,0.0,1.3396,1.4079,1.4351,1.2565,1.3103,1.3455,1.2146,1.4644,1.6213,1.4655,1.6039,0.0,0.0,1.4319,0.0,1.4048,1.4066,0.0,0.0,0.0,0.0,1.0899,1.0201,0.9432,0.8433,0.6977,0.5443,0.383,0.3359,0.2882,0.2478,0.2101,0.1799,0.1599,0.1134,0.1205,0.0,0.0,0.0,0.0,-0.2888,-0.3744,-0.3891,-0.4561,-0.5047,-0.5405,-0.5349,-0.5724,-0.6429,-0.7203,-0.7694,-0.8284,-0.9495,-1.012,-1.0238,-1.0047,-1.0548,-1.1026,-1.0698,-1.0681,-1.0807,-1.1059,-1.1059,-1.1185,-1.1622,-1.1864,-1.2343,-1.3786,-1.4204,-1.4688,-1.5874,-1.5961,-1.5856,-1.5672,-1.5536,-1.541,-1.541,-1.541,-1.541,-1.541,-1.541,-1.541,-1.541,-1.5352,-1.5352,-1.5352,-1.613,-1.6626,-1.6626,-1.6655,-1.685,-1.7259,-1.693,-1.693,-1.7413,-1.7097,-1.6978,-1.6978,-1.6978,-1.6978,-1.6968,-1.6968,-1.683,1.6254,0.0,1.7837,1.779,1.6474,1.5186,0.0,1.4044,1.33,1.4082,1.4171,1.3946,1.3408,1.4501,1.4912,1.3292,1.4913,1.6213,1.5722,1.6346,0.0,1.3186,1.4514,1.4879,1.2953,1.3424,0.0,0.0,0.0,1.1253,1.1267,1.012,0.9132,0.8374,0.6907,0.551,0.4187,0.3442,0.2665,0.1966,0.1876,0.1674,0.1362,0.1509,0.1333,0.0,0.0,0.0,-0.1252,-0.2226,-0.3047,-0.3722,-0.4446,-0.477,-0.491,-0.5168,-0.5303,-0.5418,-0.5901,-0.637,-0.7052,-0.8511,-0.9572,-1.0238,-1.0047,-1.0155,-1.0322,-1.0321,-1.0371,-1.0491,-1.0996,-1.0996,-1.124,-1.272,-1.3191,-1.3657,-1.5001,-1.5468,-1.57,-1.5904,-1.5856,-1.5672,-1.5478,-1.541,-1.5362,-1.5264,-1.5303,-1.541,-1.541,-1.541,-1.541,-1.541,-1.5196,-1.5088,-1.5088,-1.5797,-1.6159,-1.5852,-1.6147,-1.6249,-1.6178,-1.6113,-1.6234,-1.6557,-1.7086,-1.7461,-1.7735,-1.7735,-1.7657,-1.751,-1.751,-1.7373,1.4193,1.4755,1.5549,1.5985,1.5063,1.4081,1.4319,1.3545,1.3059,1.4032,1.3971,1.3729,1.3696,1.4294,1.4508,1.3592,1.4387,1.5424,0.0,0.0,1.5119,1.3438,1.3574,1.3348,0.0,0.0,0.0,0.0,0.0,1.1501,1.1376,1.044,0.959,0.8898,0.7182,0.5755,0.452,0.3516,0.2677,0.2041,0.1908,0.1664,0.145,0.1507,0.1343,0.0,0.0,0.0,-0.0537,-0.1806,-0.259,-0.311,-0.4183,-0.464,-0.4632,-0.4789,-0.4861,-0.4931,-0.5138,-0.6081,-0.7312,-0.8484,-0.946,-1.011,-0.9862,-0.9798,-0.9862,-1.018,-1.0428,-1.0618,-1.087,-1.0933,-1.1178,-1.2166,-1.2765,-1.3364,-1.451,-1.5177,-1.5594,-1.5856,-1.5904,-1.5778,-1.5468,-1.5478,-1.5488,-1.5313,-1.5362,-1.541,-1.541,-1.541,-1.541,-1.541,-1.5245,-1.5196,-1.5196,-1.5576,-1.5583,-1.5102,-1.544,-1.5656,-1.5729,-1.5864,-1.6116,-1.6468,-1.6911,-1.733,-1.7725,-1.8038,-1.8205,-1.8192,-1.8509,-1.8499,1.3154,1.3803,1.4738,1.5645,1.493,1.41,1.4524,1.3731,1.3138,1.3917,1.4058,1.3978,1.3978,1.4244,1.4226,1.3559,0.0,0.0,1.6271,1.5425,1.4397,1.3762,1.2645,0.0,0.0,0.0,0.0,0.0,0.0,1.1732,1.1306,1.0826,1.026,0.9528,0.7532,0.6007,0.5042,0.3685,0.2745,0.2261,0.1976,0.1689,0.1532,0.1373,0.1351,0.0,0.0,0.0,0.0448,-0.1494,-0.2244,-0.238,-0.386,-0.4444,-0.4431,-0.4403,-0.4564,-0.4831,-0.496,-0.6268,-0.8027,-0.8689,-0.9402,-0.9919,-0.967,-0.9548,-0.967,-1.018,-1.0555,-1.0744,-1.08,-1.0933,-1.1185,-1.1303,-1.1802,-1.2597,-1.3476,-1.4273,-1.501,-1.5556,-1.5836,-1.5826,-1.542,-1.5488,-1.5556,-1.542,-1.541,-1.541,-1.541,-1.541,-1.541,-1.541,-1.5352,-1.5362,-1.5362,-1.5294,-1.5059,-1.4529,-1.4784,-1.5131,-1.5411,-1.5722,-1.6117,-1.6495,-1.6573,-1.685,-1.7285,-1.7839,-1.8226,-1.8405,-1.8968,-1.9099,1.304,1.2988,1.3119,1.4552,1.3799,1.297,1.3964,1.2917,1.2483,1.4974,1.5459,1.5369,1.5257,1.7337,1.7781,1.3856,0.0,1.4779,0.0,0.0,1.4381,1.3195,0.0,0.0,0.0,0.0,0.0,0.0,0.0,1.1512,1.1091,1.0514,0.9927,0.9456,0.7323,0.6112,0.608,0.393,0.2507,0.1814,0.1766,0.1559,0.1193,0.1505,0.1436,0.0,0.0,0.087,0.0365,-0.1404,-0.2157,-0.2245,-0.3755,-0.4325,-0.4392,-0.464,-0.4764,-0.4897,-0.562,-0.6728,-0.7837,-0.8166,-0.9017,-0.9868,-0.9926,-0.9919,-0.9983,-1.0434,-1.0561,-1.0681,-1.0744,-1.1052,-1.1428,-1.2151,-1.2389,-1.2642,-1.3381,-1.4163,-1.4715,-1.4715,-1.5079,-1.5323,-1.5264,-1.5274,-1.5274,-1.5215,-1.5303,-1.541,-1.541,-1.541,-1.541,-1.541,-1.5196,-1.5088,-1.5088,-1.4775,-1.4588,-1.4529,-1.4784,-1.4871,-1.468,-1.5013,-1.5359,-1.5742,-1.6103,-1.645,-1.6836,-1.689,-1.6846,-1.6574,-1.6693,-1.6565,1.2485,1.2545,1.3012,1.5384,1.3852,1.2608,1.5628,1.3515,1.2042,1.6142,1.4833,1.3452,1.5196,1.5967,1.5882,1.4341,0.0,1.7063,1.5723,1.5441,1.4958,0.0,0.0,0.0,0.0,0.0,0.0,0.0,0.0,0.0,1.1025,1.0753,1.0213,0.9473,0.755,0.6557,0.6587,0.4439,0.2927,0.2086,0.1833,0.1478,0.1178,0.1419,0.1482,0.1424,0.0,0.1165,0.078,-0.0659,-0.1575,-0.2185,-0.3303,-0.3961,-0.4367,-0.4697,-0.4964,-0.5226,-0.6137,-0.6985,-0.7772,-0.8291,-0.9204,-1.0053,-0.9983,-1.0174,-1.0301,-1.0308,-1.0491,-1.0744,-1.0807,-1.0996,-1.1365,-1.2212,-1.2573,-1.3,-1.3965,-1.4638,-1.5059,-1.5001,-1.5313,-1.5508,-1.5215,-1.5332,-1.5439,-1.5313,-1.5362,-1.541,-1.541,-1.541,-1.541,-1.541,-1.5303,-1.5196,-1.5196,-1.5059,-1.4951,-1.4784,-1.4911,-1.5029,-1.5001,-1.5468,-1.5634,-1.5475,-1.5958,-1.6417,-1.6849,-1.7255,-1.7551,-1.7903,-1.8148,-1.8269,1.1756,1.1974,1.2762,1.5676,1.3984,1.2746,1.7258,1.4306,1.2009,1.6983,1.4642,1.2589,1.5515,1.4765,0.0,1.5139,1.74,1.8451,1.6672,1.61,1.545,1.4435,0.0,0.0,0.0,0.0,0.0,0.0,0.0,0.0,1.1019,1.1006,1.0533,0.9583,0.7858,0.6869,0.6892,0.4869,0.3458,0.2594,0.2081,0.17,0.1391,0.1417,0.1527,0.1729,0.1556,0.1308,0.0965,-0.0189,-0.1264,-0.2281,-0.3084,-0.3756,-0.4434,-0.4831,-0.516,-0.5554,-0.6465,-0.7181,-0.7837,-0.8415,-0.9326,-1.011,-1.0047,-1.0244,-1.0428,-1.0174,-1.0428,-1.0744,-1.0744,-1.087,-1.1178,-1.1849,-1.2274,-1.2757,-1.3768,-1.4373,-1.4805,-1.5001,-1.5371,-1.5498,-1.5147,-1.5323,-1.5371,-1.5118,-1.5245,-1.5303,-1.5235,-1.5352,-1.541,-1.541,-1.5352,-1.5303,-1.5303,-1.5235,-1.5186,-1.5079,-1.5029,-1.5088,-1.5303,-1.5806,-1.5968,-1.569,-1.614,-1.6592,-1.7005,-1.746,-1.7991,-1.8658,-1.902,-1.9321,1.093,1.1057,1.138,1.4027,1.3504,1.3431,1.7699,1.4807,1.2528,1.7049,1.6389,1.5499,1.7283,1.631,1.5606,1.6674,1.6838,1.6872,1.7041,0.0,1.5407,0.0,0.0,0.0,0.0,0.0,0.0,0.0,0.0,0.0,1.1019,1.1006,1.0604,0.9718,0.7854,0.6945,0.7052,0.493,0.3636,0.3253,0.261,0.2188,0.1873,0.1682,0.1687,0.1889,0.1676,0.1207,0.0472,-0.0601,-0.1671,-0.2753,-0.3489,-0.4159,-0.4831,-0.5229,-0.5422,-0.5683,-0.6597,-0.7251,-0.7772,-0.8355,-0.9017,-0.9612,-0.9926,-1.0047,-1.011,-1.0434,-1.0561,-1.0624,-1.0624,-1.0744,-1.087,-1.1122,-1.1052,-1.1115,-1.16,-1.2274,-1.294,-1.3761,-1.4359,-1.4775,-1.4715,-1.4775,-1.4656,-1.4369,-1.4734,-1.4961,-1.4765,-1.5118,-1.541,-1.541,-1.5196,-1.5029,-1.5029,-1.4715,-1.4824,-1.5352,-1.5137,-1.5029,-1.5029,-1.5303,-1.5796,-1.6574,-1.6631,-1.6754,-1.7022,-1.6842,-1.6761,-1.6701,-1.6633,-1.6896,1.0236,1.0701,1.1636,1.5208,1.4204,1.3317,1.7335,1.4986,1.3428,1.8533,1.637,1.3695,0.0,0.0,1.6332,1.6512,1.7071,1.7366,1.7014,1.6655,0.0,0.0,0.0,0.0,0.0,0.0,0.0,0.0,0.0,0.0,1.1114,1.1034,1.0698,0.9878,0.8184,0.735,0.7421,0.521,0.4039,0.3838,0.3055,0.2301,0.1681,0.1749,0.1749,0.1748,0.1749,0.1277,0.047,0.0067,-0.1141,-0.282,-0.3761,-0.4364,-0.4831,-0.4964,-0.5289,-0.5617,-0.5881,-0.6535,-0.7251,-0.7712,-0.8495,-0.9472,-0.9856,-1.0174,-1.0364,-1.0244,-1.0238,-1.0308,-1.0561,-1.0624,-1.08,-1.1344,-1.1337,-1.1399,-1.2128,-1.2366,-1.2679,-1.3321,-1.3734,-1.4034,-1.424,-1.43,-1.4369,-1.4189,-1.4369,-1.4547,-1.4597,-1.4893,-1.5137,-1.5137,-1.5196,-1.5245,-1.5245,-1.4961,-1.4902,-1.5137,-1.5128,-1.5196,-1.5439,-1.5884,-1.6171,-1.6228,-1.6503,-1.6662,-1.6775,-1.6662,-1.6708,-1.6922,-1.6821,-1.6933,0.9242,0.9919,1.1134,1.4917,1.3751,1.2749,1.7027,1.5262,1.4005,1.8648,1.7049,1.4628,1.4167,0.0,0.0,0.0,1.6996,1.7254,1.6954,0.0,0.0,0.0,0.0,0.0,0.0,0.0,0.0,0.0,0.0,0.0,0.0,1.1186,1.0777,1.0107,0.8453,0.7617,0.7556,0.5365,0.427,0.4199,0.333,0.2532,0.1884,0.1951,0.1884,0.1681,0.1884,0.1344,0.0269,0.0201,-0.1073,-0.3155,-0.3964,-0.4434,-0.4631,-0.4764,-0.5027,-0.5352,-0.5425,-0.6079,-0.6929,-0.7316,-0.8231,-0.9215,-0.9728,-1.0053,-1.018,-0.9926,-0.9862,-0.9926,-1.018,-1.0308,-1.0555,-1.1399,-1.1461,-1.1516,-1.2427,-1.2541,-1.2671,-1.3252,-1.3494,-1.3674,-1.3941,-1.413,-1.4189,-1.413,-1.4309,-1.4488,-1.4529,-1.4893,-1.5088,-1.5029,-1.5137,-1.5245,-1.5245,-1.502,-1.4902,-1.5137,-1.5186,-1.5303,-1.5439,-1.5941,-1.6228,-1.6228,-1.656,-1.6786,-1.6842,-1.6786,-1.6888,-1.7157,-1.6944,-1.7056,0.8017,0.8541,0.9523,1.2451,1.1802,1.1773,1.6809,1.5554,1.4127,1.6935,1.8774,1.9415,1.8051,1.7322,0.0,1.6787,1.6437,1.6273,0.0,0.0,0.0,0.0,0.0,0.0,0.0,0.0,0.0,0.0,0.0,0.0,0.0,1.1335,1.0917,1.0442,0.8597,0.7548,0.75,0.5297,0.4199,0.4196,0.3542,0.2891,0.2424,0.2288,0.2087,0.1884,0.2087,0.1277,-0.0269,-0.0469,-0.1809,-0.3825,-0.4164,-0.43,-0.4367,-0.4697,-0.4764,-0.4894,-0.5418,-0.6079,-0.6806,-0.7512,-0.8172,-0.8899,-0.9356,-0.9484,-0.9484,-0.9484,-0.9484,-0.9484,-0.9484,-0.9676,-1.0053,-1.124,-1.1115,-1.1115,-1.2266,-1.2504,-1.2757,-1.364,-1.3769,-1.383,-1.395,-1.413,-1.413,-1.401,-1.4556,-1.4911,-1.4715,-1.5118,-1.5303,-1.5029,-1.497,-1.5039,-1.5039,-1.4715,-1.4765,-1.5352,-1.5294,-1.5128,-1.5029,-1.5245,-1.5911,-1.6957,-1.7013,-1.7135,-1.739,-1.7135,-1.7034,-1.7011,-1.6662,-1.6922,0.8485,0.8849,0.9309,1.1973,1.2414,1.2535,1.3779,1.4653,1.5687,1.7422,1.797,1.7547,1.562,1.69,0.0,1.6639,1.7006,1.7559,0.0,0.0,0.0,0.0,0.0,0.0,0.0,0.0,0.0,0.0,0.0,0.0,0.0,1.1303,1.1021,1.0647,0.873,0.7979,0.8391,0.5894,0.4751,0.4944,0.4038,0.3159,0.2288,0.2288,0.2087,0.1681,0.1749,0.1277,0.0336,-0.1208,-0.2551,-0.3629,-0.41,-0.43,-0.43,-0.4434,-0.4564,-0.4758,-0.5352,-0.6009,-0.6662,-0.7712,-0.8371,-0.8899,-0.9356,-0.9484,-0.9484,-0.9484,-0.9484,-0.9548,-0.9798,-0.9734,-0.9734,-1.0301,-1.0548,-1.0737,-1.1288,-1.171,-1.2143,-1.2666,-1.3025,-1.326,-1.345,-1.3821,-1.407,-1.401,-1.4249,-1.4488,-1.4656,-1.4961,-1.5147,-1.5156,-1.5323,-1.5498,-1.5498,-1.5498,-1.5556,-1.573,-1.573,-1.5672,-1.5624,-1.573,-1.6218,-1.7257,-1.7202,-1.7368,-1.7875,-1.7809,-1.7644,-1.7424,-1.7302,-1.7413,0.8591,0.9173,0.9933,1.2594,1.2675,1.2333,1.3247,1.443,1.5975,1.8159,1.8339,1.7782,1.6588,1.7707,0.0,1.7544,1.778,0.0,0.0,0.0,0.0,0.0,0.0,0.0,0.0,0.0,0.0,0.0,0.0,0.0,0.0,1.1389,1.1049,1.069,0.9127,0.8322,0.8363,0.6316,0.5147,0.4882,0.4156,0.3291,0.2421,0.2423,0.2221,0.1817,0.1074,0.0537,0.0,-0.2079,-0.3224,-0.3763,-0.4167,-0.43,-0.43,-0.43,-0.4431,-0.4691,-0.5156,-0.5745,-0.6465,-0.7517,-0.8236,-0.8759,-0.935,-0.9484,-0.9484,-0.9484,-0.9484,-0.9548,-0.9919,-0.9734,-0.967,-1.0238,-1.0548,-1.0919,-1.1834,-1.2266,-1.2634,-1.3139,-1.3329,-1.345,-1.364,-1.4001,-1.424,-1.424,-1.4428,-1.4606,-1.4951,-1.5069,-1.5254,-1.5449,-1.5682,-1.5798,-1.5798,-1.5856,-1.5914,-1.5914,-1.6134,-1.6181,-1.5961,-1.5914,-1.6192,-1.6786,-1.6775,-1.7101,-1.7754,-1.771,-1.7754,-1.7907,-1.7786,-1.7775,0.8521,0.9461,1.0831,1.3462,1.2369,1.1473,1.4592,1.4866,1.5491,1.8924,0.0,1.9141,1.9507,1.9142,1.8875,1.9075,0.0,0.0,0.0,0.0,0.0,0.0,0.0,0.0,0.0,0.0,0.0,0.0,0.0,0.0,0.0,1.1527,1.0982,1.0811,0.9632,0.8639,0.7837,0.665,0.547,0.0,0.4023,0.3489,0.2753,0.249,0.2288,0.2018,0.0335,-0.0536,-0.0938,-0.2883,-0.3758,-0.4028,-0.4164,-0.43,-0.4367,-0.4367,-0.4431,-0.4628,-0.4827,-0.5484,-0.6338,-0.719,-0.7972,-0.8689,-0.9285,-0.9484,-0.9484,-0.9484,-0.9484,-0.9612,-0.9919,-0.9798,-0.9862,-1.0856,-1.1045,-1.1469,-1.3045,-1.3494,-1.3812,-1.441,-1.43,-1.413,-1.4267,-1.4428,-1.4588,-1.4715,-1.4902,-1.5137,-1.542,-1.542,-1.5546,-1.5856,-1.5914,-1.5914,-1.5914,-1.5914,-1.5972,-1.6029,-1.6503,-1.6662,-1.6275,-1.6124,-1.6087,-1.6134,-1.6285,-1.6708,-1.7523,-1.7368,-1.7754,-1.8501,-1.8293,-1.8293,0.8798,0.9019,0.9076,1.0352,1.0548,1.1628,1.6412,1.6367,1.6178,1.9341,1.8449,1.7499,1.8937,1.9008,1.8875,1.9075,0.0,0.0,0.0,0.0,0.0,0.0,0.0,0.0,0.0,0.0,0.0,0.0,0.0,0.0,1.2367,1.1969,1.1647,1.1317,0.9693,0.8776,0.8737,0.6719,0.5477,0.0,0.4483,0.3823,0.3092,0.249,0.1951,0.148,0.0806,0.0,-0.0873,-0.2013,-0.3019,-0.3825,-0.4028,-0.4298,-0.4697,-0.4697,-0.4697,-0.4827,-0.555,-0.6207,-0.6859,-0.7777,-0.863,-0.9285,-0.9484,-0.9484,-0.9484,-0.9484,-0.9484,-0.9606,-1.0238,-1.0358,-1.0541,-1.1524,-1.1586,-1.1586,-1.2413,-1.3442,-1.4172,-1.3683,-1.424,-1.4675,-1.4318,-1.4478,-1.4765,-1.5177,-1.5294,-1.5362,-1.5604,-1.573,-1.5788,-1.574,-1.5951,-1.6066,-1.6066,-1.6192,-1.6477,-1.6877,-1.7034,-1.7257,-1.7655,-1.7279,-1.7335,-1.7929,-1.8213,-1.8857,-1.9811,-1.9825,-1.9876,-1.994,-2.0016,-2.0118,0.8174,0.9026,0.962,1.081,1.2041,1.3605,1.609,1.6689,1.7272,1.9245,1.8614,1.8009,1.8965,1.9008,1.9008,0.0,0.0,0.0,0.0,0.0,0.0,0.0,0.0,0.0,0.0,0.0,0.0,0.0,0.0,1.29,1.2412,1.202,1.1704,1.1297,1.0021,0.9041,0.8398,0.6911,0.5606,0.4686,0.4356,0.3692,0.2825,0.2555,0.2217,0.1746,0.0739,-0.0067,-0.0738,-0.208,-0.3021,-0.3694,-0.3894,-0.4231,-0.4564,-0.4694,-0.4761,-0.4897,-0.5289,-0.6075,-0.699,-0.7512,-0.8495,-0.9414,-0.9484,-0.9484,-0.9548,-0.967,-0.9734,-0.9926,-1.0611,-1.0737,-1.1045,-1.2143,-1.2258,-1.2312,-1.3235,-1.4085,-1.4688,-1.4628,-1.4893,-1.498,-1.4616,-1.4725,-1.502,-1.5478,-1.5478,-1.5468,-1.5768,-1.5836,-1.5951,-1.6029,-1.6134,-1.6239,-1.6239,-1.6316,-1.6545,-1.6786,-1.7324,-1.7644,-1.7644,-1.8244,-1.8459,-1.8244,-1.8429,-1.8963,-1.9734,-1.9991,-2.0295,-2.061,-2.0858,-2.1055,0.7177,0.8864,1.0631,1.2041,1.3643,1.49,1.5104,1.6235,1.7561,1.8536,1.8931,1.9075,1.9075,1.9075,1.9075,0.0,0.0,0.0,0.0,0.0,0.0,0.0,0.0,0.0,0.0,0.0,0.0,0.0,0.0,1.296,1.2447,1.2049,1.1632,1.1254,1.0338,0.9175,0.7807,0.6911,0.5672,0.4028,0.3961,0.3429,0.2626,0.2688,0.2485,0.2013,0.047,-0.0403,-0.0804,-0.2417,-0.3295,-0.3498,-0.383,-0.4097,-0.4434,-0.4561,-0.4761,-0.4897,-0.496,-0.5749,-0.6793,-0.7116,-0.8096,-0.921,-0.9414,-0.9548,-0.967,-0.9919,-1.011,-1.0364,-1.1059,-1.124,-1.1483,-1.2642,-1.3009,-1.3295,-1.4296,-1.4787,-1.5216,-1.5758,-1.5546,-1.5215,-1.5088,-1.5088,-1.5264,-1.5672,-1.5594,-1.5584,-1.5941,-1.5999,-1.6114,-1.6374,-1.6384,-1.6384,-1.6384,-1.6384,-1.6488,-1.6591,-1.7501,-1.7863,-1.7534,-1.8886,-1.9214,-1.8178,-1.8352,-1.8715,-1.927,-1.9709,-2.0232,-2.0957,-2.1313,-2.1568,0.6137,0.793,0.9669,1.0593,1.0982,1.1996,1.4985,1.5089,1.5092,0.0,1.8307,1.9075,1.9075,1.9075,1.9075,0.0,0.0,0.0,0.0,0.0,0.0,0.0,0.0,0.0,0.0,0.0,0.0,0.0,1.3534,1.3132,1.2755,1.2539,1.2228,1.1747,1.0135,0.8907,0.812,0.6519,0.5219,0.4233,0.3766,0.3498,0.3364,0.2889,0.2082,0.0941,0.0269,-0.0604,-0.1542,-0.2417,-0.3025,-0.3498,-0.3565,-0.403,-0.4764,-0.4764,-0.5027,-0.5362,-0.5422,-0.5815,-0.6338,-0.7125,-0.7902,-0.8748,-0.935,-0.967,-0.9919,-0.9989,-1.0421,-1.0989,-1.1553,-1.1926,-1.2359,-1.3208,-1.3923,-1.4401,-1.4264,-1.4932,-1.5488,-1.5128,-1.5371,-1.5556,-1.5362,-1.5488,-1.5672,-1.5826,-1.5874,-1.5941,-1.6316,-1.6316,-1.6374,-1.6384,-1.6384,-1.6384,-1.6384,-1.6384,-1.6705,-1.7501,-1.7667,-1.805,-1.8709,-1.8987,-1.9198,-1.9384,-1.9759,-2.0271,-2.0908,-2.097,-2.1166,-2.1506,-2.1664,-2.1793,0.6131,0.716,0.8324,1.0609,1.0661,1.1085,1.4478,1.4547,1.4384,1.6273,1.7198,1.7745,1.7833,1.7901,0.0,0.0,0.0,0.0,0.0,0.0,0.0,0.0,0.0,0.0,0.0,0.0,0.0,0.0,1.3416,1.3094,1.2727,1.2515,1.2243,1.1802,1.0192,0.9035,0.8388,0.6461,0.5024,0.4028,0.3696,0.3429,0.3226,0.269,0.2083,0.1343,0.0403,-0.0537,-0.1477,-0.235,-0.2889,-0.3228,-0.3431,-0.3897,-0.4558,-0.4628,-0.496,-0.5428,-0.5491,-0.6079,-0.6863,-0.7256,-0.8296,-0.9396,-0.967,-1.0047,-1.0364,-1.0555,-1.0863,-1.124,-1.1677,-1.212,-1.2736,-1.3683,-1.4043,-1.441,-1.5235,-1.5778,-1.5961,-1.5536,-1.5652,-1.5768,-1.57,-1.5768,-1.5941,-1.6343,-1.64,-1.6467,-1.6591,-1.6591,-1.6545,-1.6441,-1.6384,-1.6488,-1.6591,-1.674,-1.7112,-1.7667,-1.8159,-1.8548,-1.8869,-1.9592,-2.0055,-2.0169,-2.0105,-2.0359,-2.0871,-2.1215,-2.1568,-2.1841,-2.2137,-2.2356,0.5552,0.6108,0.6851,0.9702,0.968,0.9816,1.2991,0.0,1.3249,0.0,1.5739,1.6018,1.6237,1.6585,0.0,0.0,0.0,0.0,0.0,0.0,0.0,0.0,0.0,0.0,0.0,0.0,0.0,0.0,1.3375,1.3147,1.2744,1.249,1.2243,1.1934,1.0262,0.9105,0.8586,0.6334,0.4758,0.3825,0.3627,0.336,0.3023,0.2488,0.1949,0.1475,0.0336,-0.0672,-0.1614,-0.2418,-0.282,-0.3023,-0.3295,-0.3761,-0.4287,-0.4489,-0.4894,-0.5428,-0.5428,-0.6083,-0.706,-0.7451,-0.849,-0.9658,-1.0047,-1.0491,-1.087,-1.1122,-1.1428,-1.1802,-1.1988,-1.2428,-1.2989,-1.3683,-1.3803,-1.4231,-1.5778,-1.6259,-1.6374,-1.6171,-1.6104,-1.6161,-1.6218,-1.6218,-1.64,-1.6864,-1.692,-1.6864,-1.6807,-1.6874,-1.6807,-1.6637,-1.6705,-1.6864,-1.7134,-1.7324,-1.7534,-1.7875,-1.8483,-1.8869,-1.8815,-1.9888,-2.0497,-2.0459,-2.0383,-2.0584,-2.0957,-2.1506,-2.1902,-2.2184,-2.2509,-2.2768,0.3504,0.4308,0.5296,0.6606,0.6748,0.7214,0.0,0.0,1.0673,1.2663,1.366,1.4274,1.4489,1.5824,0.0,0.0,0.0,0.0,0.0,0.0,0.0,0.0,0.0,0.0,0.0,0.0,0.0,0.0,1.3649,1.3329,1.2989,1.2674,1.2428,1.2305,1.0135,0.8918,0.8709,0.6129,0.4495,0.3825,0.3758,0.3558,0.3159,0.249,0.1612,0.0536,-0.0201,-0.121,-0.2356,-0.2621,-0.282,-0.3023,-0.3159,-0.3692,-0.4287,-0.4287,-0.4758,-0.5428,-0.5428,-0.5627,-0.6214,-0.7507,-0.8226,-0.8812,-1.0174,-1.0996,-1.1483,-1.1483,-1.2174,-1.2867,-1.2805,-1.2997,-1.318,-1.2928,-1.3467,-1.424,-1.5235,-1.5951,-1.6488,-1.6705,-1.6761,-1.6807,-1.7078,-1.7211,-1.7211,-1.719,-1.719,-1.7078,-1.6818,-1.7032,-1.7179,-1.7146,-1.7435,-1.7722,-1.7984,-1.8038,-1.8147,-1.8417,-1.8525,-1.8602,-1.8798,-1.9356,-1.9759,-2.0042,-2.0939,-2.1595,-2.1949,-2.2091,-2.2324,-2.2555,-2.2768,-2.2889,0.3302,0.3422,0.3824,0.5855,0.5717,0.5741,0.8452,0.8878,0.9023,0.9906,1.1593,1.2834,1.2514,1.4017,0.0,0.0,0.0,0.0,0.0,0.0,0.0,0.0,0.0,0.0,0.0,0.0,0.0,0.0,0.0,1.2212,1.294,1.1979,1.1785,1.2589,1.0571,0.8656,0.692,0.5749,0.4827,0.409,0.3422,0.2954,0.2619,0.1613,0.0672,-0.0067,-0.0605,-0.1412,-0.2288,-0.2554,-0.2753,-0.2822,-0.3092,-0.3625,-0.4287,-0.4287,-0.4758,-0.5428,-0.5627,-0.6083,-0.6732,-0.7902,-0.8865,-0.964,-1.0611,-1.1373,-1.1872,-1.1872,-1.2367,-1.2867,-1.2805,-1.2928,-1.305,-1.2989,-1.4172,-1.5294,-1.5216,-1.6036,-1.6797,-1.6818,-1.692,-1.7078,-1.719,-1.7267,-1.7334,-1.749,-1.7678,-1.7722,-1.7667,-1.7886,-1.7984,-1.7809,-1.7875,-1.8038,-1.8309,-1.8809,-1.931,-1.9774,-2.0268,-2.0617,-2.0779,-2.1245,-2.1452,-2.15,-2.2067,-2.2328,-2.2137,-2.2495,-2.2768,-2.3053,-2.3127,-2.3216,0.2605,0.2451,0.2599,0.4608,0.4439,0.4397,0.6519,0.7249,0.7575,0.8041,1.0019,1.1579,1.1213,1.2637,0.0,0.0,0.0,0.0,0.0,0.0,0.0,0.0,0.0,0.0,0.0,0.0,0.0,0.0,0.0,0.0,1.3511,1.2279,1.1631,1.1826,1.0508,0.8592,0.6017,0.5756,0.5223,0.4356,0.3284,0.2751,0.2551,0.1142,0.0202,-0.0336,-0.0874,-0.148,-0.2153,-0.2554,-0.2686,-0.2621,-0.3025,-0.3625,-0.4287,-0.4287,-0.4758,-0.5428,-0.5756,-0.628,-0.6929,-0.8226,-0.925,-1.0148,-1.1115,-1.1872,-1.2375,-1.2375,-1.2736,-1.3042,-1.3042,-1.3164,-1.3346,-1.3519,-1.4815,-1.5921,-1.5613,-1.6368,-1.7067,-1.7088,-1.7256,-1.7412,-1.7634,-1.77,-1.7822,-1.8084,-1.8278,-1.8375,-1.8255,-1.8471,-1.859,-1.8429,-1.8372,-1.8477,-1.875,-1.917,-1.9718,-2.0426,-2.0982,-2.1456,-2.1838,-2.2253,-2.242,-2.2221,-2.2754,-2.2904,-2.2586,-2.2904,-2.3127,-2.3319,-2.3228,-2.3161,0.0,0.0,0.0,0.2598,0.2868,0.0,0.4033,0.0,0.6342,0.7042,0.8969,1.0557,1.0753,1.1833,0.0,0.0,0.0,0.0,0.0,0.0,0.0,0.0,0.0,0.0,0.0,0.0,0.0,0.0,1.5032,1.4613,1.4669,1.3631,1.2097,1.0078,1.0015,0.8726,0.6141,0.6075,0.5547,0.4558,0.3482,0.295,0.2889,0.1209,0.0202,-0.0336,-0.0874,-0.1412,-0.1951,-0.2487,-0.2554,-0.249,-0.3027,-0.3625,-0.4287,-0.4287,-0.4758,-0.5428,-0.5822,-0.6152,-0.6675,-0.8409,-0.9436,-1.0268,-1.1677,-1.249,-1.2989,-1.2989,-1.3216,-1.3511,-1.3511,-1.364,-1.3941,-1.4529,-1.5284,-1.5958,-1.6425,-1.6899,-1.7312,-1.7656,-1.7711,-1.792,-1.8506,-1.8614,-1.8667,-1.8934,-1.8987,-1.8869,-1.8578,-1.8815,-1.904,-1.904,-1.898,-1.902,-1.9315,-1.9081,-1.941,-2.0473,-2.056,-2.0931,-2.1716,-2.2253,-2.242,-2.2175,-2.2934,-2.3319,-2.3319,-2.3304,-2.329,-2.3275,-2.3005,-2.2641,0.0292,0.0,0.0,0.0,0.0,0.0,0.0,0.0,0.4376,0.4415,0.6218,0.7772,0.7637,0.8904,0.0,0.0,0.0,0.0,0.0,0.0,0.0,0.0,0.0,0.0,0.0,0.0,0.0,0.0,1.3048,1.2795,1.3793,1.3502,1.2443,1.0431,1.0123,0.8913,0.6679,0.6079,0.5216,0.4151,0.2813,0.1945,0.1344,0.0,-0.0739,-0.0874,-0.1277,-0.1747,-0.2284,-0.2552,-0.2686,-0.2688,-0.3025,-0.3625,-0.4287,-0.4287,-0.4758,-0.5491,-0.5951,-0.6218,-0.6741,-0.8603,-0.9564,-1.0268,-1.1677,-1.249,-1.2989,-1.2989,-1.3216,-1.3511,-1.37,-1.3881,-1.424,-1.4746,-1.5439,-1.6187,-1.6719,-1.7401,-1.781,-1.7711,-1.7877,-1.8139,-1.8506,-1.8614,-1.8667,-1.8934,-1.9158,-1.9198,-1.9016,-1.9239,-1.9448,-1.9552,-1.957,-1.9687,-1.9952,-2.0231,-2.0641,-2.1111,-2.1829,-2.2403,-2.2786,-2.3231,-2.345,-2.3537,-2.3696,-2.3882,-2.4009,-2.3356,-2.299,-2.2975,-2.2595,-2.234,-0.0404,-0.0421,-0.0392,0.0435,0.0,0.0,0.181,0.2246,0.2553,0.0,0.3998,0.5274,0.5085,0.6573,0.7809,0.0,0.0,0.0,0.0,0.0,0.0,0.0,0.0,0.0,0.0,1.3957,1.4195,1.4255,1.3365,1.3034,1.3459,1.3511,1.2626,1.069,1.0501,0.9296,0.6946,0.6408,0.5675,0.4616,0.2809,0.181,0.1409,-0.0403,-0.121,-0.121,-0.1547,-0.195,-0.2351,-0.2686,-0.2889,-0.2956,-0.336,-0.3892,-0.4422,-0.4489,-0.4891,-0.5554,-0.6017,-0.6539,-0.719,-0.8918,-1.0002,-1.0829,-1.2112,-1.2797,-1.3216,-1.3216,-1.3459,-1.3761,-1.4001,-1.424,-1.4597,-1.5323,-1.5911,-1.6549,-1.7446,-1.8018,-1.8247,-1.8084,-1.8193,-1.8452,-1.8881,-1.8881,-1.8922,-1.9198,-1.9368,-1.9408,-1.9448,-1.9604,-1.9759,-1.9965,-1.9864,-1.9887,-2.0036,-2.0359,-2.0716,-2.1143,-2.2117,-2.2848,-2.3218,-2.3673,-2.3994,-2.4162,-2.4135,-2.4096,-2.4008,-2.3657,-2.3361,-2.3167,-2.2808,-2.2447,-0.1024,-0.0975,-0.088,-0.0335,0.0,0.0,0.0823,0.0881,0.0857,0.0,0.2239,0.3045,0.3015,0.4518,0.5673,0.0,0.0,0.0,0.0,0.0,0.0,0.0,0.0,0.0,1.4004,1.4495,1.4808,1.4993,1.4737,1.4231,1.3571,1.345,1.2634,1.0836,1.0829,0.9621,0.6946,0.6868,0.64,0.5481,0.3207,0.2207,0.2209,-0.0201,-0.1277,-0.1344,-0.1681,-0.2018,-0.2356,-0.2824,-0.3092,-0.3226,-0.3761,-0.4228,-0.4625,-0.4761,-0.516,-0.5683,-0.6013,-0.6863,-0.7962,-0.9227,-1.0494,-1.1703,-1.2728,-1.3216,-1.3511,-1.3571,-1.3821,-1.4189,-1.4469,-1.4706,-1.5118,-1.6083,-1.6503,-1.7011,-1.8278,-1.856,-1.8614,-1.8614,-1.8614,-1.8774,-1.9316,-1.9251,-1.9291,-1.9656,-1.9565,-1.9565,-1.994,-1.994,-2.0055,-2.0308,-2.0129,-2.0022,-2.0035,-2.0166,-2.0455,-2.094,-2.1913,-2.2742,-2.3289,-2.384,-2.4204,-2.4343,-2.4343,-2.4172,-2.3764,-2.4055,-2.3962,-2.353,-2.3336,-2.2814,-0.2234,-0.2247,-0.2094,0.0,-0.114,0.0,-0.0149,0.0038,0.0204,0.0,0.0824,0.1105,0.1492,0.1912,0.2212,0.0,0.0,0.0,0.0,0.0,0.0,0.0,0.0,0.0,1.1051,1.1927,1.2549,1.2862,1.3433,1.3692,1.3511,1.3216,1.2413,1.0836,1.0249,0.9041,0.7138,0.6741,0.5877,0.4677,0.3074,0.2008,0.1272,-0.0403,-0.121,-0.1344,-0.1547,-0.2151,-0.3025,-0.3092,-0.3092,-0.309,-0.3761,-0.4228,-0.4625,-0.4761,-0.5226,-0.5822,-0.5954,-0.6798,-0.8086,-0.9169,-1.0438,-1.1703,-1.2728,-1.3216,-1.3571,-1.3821,-1.4309,-1.4784,-1.4715,-1.5235,-1.5931,-1.6457,-1.6888,-1.7446,-1.8247,-1.8422,-1.8518,-1.8881,-1.8839,-1.8839,-1.9186,-1.9146,-1.9344,-2.0258,-2.0016,-2.0093,-2.1037,-2.0818,-2.0832,-2.1328,-2.1377,-2.1417,-2.1633,-2.1662,-2.1777,-2.2005,-2.2658,-2.3126,-2.3357,-2.3975,-2.4343,-2.4549,-2.4751,-2.4823,-2.4721,-2.4061,-2.3498,-2.3049,-2.3012,-2.287,0.0,0.0,0.0,-0.2073,0.0,0.0,0.0,-0.0998,-0.1146,-0.0826,-0.079,-0.0779,-0.0504,-0.0137,0.0182,0.0224,0.0,0.0,0.0,0.0,0.0,0.0,0.0,0.0,0.8628,1.0027,1.137,1.2528,1.3208,1.345,1.3277,1.2781,1.1958,1.071,0.9869,0.879,0.733,0.6876,0.6083,0.5011,0.3274,0.2075,0.1408,-0.047,-0.1412,-0.148,-0.1749,-0.2285,-0.2956,-0.3159,-0.3293,-0.3558,-0.4161,-0.4561,-0.4891,-0.5226,-0.5624,-0.6086,-0.6214,-0.7442,-0.8977,-0.9609,-1.094,-1.2343,-1.3025,-1.3459,-1.3881,-1.4369,-1.4734,-1.5029,-1.5137,-1.57,-1.6322,-1.6888,-1.7324,-1.7875,-1.8602,-1.8732,-1.8839,-1.9291,-1.9158,-1.9064,-1.9251,-1.9303,-1.95,-2.0016,-2.0156,-2.0446,-2.1161,-2.1245,-2.1438,-2.1866,-2.1913,-2.1974,-2.2081,-2.2452,-2.2536,-2.2366,-2.3213,-2.3701,-2.359,-2.4158,-2.4549,-2.4791,-2.4926,-2.5005,-2.5005,-2.454,-2.4178,-2.3945,-2.3559,-2.3401,0.0,0.0,0.0,0.0,0.0,-0.2156,0.0,0.0,0.0,0.0,0.0,0.0,0.0,0.0,0.0,0.0,0.0,0.0,0.0,0.0,0.0,0.0,0.0,0.0,0.0,0.8376,1.0418,1.2381,1.2956,1.3078,1.2789,1.2212,1.1384,1.0319,0.9494,0.8603,0.7526,0.7138,0.6482,0.5617,0.3473,0.2275,0.1811,-0.047,-0.1547,-0.1614,-0.1951,-0.2354,-0.282,-0.3092,-0.356,-0.4228,-0.4631,-0.496,-0.5286,-0.5756,-0.6086,-0.6346,-0.6609,-0.8016,-0.9799,-1.0046,-1.1509,-1.3111,-1.3519,-1.3821,-1.4249,-1.4852,-1.5029,-1.5147,-1.5672,-1.6104,-1.6652,-1.7324,-1.782,-1.8352,-1.9069,-1.9146,-1.9198,-1.9656,-1.9512,-1.938,-1.9473,-1.9512,-1.9619,-1.9711,-2.0281,-2.0855,-2.122,-2.1702,-2.21,-2.2438,-2.2452,-2.2498,-2.2529,-2.3084,-2.3227,-2.2832,-2.3773,-2.4172,-2.3833,-2.4225,-2.4563,-2.476,-2.4942,-2.4942,-2.4776,-2.4942,-2.5005,-2.5005,-2.4381,-2.4112,0.0,0.0,0.0,0.0,-0.3312,0.0,0.0,0.0,-0.3813,-0.3775,0.0,0.0,0.0,0.0,0.0,0.0,0.0,0.0,-0.2059,0.0,0.0,0.0,0.0,0.0,0.0,0.6733,0.8865,1.0836,1.1688,1.2135,1.2135,1.1764,1.094,0.9679,0.893,0.8296,0.7666,0.7143,0.6552,0.5822,0.3671,0.2406,0.1811,-0.0201,-0.1344,-0.1614,-0.1681,-0.2218,-0.3159,-0.3159,-0.3828,-0.4697,-0.4764,-0.509,-0.555,-0.5822,-0.6284,-0.6815,-0.6741,-0.8156,-0.9945,-0.999,-1.1509,-1.3363,-1.383,-1.4181,-1.4538,-1.4902,-1.5098,-1.5323,-1.5884,-1.6539,-1.7202,-1.7722,-1.8483,-1.9069,-1.9174,-1.9303,-1.942,-1.9617,-1.9656,-1.9759,-1.9939,-1.9629,-1.9597,-2.0157,-2.0756,-2.1417,-2.2178,-2.2629,-2.3201,-2.3809,-2.3824,-2.3882,-2.4036,-2.4135,-2.4188,-2.4251,-2.4436,-2.4333,-2.3817,-2.3926,-2.3995,-2.4033,-2.465,-2.4665,-2.4033,-2.4665,-2.5005,-2.5005,-2.4926,-2.4894,0.0,0.0,0.0,0.0,0.0,0.0,-0.4576,0.0,-0.4103,0.0,0.0,0.0,0.0,0.0,0.0,0.0,-0.3059,0.0,0.0,0.0,-0.1403,0.0,0.0,0.0,0.0,0.0,0.0,0.0,0.9749,1.0221,1.0123,0.9951,0.9685,0.9192,0.8355,0.7782,0.74,0.7007,0.6346,0.5422,0.3473,0.2275,0.1811,-0.0268,-0.1277,-0.148,-0.1882,-0.2487,-0.3226,-0.356,-0.4095,-0.4831,-0.496,-0.5289,-0.5822,-0.6086,-0.6486,-0.7012,-0.7647,-0.886,-1.0368,-1.135,-1.2508,-1.3547,-1.3965,-1.4412,-1.4902,-1.5264,-1.5662,-1.6046,-1.6503,-1.7313,-1.8124,-1.8441,-1.8975,-1.9448,-1.9448,-1.9552,-1.9569,-1.946,-1.9472,-1.9519,-1.9564,-1.9747,-1.9889,-1.9839,-2.0681,-2.1374,-2.1496,-2.2188,-2.2778,-2.3148,-2.3156,-2.3326,-2.3847,-2.3997,-2.4092,-2.4108,-2.3795,-2.3683,-2.3847,-2.3885,-2.4112,-2.4523,-2.4506,-2.4506,-2.4523,-2.4115,-2.429,-2.5005,-2.5005,-2.5005,-0.4046,0.0,0.0,0.0,0.0,0.0,0.0,0.0,0.0,0.0,0.0,0.0,0.0,0.0,-0.4164,-0.4078,0.0,-0.3515,0.0,-0.3164,0.0,0.0,0.0,0.0,0.0,0.0,0.0,0.6783,0.7802,0.8311,0.8396,0.8434,0.8544,0.856,0.7717,0.7265,0.7265,0.6741,0.6083,0.5219,0.3276,0.2143,0.1811,-0.0403,-0.1344,-0.1344,-0.2149,-0.282,-0.3291,-0.3828,-0.4361,-0.4894,-0.5024,-0.5488,-0.609,-0.6288,-0.6679,-0.7269,-0.8355,-0.95,-1.085,-1.2419,-1.3197,-1.3656,-1.3967,-1.4524,-1.5147,-1.572,-1.6161,-1.6595,-1.7213,-1.8015,-1.8715,-1.904,-1.9408,-1.9656,-1.9656,-1.9811,-1.9889,-1.9658,-1.9703,-1.9716,-1.9588,-1.9721,-1.9677,-1.93,-2.0308,-2.0941,-2.0581,-2.1389,-2.2103,-2.2415,-2.2443,-2.2736,-2.3441,-2.3676,-2.3713,-2.3654,-2.2889,-2.2718,-2.3433,-2.3274,-2.3401,-2.3962,-2.3713,-2.3829,-2.4249,-2.3375,-2.3522,-2.4611,-2.4719,-2.4831,0.0,0.0,0.0,-0.5779,0.0,0.0,0.0,0.0,-0.5217,0.0,0.0,0.0,0.0,0.0,-0.4599,-0.4903,-0.4619,0.0,0.0,0.0,0.0,0.0,0.0,0.0,0.0,0.0,0.0,0.4767,0.5964,0.6806,0.7315,0.7694,0.7817,0.7587,0.6999,0.6999,0.7456,0.6478,0.5822,0.555,0.3205,0.2008,0.1811,-0.0537,-0.148,-0.1344,-0.2284,-0.3019,-0.3487,-0.3892,-0.4425,-0.5087,-0.5087,-0.562,-0.6416,-0.642,-0.6946,-0.7792,-0.8484,-0.9812,-1.1465,-1.2537,-1.3143,-1.3605,-1.4002,-1.4524,-1.5196,-1.6208,-1.6368,-1.6585,-1.7907,-1.8382,-1.865,-1.9251,-1.9617,-1.9798,-1.9798,-2.0105,-2.0372,-2.0346,-2.0696,-2.0771,-2.0247,-1.9409,-1.8826,-1.8655,-1.9596,-2.0175,-1.9705,-2.0556,-2.1501,-2.224,-2.224,-2.2518,-2.325,-2.3391,-2.3391,-2.3337,-2.202,-2.1585,-2.231,-2.1666,-2.1311,-2.1311,-2.1988,-2.2376,-2.2409,-2.2492,-2.2916,-2.3666,-2.3971,-2.4449,0.0,0.0,-0.6411,-0.818,0.0,0.0,0.0,0.0,0.0,0.0,0.0,0.0,0.0,0.0,-0.4925,-0.4981,-0.4768,-0.454,0.0,0.0,0.0,0.0,0.0,0.0,0.0,0.0,0.0,0.202,0.3112,0.3926,0.4417,0.5654,0.6392,0.6522,0.6737,0.6811,0.6745,0.6218,0.5418,0.4547,0.2676,0.1542,0.1074,-0.0873,-0.1614,-0.1345,-0.2554,-0.3222,-0.3553,-0.4225,-0.4758,-0.5156,-0.5488,-0.6017,-0.6609,-0.6609,-0.7073,-0.7922,-0.9256,-1.0751,-1.1994,-1.2402,-1.3067,-1.3709,-1.3857,-1.49,-1.6093,-1.6549,-1.7246,-1.8004,-1.8578,-1.9056,-1.9423,-1.9604,-1.9759,-1.985,-2.0016,-2.0321,-2.0455,-2.0259,-2.0221,-2.0007,-1.9425,-1.883,-1.8449,-1.8652,-1.8998,-1.9155,-1.8861,-1.9686,-2.0457,-2.0809,-2.1405,-2.2084,-2.2701,-2.2699,-2.2665,-2.2647,-2.1681,-2.1279,-2.1553,-2.1327,-2.123,-2.1324,-2.1175,-2.1485,-2.2295,-2.164,-2.2141,-2.372,-2.3356,-2.3479,-0.7228,-0.7613,0.0,-0.9459,-0.8802,0.0,-0.8143,0.0,0.0,0.0,0.0,0.0,0.0,0.0,-0.5709,-0.5077,-0.4993,-0.4974,0.0,-0.4703,0.0,0.0,0.0,0.0,0.0,-0.1746,-0.0993,0.0064,0.1149,0.1978,0.0,0.0,0.5066,0.5508,0.6042,0.6284,0.6086,0.569,0.4954,0.388,0.2277,0.1207,0.0537,-0.121,-0.1883,-0.1746,-0.2824,-0.3491,-0.382,-0.4495,-0.496,-0.5223,-0.569,-0.6342,-0.7055,-0.6933,-0.7652,-0.8801,-1.0214,-1.1526,-1.252,-1.2338,-1.3085,-1.4044,-1.3959,-1.5159,-1.6708,-1.7202,-1.8015,-1.8874,-1.9291,-1.9604,-1.9798,-1.9862,-1.9914,-1.9965,-1.9964,-2.0224,-2.0382,-1.9987,-1.989,-1.9674,-1.9084,-1.8877,-1.8749,-1.8673,-1.8673,-1.8717,-1.8767,-1.9381,-1.9959,-2.0352,-2.1003,-2.1613,-2.218,-2.2118,-2.1956,-2.1713,-2.1336,-2.1049,-2.0883,-2.123,-2.1449,-2.1506,-2.1166,-2.1491,-2.2488,-2.1602,-2.1983,-2.3532,-2.3064,-2.2996]}]]